<?xml version='1.0' encoding='UTF-8'?><gpx version="1.1" creator="JPX - https://github.com/jenetics/jpx" xmlns="http://www.topografix.com/GPX/1/1"><trk><trkseg><trkpt lat="43.353957719302" lon="11.910769156540473"><ele>319.0</ele><time>2026-04-18T15:48:23Z</time></trkpt><trkpt lat="43.35398374944228" lon="11.910879992179225"><ele>319.0</ele><time>2026-04-18T15:48:26Z</time></trkpt><trkpt lat="43.35400409260041" lon="11.910975543970688"><ele>319.0</ele><time>2026-04-18T15:48:28Z</time></trkpt><trkpt lat="43.354030198517414" lon="11.911082374473335"><ele>319.0</ele><time>2026-04-18T15:48:30Z</time></trkpt><trkpt lat="43.35406330611332" lon="11.911205117668093"><ele>319.0</ele><time>2026-04-18T15:48:32Z</time></trkpt><trkpt lat="43.35409625571599" lon="11.911348109424457"><ele>319.0</ele><time>2026-04-18T15:48:34Z</time></trkpt><trkpt lat="43.35413273233994" lon="11.911495165436087"><ele>318.59999999999997</ele><time>2026-04-18T15:48:36.001Z</time></trkpt><trkpt lat="43.354173436674174" lon="11.911645366411104"><ele>318.2</ele><time>2026-04-18T15:48:38.001Z</time></trkpt><trkpt lat="43.35416880760386" lon="11.911802046498096"><ele>317.79999999999995</ele><time>2026-04-18T15:48:40.001Z</time></trkpt><trkpt lat="43.35414791999874" lon="11.911947558842712"><ele>317.4</ele><time>2026-04-18T15:48:42.001Z</time></trkpt><trkpt lat="43.35415398318698" lon="11.912071961309062"><ele>317.0</ele><time>2026-04-18T15:48:44.001Z</time></trkpt><trkpt lat="43.35416628648638" lon="11.912171164402787"><ele>317.0</ele><time>2026-04-18T15:48:46.001Z</time></trkpt><trkpt lat="43.354204158367125" lon="11.912270209250572"><ele>317.0</ele><time>2026-04-18T15:48:49.001Z</time></trkpt><trkpt lat="43.35424751855111" lon="11.912333208759366"><ele>317.0</ele><time>2026-04-18T15:48:51.001Z</time></trkpt><trkpt lat="43.35428614591886" lon="11.912404255911213"><ele>317.0</ele><time>2026-04-18T15:48:53.001Z</time></trkpt><trkpt lat="43.35434842150378" lon="11.912489755293675"><ele>317.0</ele><time>2026-04-18T15:48:56.001Z</time></trkpt><trkpt lat="43.35443439865817" lon="11.912549783246304"><ele>317.0</ele><time>2026-04-18T15:48:59.001Z</time></trkpt><trkpt lat="43.35448797189481" lon="11.912596929645025"><ele>317.6</ele><time>2026-04-18T15:49:01.001Z</time></trkpt><trkpt lat="43.354555185995785" lon="11.912682112995736"><ele>318.2</ele><time>2026-04-18T15:49:03.001Z</time></trkpt><trkpt lat="43.354679675628404" lon="11.912778283658406"><ele>318.8</ele><time>2026-04-18T15:49:06.001Z</time></trkpt><trkpt lat="43.35474634387623" lon="11.912843630645252"><ele>319.4</ele><time>2026-04-18T15:49:08.001Z</time></trkpt><trkpt lat="43.35481071934337" lon="11.91293325633342"><ele>320.0</ele><time>2026-04-18T15:49:11.001Z</time></trkpt><trkpt lat="43.3547912005038" lon="11.913019154530677"><ele>320.0</ele><time>2026-04-18T15:49:13.001Z</time></trkpt><trkpt lat="43.354754460968735" lon="11.913116737050062"><ele>320.0</ele><time>2026-04-18T15:49:15.001Z</time></trkpt><trkpt lat="43.35473096650466" lon="11.913201897075078"><ele>320.0</ele><time>2026-04-18T15:49:17.001Z</time></trkpt><trkpt lat="43.3546914382891" lon="11.913328746037699"><ele>320.0</ele><time>2026-04-18T15:49:20.001Z</time></trkpt><trkpt lat="43.35466409559723" lon="11.913449980456404"><ele>320.0</ele><time>2026-04-18T15:49:22.001Z</time></trkpt><trkpt lat="43.35462986083722" lon="11.913544254431692"><ele>320.0</ele><time>2026-04-18T15:49:24.001Z</time></trkpt><trkpt lat="43.354592051462475" lon="11.913652168730085"><ele>321.33333333333337</ele><time>2026-04-18T15:49:27.001Z</time></trkpt><trkpt lat="43.35456823258428" lon="11.913754935107997"><ele>322.6666666666667</ele><time>2026-04-18T15:49:30.001Z</time></trkpt><trkpt lat="43.354548056483" lon="11.913865026802908"><ele>324.0</ele><time>2026-04-18T15:49:32.001Z</time></trkpt><trkpt lat="43.354511889591585" lon="11.91397562959947"><ele>325.3333333333333</ele><time>2026-04-18T15:49:34.001Z</time></trkpt><trkpt lat="43.354551077330264" lon="11.914065202236158"><ele>326.66666666666663</ele><time>2026-04-18T15:49:36.001Z</time></trkpt><trkpt lat="43.35463403350673" lon="11.914083704342826"><ele>328.0</ele><time>2026-04-18T15:49:38.001Z</time></trkpt><trkpt lat="43.35470668125037" lon="11.91410327600988"><ele>330.3333333333333</ele><time>2026-04-18T15:49:40.001Z</time></trkpt><trkpt lat="43.354791167045384" lon="11.914145483347317"><ele>332.66666666666663</ele><time>2026-04-18T15:49:43.001Z</time></trkpt><trkpt lat="43.354875159258654" lon="11.914184567502872"><ele>335.0</ele><time>2026-04-18T15:49:46.002Z</time></trkpt><trkpt lat="43.35493979468552" lon="11.914197728490322"><ele>337.3333333333333</ele><time>2026-04-18T15:49:48.002Z</time></trkpt><trkpt lat="43.35499647267433" lon="11.9142389542825"><ele>339.6666666666667</ele><time>2026-04-18T15:49:51.002Z</time></trkpt><trkpt lat="43.35494669181414" lon="11.914376368844705"><ele>342.0</ele><time>2026-04-18T15:49:54.002Z</time></trkpt><trkpt lat="43.35491163006766" lon="11.91450974935466"><ele>343.1428571428571</ele><time>2026-04-18T15:49:56.002Z</time></trkpt><trkpt lat="43.35489466643746" lon="11.914619714663926"><ele>344.2857142857143</ele><time>2026-04-18T15:49:58.002Z</time></trkpt><trkpt lat="43.35485912470688" lon="11.914692365136531"><ele>345.42857142857144</ele><time>2026-04-18T15:50:00.002Z</time></trkpt><trkpt lat="43.35482612609998" lon="11.91479481874664"><ele>346.57142857142856</ele><time>2026-04-18T15:50:03.001Z</time></trkpt><trkpt lat="43.354828191287716" lon="11.91488754789062"><ele>347.7142857142857</ele><time>2026-04-18T15:50:05.001Z</time></trkpt><trkpt lat="43.354861324456635" lon="11.914982228329993"><ele>348.85714285714283</ele><time>2026-04-18T15:50:07.001Z</time></trkpt><trkpt lat="43.354887864584164" lon="11.91507067879433"><ele>350.0</ele><time>2026-04-18T15:50:09.001Z</time></trkpt><trkpt lat="43.354905917828546" lon="11.915168402033226"><ele>351.5</ele><time>2026-04-18T15:50:11.001Z</time></trkpt><trkpt lat="43.354880592139125" lon="11.91525704461808"><ele>353.0</ele><time>2026-04-18T15:50:13.001Z</time></trkpt><trkpt lat="43.35489245840457" lon="11.915382253286772"><ele>354.5</ele><time>2026-04-18T15:50:15.001Z</time></trkpt><trkpt lat="43.35490324361924" lon="11.915493113015803"><ele>356.0</ele><time>2026-04-18T15:50:17.001Z</time></trkpt><trkpt lat="43.354924406552875" lon="11.91559487570761"><ele>357.5</ele><time>2026-04-18T15:50:21.001Z</time></trkpt><trkpt lat="43.354932499638366" lon="11.915693157056245"><ele>359.0</ele><time>2026-04-18T15:50:23.001Z</time></trkpt><trkpt lat="43.3549491811737" lon="11.915824527578698"><ele>361.0</ele><time>2026-04-18T15:50:25.001Z</time></trkpt><trkpt lat="43.35495768700639" lon="11.915915013816049"><ele>363.0</ele><time>2026-04-18T15:50:27.001Z</time></trkpt><trkpt lat="43.35494121821626" lon="11.916016188616954"><ele>365.0</ele><time>2026-04-18T15:50:30.001Z</time></trkpt><trkpt lat="43.354893479154896" lon="11.916100625177055"><ele>367.0</ele><time>2026-04-18T15:50:33.001Z</time></trkpt><trkpt lat="43.35490995509855" lon="11.916211364987257"><ele>369.0</ele><time>2026-04-18T15:50:36.001Z</time></trkpt><trkpt lat="43.35496781689778" lon="11.916276429599495"><ele>371.0</ele><time>2026-04-18T15:50:41.001Z</time></trkpt><trkpt lat="43.35501537003012" lon="11.916337558875332"><ele>373.0</ele><time>2026-04-18T15:50:44.001Z</time></trkpt><trkpt lat="43.355032960038564" lon="11.916427269883236"><ele>373.0</ele><time>2026-04-18T15:50:47.001Z</time></trkpt><trkpt lat="43.3549507192331" lon="11.916468754285457"><ele>373.0</ele><time>2026-04-18T15:50:50.001Z</time></trkpt><trkpt lat="43.35490722889644" lon="11.916558339118525"><ele>373.0</ele><time>2026-04-18T15:50:54.001Z</time></trkpt><trkpt lat="43.354882835409754" lon="11.916648675848396"><ele>373.0</ele><time>2026-04-18T15:50:56.001Z</time></trkpt><trkpt lat="43.354876635157154" lon="11.916746585439025"><ele>373.0</ele><time>2026-04-18T15:50:59.001Z</time></trkpt><trkpt lat="43.35487697802557" lon="11.916839783264905"><ele>373.0</ele><time>2026-04-18T15:51:03.001Z</time></trkpt><trkpt lat="43.35488593667521" lon="11.916933688277071"><ele>373.0</ele><time>2026-04-18T15:51:06.001Z</time></trkpt><trkpt lat="43.35489728056493" lon="11.917043474009896"><ele>374.7142857142857</ele><time>2026-04-18T15:51:09.001Z</time></trkpt><trkpt lat="43.35490862293436" lon="11.917136203825697"><ele>376.42857142857144</ele><time>2026-04-18T15:51:13.001Z</time></trkpt><trkpt lat="43.35493313494116" lon="11.917222689308337"><ele>378.1428571428571</ele><time>2026-04-18T15:51:16.001Z</time></trkpt><trkpt lat="43.35494528443785" lon="11.917307917257801"><ele>379.8571428571429</ele><time>2026-04-18T15:51:20.001Z</time></trkpt><trkpt lat="43.35495733585267" lon="11.917407071393232"><ele>381.57142857142856</ele><time>2026-04-18T15:51:23.001Z</time></trkpt><trkpt lat="43.35496945865965" lon="11.917504118009564"><ele>383.2857142857143</ele><time>2026-04-18T15:51:26.001Z</time></trkpt><trkpt lat="43.35497159980669" lon="11.917597373410636"><ele>385.0</ele><time>2026-04-18T15:51:30.001Z</time></trkpt><trkpt lat="43.35497253200683" lon="11.917694079357148"><ele>385.42857142857144</ele><time>2026-04-18T15:51:34.001Z</time></trkpt><trkpt lat="43.35498152848884" lon="11.917781865162809"><ele>385.8571428571429</ele><time>2026-04-18T15:51:36.001Z</time></trkpt><trkpt lat="43.355001584086274" lon="11.917888825450193"><ele>386.2857142857143</ele><time>2026-04-18T15:51:41.001Z</time></trkpt><trkpt lat="43.35502212924057" lon="11.917980639845547"><ele>386.7142857142857</ele><time>2026-04-18T15:51:44.001Z</time></trkpt><trkpt lat="43.355055008982184" lon="11.91807934412053"><ele>387.14285714285717</ele><time>2026-04-18T15:51:47.001Z</time></trkpt><trkpt lat="43.35508660648377" lon="11.918154403618026"><ele>387.57142857142856</ele><time>2026-04-18T15:51:53.002Z</time></trkpt><trkpt lat="43.35512899084963" lon="11.91825231686766"><ele>388.0</ele><time>2026-04-18T15:51:57.002Z</time></trkpt><trkpt lat="43.35516906272516" lon="11.9183478234633"><ele>387.00000000000006</ele><time>2026-04-18T15:52:00.002Z</time></trkpt><trkpt lat="43.355218407945394" lon="11.918452441040369"><ele>386.0</ele><time>2026-04-18T15:52:04.001Z</time></trkpt><trkpt lat="43.35524339776828" lon="11.91853246305943"><ele>385.0</ele><time>2026-04-18T15:52:07.001Z</time></trkpt><trkpt lat="43.35528476538062" lon="11.918638951692389"><ele>384.0</ele><time>2026-04-18T15:52:10.001Z</time></trkpt><trkpt lat="43.35534396307776" lon="11.91873980133065"><ele>383.0</ele><time>2026-04-18T15:52:13.001Z</time></trkpt><trkpt lat="43.35538876676939" lon="11.918821034162875"><ele>382.0</ele><time>2026-04-18T15:52:15.001Z</time></trkpt><trkpt lat="43.3554368265639" lon="11.918886404248122"><ele>382.0</ele><time>2026-04-18T15:52:17.001Z</time></trkpt><trkpt lat="43.35547018724777" lon="11.918976694280856"><ele>382.0</ele><time>2026-04-18T15:52:20.001Z</time></trkpt><trkpt lat="43.355531862412086" lon="11.919030802702599"><ele>382.0</ele><time>2026-04-18T15:52:22.001Z</time></trkpt><trkpt lat="43.35558217334201" lon="11.919108801542086"><ele>382.0</ele><time>2026-04-18T15:52:25.001Z</time></trkpt><trkpt lat="43.35564941894996" lon="11.919174319710338"><ele>382.0</ele><time>2026-04-18T15:52:28.001Z</time></trkpt><trkpt lat="43.3557174814321" lon="11.919232862890823"><ele>382.0</ele><time>2026-04-18T15:52:31.001Z</time></trkpt><trkpt lat="43.35577643161667" lon="11.919292612567533"><ele>385.8333333333333</ele><time>2026-04-18T15:52:34.001Z</time></trkpt><trkpt lat="43.35584142304562" lon="11.919347544154705"><ele>389.66666666666663</ele><time>2026-04-18T15:52:37Z</time></trkpt><trkpt lat="43.35589531444424" lon="11.919396064082061"><ele>393.5</ele><time>2026-04-18T15:52:39Z</time></trkpt><trkpt lat="43.35594991082712" lon="11.919466753389386"><ele>397.3333333333333</ele><time>2026-04-18T15:52:43Z</time></trkpt><trkpt lat="43.35599459865932" lon="11.919562359285653"><ele>401.1666666666667</ele><time>2026-04-18T15:52:45Z</time></trkpt><trkpt lat="43.356025257204024" lon="11.919703641030738"><ele>405.0</ele><time>2026-04-18T15:52:47Z</time></trkpt><trkpt lat="43.35604739078984" lon="11.919847439677685"><ele>405.0</ele><time>2026-04-18T15:52:49Z</time></trkpt><trkpt lat="43.35608980781194" lon="11.919942206818025"><ele>405.0</ele><time>2026-04-18T15:52:52Z</time></trkpt><trkpt lat="43.35612329650887" lon="11.920028103377614"><ele>405.0</ele><time>2026-04-18T15:52:54Z</time></trkpt><trkpt lat="43.35615338710166" lon="11.920112066278465"><ele>405.0</ele><time>2026-04-18T15:52:56Z</time></trkpt><trkpt lat="43.356165484739975" lon="11.920242063742169"><ele>405.0</ele><time>2026-04-18T15:52:59Z</time></trkpt><trkpt lat="43.35620025841678" lon="11.920373848926426"><ele>405.0</ele><time>2026-04-18T15:53:01Z</time></trkpt><trkpt lat="43.356217467870636" lon="11.920475159410499"><ele>406.8333333333333</ele><time>2026-04-18T15:53:03Z</time></trkpt><trkpt lat="43.356242348760674" lon="11.92059030225816"><ele>408.66666666666663</ele><time>2026-04-18T15:53:05Z</time></trkpt><trkpt lat="43.35626209136292" lon="11.920690887339594"><ele>410.5</ele><time>2026-04-18T15:53:07Z</time></trkpt><trkpt lat="43.35627331368283" lon="11.920801247168813"><ele>412.3333333333333</ele><time>2026-04-18T15:53:10Z</time></trkpt><trkpt lat="43.3563184186627" lon="11.920913592962169"><ele>414.16666666666663</ele><time>2026-04-18T15:53:12Z</time></trkpt><trkpt lat="43.35635826122117" lon="11.921052890510088"><ele>416.0</ele><time>2026-04-18T15:53:14Z</time></trkpt><trkpt lat="43.35637484724883" lon="11.92118349668613"><ele>421.49999999999994</ele><time>2026-04-18T15:53:16Z</time></trkpt><trkpt lat="43.356393382606306" lon="11.921312393447554"><ele>427.0</ele><time>2026-04-18T15:53:18Z</time></trkpt><trkpt lat="43.35639584429392" lon="11.92144475513078"><ele>432.5</ele><time>2026-04-18T15:53:20Z</time></trkpt><trkpt lat="43.356395710099534" lon="11.921545721422495"><ele>438.0</ele><time>2026-04-18T15:53:24Z</time></trkpt><trkpt lat="43.356392989290924" lon="11.921683914941665"><ele>443.49999999999994</ele><time>2026-04-18T15:53:27Z</time></trkpt><trkpt lat="43.356391091230044" lon="11.921777965849007"><ele>449.0</ele><time>2026-04-18T15:53:31Z</time></trkpt><trkpt lat="43.356316138636494" lon="11.921766663287118"><ele>446.6</ele><time>2026-04-18T15:53:36Z</time></trkpt><trkpt lat="43.356173880892925" lon="11.921759096530803"><ele>444.2</ele><time>2026-04-18T15:53:38Z</time></trkpt><trkpt lat="43.35609999748025" lon="11.92173832342639"><ele>441.80000000000007</ele><time>2026-04-18T15:53:42Z</time></trkpt><trkpt lat="43.3560174432095" lon="11.92168580879222"><ele>439.40000000000003</ele><time>2026-04-18T15:53:45Z</time></trkpt><trkpt lat="43.35591943653276" lon="11.921618745235516"><ele>437.0</ele><time>2026-04-18T15:53:47Z</time></trkpt><trkpt lat="43.355816729200576" lon="11.921591786394202"><ele>436.99999999999994</ele><time>2026-04-18T15:53:49Z</time></trkpt><trkpt lat="43.35575050826406" lon="11.92159067948699"><ele>437.0</ele><time>2026-04-18T15:53:53Z</time></trkpt><trkpt lat="43.355684647585406" lon="11.921531442099052"><ele>437.0</ele><time>2026-04-18T15:53:58.001Z</time></trkpt><trkpt lat="43.35560785751917" lon="11.92149162568441"><ele>437.0</ele><time>2026-04-18T15:54:02.001Z</time></trkpt><trkpt lat="43.35551382823849" lon="11.921507805920065"><ele>436.99999999999994</ele><time>2026-04-18T15:54:05.001Z</time></trkpt><trkpt lat="43.355438612302144" lon="11.921539147207621"><ele>437.0</ele><time>2026-04-18T15:54:07.001Z</time></trkpt><trkpt lat="43.35535515706018" lon="11.921596885813402"><ele>437.66666666666663</ele><time>2026-04-18T15:54:09.001Z</time></trkpt><trkpt lat="43.35528510767163" lon="11.921642335638158"><ele>438.3333333333333</ele><time>2026-04-18T15:54:11.001Z</time></trkpt><trkpt lat="43.355216010091965" lon="11.921662337171629"><ele>439.0</ele><time>2026-04-18T15:54:13.001Z</time></trkpt><trkpt lat="43.355096246896146" lon="11.921669848433881"><ele>439.66666666666663</ele><time>2026-04-18T15:54:15.001Z</time></trkpt><trkpt lat="43.355027924311415" lon="11.921694272232331"><ele>440.3333333333333</ele><time>2026-04-18T15:54:16.001Z</time></trkpt><trkpt lat="43.35495480692299" lon="11.921746045430115"><ele>441.0</ele><time>2026-04-18T15:54:17.001Z</time></trkpt><trkpt lat="43.35486896498623" lon="11.92179492762659"><ele>443.0</ele><time>2026-04-18T15:54:18.001Z</time></trkpt><trkpt lat="43.354788487913474" lon="11.921841409825829"><ele>445.0</ele><time>2026-04-18T15:54:19.001Z</time></trkpt><trkpt lat="43.354719444678864" lon="11.92190315794938"><ele>447.0</ele><time>2026-04-18T15:54:21.001Z</time></trkpt><trkpt lat="43.354651482036054" lon="11.922002749386463"><ele>449.0</ele><time>2026-04-18T15:54:24.001Z</time></trkpt><trkpt lat="43.35461934816665" lon="11.922122571771196"><ele>451.0</ele><time>2026-04-18T15:54:26.001Z</time></trkpt><trkpt lat="43.35459094663404" lon="11.922220904378037"><ele>453.0</ele><time>2026-04-18T15:54:28.001Z</time></trkpt><trkpt lat="43.35456545930502" lon="11.922398747400681"><ele>453.0</ele><time>2026-04-18T15:54:30Z</time></trkpt><trkpt lat="43.354552534044466" lon="11.92248903856268"><ele>453.0</ele><time>2026-04-18T15:54:31Z</time></trkpt><trkpt lat="43.354538478195124" lon="11.92257730904094"><ele>453.0</ele><time>2026-04-18T15:54:32Z</time></trkpt><trkpt lat="43.35452545868242" lon="11.922674478731759"><ele>453.0</ele><time>2026-04-18T15:54:33Z</time></trkpt><trkpt lat="43.354503305639184" lon="11.922762395921486"><ele>453.0</ele><time>2026-04-18T15:54:34Z</time></trkpt><trkpt lat="43.35443577000769" lon="11.922857086831192"><ele>453.0</ele><time>2026-04-18T15:54:36Z</time></trkpt><trkpt lat="43.35433620736138" lon="11.922911206920404"><ele>454.79999999999995</ele><time>2026-04-18T15:54:38Z</time></trkpt><trkpt lat="43.3542432799296" lon="11.922948135094416"><ele>456.59999999999997</ele><time>2026-04-18T15:54:40Z</time></trkpt><trkpt lat="43.354196667920846" lon="11.923021637101774"><ele>458.40000000000003</ele><time>2026-04-18T15:54:44Z</time></trkpt><trkpt lat="43.35415694326847" lon="11.923122019179448"><ele>460.20000000000005</ele><time>2026-04-18T15:54:48Z</time></trkpt><trkpt lat="43.354226683328285" lon="11.923332006740768"><ele>462.0</ele><time>2026-04-18T15:54:50Z</time></trkpt><trkpt lat="43.35425684728534" lon="11.923464473754432"><ele>462.0</ele><time>2026-04-18T15:54:52Z</time></trkpt><trkpt lat="43.35428327495146" lon="11.923574138679962"><ele>462.0</ele><time>2026-04-18T15:54:54Z</time></trkpt><trkpt lat="43.35430894084905" lon="11.923671978695733"><ele>462.0</ele><time>2026-04-18T15:54:56Z</time></trkpt><trkpt lat="43.35433466177942" lon="11.923762662416916"><ele>462.0</ele><time>2026-04-18T15:54:58Z</time></trkpt><trkpt lat="43.354365429944025" lon="11.923864649196332"><ele>462.0</ele><time>2026-04-18T15:55:00Z</time></trkpt><trkpt lat="43.35443361317349" lon="11.923949041031747"><ele>462.0</ele><time>2026-04-18T15:55:02Z</time></trkpt><trkpt lat="43.35447780045277" lon="11.924048327757378"><ele>462.0</ele><time>2026-04-18T15:55:04Z</time></trkpt><trkpt lat="43.35452429830788" lon="11.924150805116033"><ele>462.00000000000006</ele><time>2026-04-18T15:55:06Z</time></trkpt><trkpt lat="43.35455635953354" lon="11.92426604035027"><ele>462.00000000000006</ele><time>2026-04-18T15:55:08Z</time></trkpt><trkpt lat="43.354552944661165" lon="11.924405924927173"><ele>462.0</ele><time>2026-04-18T15:55:10Z</time></trkpt><trkpt lat="43.354571442756516" lon="11.924533803859985"><ele>462.0</ele><time>2026-04-18T15:55:12Z</time></trkpt><trkpt lat="43.354599412119256" lon="11.924688255756108"><ele>461.8</ele><time>2026-04-18T15:55:14Z</time></trkpt><trkpt lat="43.35458601426972" lon="11.924774500058064"><ele>461.6</ele><time>2026-04-18T15:55:15Z</time></trkpt><trkpt lat="43.354600210492386" lon="11.924950667880497"><ele>461.40000000000003</ele><time>2026-04-18T15:55:17Z</time></trkpt><trkpt lat="43.35462706029365" lon="11.92503662904285"><ele>461.20000000000005</ele><time>2026-04-18T15:55:18Z</time></trkpt><trkpt lat="43.35466634280225" lon="11.925117743170638"><ele>461.0</ele><time>2026-04-18T15:55:19Z</time></trkpt><trkpt lat="43.35475136734292" lon="11.925251621309151"><ele>464.16666666666663</ele><time>2026-04-18T15:55:21Z</time></trkpt><trkpt lat="43.35479763187096" lon="11.92531246616942"><ele>467.3333333333333</ele><time>2026-04-18T15:55:22Z</time></trkpt><trkpt lat="43.354873235359584" lon="11.925412139992961"><ele>470.5</ele><time>2026-04-18T15:55:24Z</time></trkpt><trkpt lat="43.354927837024846" lon="11.925485868131736"><ele>473.66666666666663</ele><time>2026-04-18T15:55:26Z</time></trkpt><trkpt lat="43.35497479367466" lon="11.925549957604009"><ele>476.8333333333333</ele><time>2026-04-18T15:55:28Z</time></trkpt><trkpt lat="43.3550725880314" lon="11.925673279904192"><ele>480.0</ele><time>2026-04-18T15:55:30Z</time></trkpt><trkpt lat="43.35514434596312" lon="11.925741505746672"><ele>480.0</ele><time>2026-04-18T15:55:31Z</time></trkpt><trkpt lat="43.35521498004519" lon="11.925778175783094"><ele>480.0</ele><time>2026-04-18T15:55:32Z</time></trkpt><trkpt lat="43.35527407381932" lon="11.925818113436222"><ele>480.0</ele><time>2026-04-18T15:55:33Z</time></trkpt><trkpt lat="43.35538807214293" lon="11.92588510534988"><ele>480.0</ele><time>2026-04-18T15:55:35Z</time></trkpt><trkpt lat="43.35548958314875" lon="11.925949908136412"><ele>480.0</ele><time>2026-04-18T15:55:37Z</time></trkpt><trkpt lat="43.35556139309848" lon="11.926064718533878"><ele>481.0</ele><time>2026-04-18T15:55:39Z</time></trkpt><trkpt lat="43.355622123170896" lon="11.926175206872449"><ele>482.0</ele><time>2026-04-18T15:55:41Z</time></trkpt><trkpt lat="43.35566645936497" lon="11.926257267940079"><ele>483.0</ele><time>2026-04-18T15:55:43Z</time></trkpt><trkpt lat="43.35562689152569" lon="11.92618643772633"><ele>484.0</ele><time>2026-04-18T15:55:51Z</time></trkpt><trkpt lat="43.3556527710885" lon="11.92630725541133"><ele>485.0</ele><time>2026-04-18T15:55:54Z</time></trkpt><trkpt lat="43.35569098797413" lon="11.926395776517873"><ele>486.0</ele><time>2026-04-18T15:55:56Z</time></trkpt><trkpt lat="43.355733280304435" lon="11.926519888024037"><ele>486.0</ele><time>2026-04-18T15:55:58Z</time></trkpt><trkpt lat="43.35579029964183" lon="11.926652216312847"><ele>486.0</ele><time>2026-04-18T15:56:00Z</time></trkpt><trkpt lat="43.355891782527635" lon="11.92661392982217"><ele>486.0</ele><time>2026-04-18T15:56:01Z</time></trkpt><trkpt lat="43.35598146795122" lon="11.92673124157917"><ele>486.0</ele><time>2026-04-18T15:56:03.001Z</time></trkpt><trkpt lat="43.35606663590566" lon="11.926835249104707"><ele>486.20000000000005</ele><time>2026-04-18T15:56:05.001Z</time></trkpt><trkpt lat="43.35615406692525" lon="11.926942932252008"><ele>486.40000000000003</ele><time>2026-04-18T15:56:07.001Z</time></trkpt><trkpt lat="43.35623840007385" lon="11.927045888024347"><ele>486.6</ele><time>2026-04-18T15:56:09.001Z</time></trkpt><trkpt lat="43.35633026237524" lon="11.927140207391158"><ele>486.8</ele><time>2026-04-18T15:56:11.001Z</time></trkpt><trkpt lat="43.35641345127922" lon="11.927201984006818"><ele>487.0</ele><time>2026-04-18T15:56:13.001Z</time></trkpt><trkpt lat="43.35656033309134" lon="11.927249039678701"><ele>487.0</ele><time>2026-04-18T15:56:15.001Z</time></trkpt><trkpt lat="43.356622376928215" lon="11.927312467640627"><ele>487.00000000000006</ele><time>2026-04-18T15:56:16.001Z</time></trkpt><trkpt lat="43.356704323441924" lon="11.927388906141418"><ele>487.00000000000006</ele><time>2026-04-18T15:56:18.001Z</time></trkpt><trkpt lat="43.3567897225575" lon="11.927446856131798"><ele>487.0</ele><time>2026-04-18T15:56:20.001Z</time></trkpt><trkpt lat="43.356879489367856" lon="11.927492970220335"><ele>487.0</ele><time>2026-04-18T15:56:22.001Z</time></trkpt><trkpt lat="43.356966439306845" lon="11.927536691175654"><ele>481.33333333333337</ele><time>2026-04-18T15:56:24.001Z</time></trkpt><trkpt lat="43.35701405535654" lon="11.92761001901534"><ele>475.66666666666663</ele><time>2026-04-18T15:56:28Z</time></trkpt><trkpt lat="43.356915103164056" lon="11.928050542703472"><ele>470.0</ele><time>2026-04-18T15:56:29Z</time></trkpt><trkpt lat="43.35695223172543" lon="11.92812776611302"><ele>470.0</ele><time>2026-04-18T15:56:30Z</time></trkpt><trkpt lat="43.35712993615585" lon="11.927700924730146"><ele>470.0</ele><time>2026-04-18T15:56:31Z</time></trkpt><trkpt lat="43.35716106390819" lon="11.928423658001396"><ele>469.3333333333333</ele><time>2026-04-18T15:56:36Z</time></trkpt><trkpt lat="43.35717418618923" lon="11.928551506577415"><ele>468.66666666666663</ele><time>2026-04-18T15:56:38Z</time></trkpt><trkpt lat="43.357164166307896" lon="11.928650906112217"><ele>468.0</ele><time>2026-04-18T15:56:40Z</time></trkpt><trkpt lat="43.35708811242301" lon="11.92874305943131"><ele>467.33333333333337</ele><time>2026-04-18T15:56:42Z</time></trkpt><trkpt lat="43.35703221967371" lon="11.928783550414616"><ele>466.6666666666667</ele><time>2026-04-18T15:56:43Z</time></trkpt><trkpt lat="43.356969756359746" lon="11.92889543594705"><ele>466.0</ele><time>2026-04-18T15:56:45Z</time></trkpt><trkpt lat="43.35695053503134" lon="11.92901147685785"><ele>466.0</ele><time>2026-04-18T15:56:47Z</time></trkpt><trkpt lat="43.356961175864996" lon="11.929148845629205"><ele>466.0</ele><time>2026-04-18T15:56:49Z</time></trkpt><trkpt lat="43.35698018913945" lon="11.9292822687008"><ele>466.0</ele><time>2026-04-18T15:56:51Z</time></trkpt><trkpt lat="43.35701029194421" lon="11.929445694760867"><ele>466.0</ele><time>2026-04-18T15:56:53Z</time></trkpt><trkpt lat="43.357020784511704" lon="11.929533813016464"><ele>466.0</ele><time>2026-04-18T15:56:54Z</time></trkpt><trkpt lat="43.35704608510633" lon="11.929654662017944"><ele>466.0</ele><time>2026-04-18T15:56:56Z</time></trkpt><trkpt lat="43.357026086064664" lon="11.929755669005557"><ele>466.0</ele><time>2026-04-18T15:56:59Z</time></trkpt><trkpt lat="43.3570565311103" lon="11.92966954368035"><ele>466.0</ele><time>2026-04-18T15:57:03Z</time></trkpt><trkpt lat="43.35708959305868" lon="11.929564184693486"><ele>466.0</ele><time>2026-04-18T15:57:06Z</time></trkpt><trkpt lat="43.35711234697461" lon="11.929480817570377"><ele>466.0</ele><time>2026-04-18T15:57:08Z</time></trkpt><trkpt lat="43.357137832934015" lon="11.929381567503542"><ele>466.0</ele><time>2026-04-18T15:57:10Z</time></trkpt><trkpt lat="43.357155053491866" lon="11.929278821293538"><ele>466.0</ele><time>2026-04-18T15:57:13Z</time></trkpt><trkpt lat="43.357184376431235" lon="11.929170562840405"><ele>466.00000000000006</ele><time>2026-04-18T15:57:16Z</time></trkpt><trkpt lat="43.35719516998142" lon="11.92908371135723"><ele>466.0</ele><time>2026-04-18T15:57:18Z</time></trkpt><trkpt lat="43.357242734394056" lon="11.928965624547631"><ele>466.0</ele><time>2026-04-18T15:57:21Z</time></trkpt><trkpt lat="43.35729917700027" lon="11.928898617491955"><ele>466.0</ele><time>2026-04-18T15:57:23Z</time></trkpt><trkpt lat="43.35735009441906" lon="11.928833549041473"><ele>466.00000000000006</ele><time>2026-04-18T15:57:25Z</time></trkpt><trkpt lat="43.35743180437817" lon="11.928780466507664"><ele>466.0</ele><time>2026-04-18T15:57:27Z</time></trkpt><trkpt lat="43.35748668906612" lon="11.928718439469812"><ele>468.8571428571429</ele><time>2026-04-18T15:57:29Z</time></trkpt><trkpt lat="43.3575606589931" lon="11.928689082385986"><ele>471.71428571428567</ele><time>2026-04-18T15:57:32Z</time></trkpt><trkpt lat="43.357622275150945" lon="11.928747875862078"><ele>474.57142857142856</ele><time>2026-04-18T15:57:34Z</time></trkpt><trkpt lat="43.35765467138741" lon="11.928828135933495"><ele>477.42857142857144</ele><time>2026-04-18T15:57:37Z</time></trkpt><trkpt lat="43.357608431259" lon="11.928897542511729"><ele>480.28571428571433</ele><time>2026-04-18T15:57:40Z</time></trkpt><trkpt lat="43.35754414958004" lon="11.9289559246233"><ele>483.1428571428571</ele><time>2026-04-18T15:57:42Z</time></trkpt><trkpt lat="43.35749633929631" lon="11.929033045405768"><ele>486.0</ele><time>2026-04-18T15:57:44Z</time></trkpt><trkpt lat="43.35743999749735" lon="11.929079288775561"><ele>486.0</ele><time>2026-04-18T15:57:46Z</time></trkpt><trkpt lat="43.3574280924042" lon="11.92918186118878"><ele>486.0</ele><time>2026-04-18T15:57:49Z</time></trkpt><trkpt lat="43.35744806301193" lon="11.929284126861024"><ele>486.0</ele><time>2026-04-18T15:57:53Z</time></trkpt><trkpt lat="43.357494041389025" lon="11.929363993583001"><ele>486.0</ele><time>2026-04-18T15:57:56Z</time></trkpt><trkpt lat="43.35757706761435" lon="11.929383987064636"><ele>486.0</ele><time>2026-04-18T15:58:00Z</time></trkpt><trkpt lat="43.35755120832711" lon="11.929484259432078"><ele>486.0</ele><time>2026-04-18T15:58:14.001Z</time></trkpt><trkpt lat="43.35749228193941" lon="11.929550135551265"><ele>487.0</ele><time>2026-04-18T15:58:17.001Z</time></trkpt><trkpt lat="43.35742027613346" lon="11.929606714689857"><ele>488.0</ele><time>2026-04-18T15:58:20.001Z</time></trkpt><trkpt lat="43.35746537109413" lon="11.92968235923018"><ele>489.0</ele><time>2026-04-18T15:58:29.001Z</time></trkpt><trkpt lat="43.35754084525863" lon="11.929668667060911"><ele>490.0</ele><time>2026-04-18T15:58:32.001Z</time></trkpt><trkpt lat="43.357613067656956" lon="11.929682227697956"><ele>491.0</ele><time>2026-04-18T15:58:35Z</time></trkpt><trkpt lat="43.357680192384116" lon="11.92965057089971"><ele>492.0</ele><time>2026-04-18T15:58:38Z</time></trkpt><trkpt lat="43.357752240272625" lon="11.929612836840365"><ele>492.0</ele><time>2026-04-18T15:58:41Z</time></trkpt><trkpt lat="43.35782727450916" lon="11.929593716421202"><ele>492.0</ele><time>2026-04-18T15:58:44Z</time></trkpt><trkpt lat="43.3579049441129" lon="11.929593831526013"><ele>492.0</ele><time>2026-04-18T15:58:47Z</time></trkpt><trkpt lat="43.357979786927324" lon="11.929552037938736"><ele>492.0</ele><time>2026-04-18T15:58:50Z</time></trkpt><trkpt lat="43.357977520674964" lon="11.929456239277433"><ele>492.0</ele><time>2026-04-18T15:58:53Z</time></trkpt><trkpt lat="43.358056141202916" lon="11.929439365455266"><ele>492.0</ele><time>2026-04-18T15:58:56Z</time></trkpt><trkpt lat="43.35807089137853" lon="11.929316215232753"><ele>492.0</ele><time>2026-04-18T15:59:00Z</time></trkpt><trkpt lat="43.358088194084054" lon="11.929205287737512"><ele>492.0</ele><time>2026-04-18T15:59:03Z</time></trkpt><trkpt lat="43.3580567186406" lon="11.929289856437517"><ele>492.0</ele><time>2026-04-18T15:59:13Z</time></trkpt><trkpt lat="43.35801439822033" lon="11.929395736993975"><ele>492.0</ele><time>2026-04-18T15:59:16Z</time></trkpt><trkpt lat="43.35799116158312" lon="11.92949420720556"><ele>492.0</ele><time>2026-04-18T15:59:19Z</time></trkpt><trkpt lat="43.357910291052306" lon="11.929559612904859"><ele>492.0</ele><time>2026-04-18T15:59:23Z</time></trkpt><trkpt lat="43.357838201670596" lon="11.929546753319006"><ele>492.0</ele><time>2026-04-18T15:59:26Z</time></trkpt><trkpt lat="43.35776969433449" lon="11.929582335090881"><ele>492.0</ele><time>2026-04-18T15:59:30Z</time></trkpt><trkpt lat="43.35767424088169" lon="11.929619301240303"><ele>492.0</ele><time>2026-04-18T15:59:33Z</time></trkpt><trkpt lat="43.35760811040099" lon="11.929638962157059"><ele>492.0</ele><time>2026-04-18T15:59:35Z</time></trkpt><trkpt lat="43.35751650969598" lon="11.92965290269907"><ele>492.0</ele><time>2026-04-18T15:59:39Z</time></trkpt><trkpt lat="43.357438573886554" lon="11.929660550801039"><ele>492.0</ele><time>2026-04-18T15:59:43Z</time></trkpt><trkpt lat="43.357481852745735" lon="11.929561983071109"><ele>492.00000000000006</ele><time>2026-04-18T15:59:47Z</time></trkpt><trkpt lat="43.35755413101248" lon="11.929505231314161"><ele>492.0</ele><time>2026-04-18T15:59:50Z</time></trkpt><trkpt lat="43.35760584910494" lon="11.929426312756116"><ele>492.00000000000006</ele><time>2026-04-18T15:59:54Z</time></trkpt><trkpt lat="43.35754055358314" lon="11.929406401785979"><ele>492.00000000000006</ele><time>2026-04-18T16:00:00Z</time></trkpt><trkpt lat="43.357483097665295" lon="11.929367596462328"><ele>492.0</ele><time>2026-04-18T16:00:03Z</time></trkpt><trkpt lat="43.35745556272566" lon="11.929281415343514"><ele>492.00000000000006</ele><time>2026-04-18T16:00:05Z</time></trkpt><trkpt lat="43.357433688040224" lon="11.929169213278282"><ele>492.00000000000006</ele><time>2026-04-18T16:00:08Z</time></trkpt><trkpt lat="43.35746746247558" lon="11.92907262891395"><ele>491.0</ele><time>2026-04-18T16:00:11Z</time></trkpt><trkpt lat="43.35753725038321" lon="11.929019784976106"><ele>490.0</ele><time>2026-04-18T16:00:20.001Z</time></trkpt><trkpt lat="43.357603401796254" lon="11.92892296767168"><ele>489.0</ele><time>2026-04-18T16:00:22.001Z</time></trkpt><trkpt lat="43.35764338199249" lon="11.928847291356885"><ele>488.0</ele><time>2026-04-18T16:00:24.001Z</time></trkpt><trkpt lat="43.357642941435266" lon="11.928733972936447"><ele>487.0</ele><time>2026-04-18T16:00:27.001Z</time></trkpt><trkpt lat="43.35755539408391" lon="11.928677039329578"><ele>486.0</ele><time>2026-04-18T16:00:29.001Z</time></trkpt><trkpt lat="43.357481795844514" lon="11.928689010305545"><ele>486.0</ele><time>2026-04-18T16:00:31.001Z</time></trkpt><trkpt lat="43.35740767443555" lon="11.928740272233203"><ele>486.0</ele><time>2026-04-18T16:00:33.001Z</time></trkpt><trkpt lat="43.357343163559065" lon="11.928811253927071"><ele>486.0</ele><time>2026-04-18T16:00:35.001Z</time></trkpt><trkpt lat="43.35727799030753" lon="11.928856585174195"><ele>486.0</ele><time>2026-04-18T16:00:37.001Z</time></trkpt><trkpt lat="43.35721950627875" lon="11.92894002407879"><ele>486.0</ele><time>2026-04-18T16:00:39.001Z</time></trkpt><trkpt lat="43.3571709744948" lon="11.929047548321828"><ele>486.0</ele><time>2026-04-18T16:00:41.001Z</time></trkpt><trkpt lat="43.35714819506553" lon="11.929159445174891"><ele>482.6</ele><time>2026-04-18T16:00:43Z</time></trkpt><trkpt lat="43.35711482957343" lon="11.929295484298065"><ele>479.20000000000005</ele><time>2026-04-18T16:00:45Z</time></trkpt><trkpt lat="43.357087387318046" lon="11.929428650943903"><ele>475.79999999999995</ele><time>2026-04-18T16:00:47Z</time></trkpt><trkpt lat="43.35706756423045" lon="11.929557125982369"><ele>472.4</ele><time>2026-04-18T16:00:49Z</time></trkpt><trkpt lat="43.35705193791671" lon="11.92965467509501"><ele>469.0</ele><time>2026-04-18T16:00:51Z</time></trkpt><trkpt lat="43.3570382670727" lon="11.929773942842969"><ele>469.0</ele><time>2026-04-18T16:00:54Z</time></trkpt><trkpt lat="43.357000867374644" lon="11.929888397403092"><ele>469.0</ele><time>2026-04-18T16:00:56Z</time></trkpt><trkpt lat="43.35695785536032" lon="11.930027590233793"><ele>469.0</ele><time>2026-04-18T16:00:58Z</time></trkpt><trkpt lat="43.35692145549279" lon="11.930100224836536"><ele>469.0</ele><time>2026-04-18T16:00:59Z</time></trkpt><trkpt lat="43.35688590592871" lon="11.930236053945835"><ele>469.0</ele><time>2026-04-18T16:01:01Z</time></trkpt><trkpt lat="43.35685785440461" lon="11.930406551798667"><ele>470.1666666666667</ele><time>2026-04-18T16:01:03Z</time></trkpt><trkpt lat="43.356825851975195" lon="11.930514630815722"><ele>471.33333333333337</ele><time>2026-04-18T16:01:04Z</time></trkpt><trkpt lat="43.35680729585798" lon="11.930620212386351"><ele>472.5</ele><time>2026-04-18T16:01:05Z</time></trkpt><trkpt lat="43.35679384638108" lon="11.93075664376755"><ele>473.66666666666663</ele><time>2026-04-18T16:01:07Z</time></trkpt><trkpt lat="43.35678932652137" lon="11.930863254211456"><ele>474.8333333333333</ele><time>2026-04-18T16:01:09Z</time></trkpt><trkpt lat="43.35678096056687" lon="11.930962791172227"><ele>476.0</ele><time>2026-04-18T16:01:11Z</time></trkpt><trkpt lat="43.3567741440637" lon="11.931062661982354"><ele>478.20000000000005</ele><time>2026-04-18T16:01:14Z</time></trkpt><trkpt lat="43.35684651275817" lon="11.931118129546494"><ele>480.40000000000003</ele><time>2026-04-18T16:01:18.999Z</time></trkpt><trkpt lat="43.35693889080605" lon="11.931089970959588"><ele>482.6</ele><time>2026-04-18T16:01:20.999Z</time></trkpt><trkpt lat="43.35705906593109" lon="11.931115526102417"><ele>484.8</ele><time>2026-04-18T16:01:22.999Z</time></trkpt><trkpt lat="43.3571201031645" lon="11.931152070368217"><ele>487.0</ele><time>2026-04-18T16:01:23.999Z</time></trkpt><trkpt lat="43.357187306746944" lon="11.931226679291825"><ele>489.00000000000006</ele><time>2026-04-18T16:01:24.999Z</time></trkpt><trkpt lat="43.35722851600212" lon="11.931300036951843"><ele>491.0</ele><time>2026-04-18T16:01:25.999Z</time></trkpt><trkpt lat="43.35725364650902" lon="11.931399976704817"><ele>493.0</ele><time>2026-04-18T16:01:26.999Z</time></trkpt><trkpt lat="43.35726136302136" lon="11.931529490994716"><ele>495.0</ele><time>2026-04-18T16:01:27.999Z</time></trkpt><trkpt lat="43.35725472962288" lon="11.931646804848405"><ele>497.00000000000006</ele><time>2026-04-18T16:01:28.999Z</time></trkpt><trkpt lat="43.35720482647551" lon="11.931743807032822"><ele>499.0</ele><time>2026-04-18T16:01:29.999Z</time></trkpt><trkpt lat="43.357157475028096" lon="11.931866147986852"><ele>499.0</ele><time>2026-04-18T16:01:31.999Z</time></trkpt><trkpt lat="43.35715065704483" lon="11.931984661866897"><ele>499.0</ele><time>2026-04-18T16:01:34.999Z</time></trkpt><trkpt lat="43.357204367427435" lon="11.932061168092298"><ele>499.0</ele><time>2026-04-18T16:01:37.999Z</time></trkpt><trkpt lat="43.357295486283824" lon="11.932109666625458"><ele>499.0</ele><time>2026-04-18T16:01:40.999Z</time></trkpt><trkpt lat="43.35739713069252" lon="11.932137600822594"><ele>499.0</ele><time>2026-04-18T16:01:42.999Z</time></trkpt><trkpt lat="43.35750160125086" lon="11.932207919146194"><ele>499.83333333333337</ele><time>2026-04-18T16:01:44.999Z</time></trkpt><trkpt lat="43.35759965999937" lon="11.932288995193232"><ele>500.6666666666667</ele><time>2026-04-18T16:01:46.999Z</time></trkpt><trkpt lat="43.35770746364478" lon="11.93236563063039"><ele>501.5</ele><time>2026-04-18T16:01:48.999Z</time></trkpt><trkpt lat="43.35776707276797" lon="11.932406138641687"><ele>502.33333333333337</ele><time>2026-04-18T16:01:49.999Z</time></trkpt><trkpt lat="43.357827346488506" lon="11.932452108021101"><ele>503.1666666666667</ele><time>2026-04-18T16:01:50.999Z</time></trkpt><trkpt lat="43.357895808106484" lon="11.932494231237285"><ele>504.0</ele><time>2026-04-18T16:01:51.999Z</time></trkpt><trkpt lat="43.35796939991497" lon="11.932533022067709"><ele>507.8571428571429</ele><time>2026-04-18T16:01:52.999Z</time></trkpt><trkpt lat="43.35804408016439" lon="11.932560275629971"><ele>511.7142857142857</ele><time>2026-04-18T16:01:53.999Z</time></trkpt><trkpt lat="43.35811405611474" lon="11.932581620322114"><ele>515.5714285714286</ele><time>2026-04-18T16:01:54.999Z</time></trkpt><trkpt lat="43.35817834580606" lon="11.932597551079331"><ele>519.4285714285714</ele><time>2026-04-18T16:01:55.999Z</time></trkpt><trkpt lat="43.35824561653281" lon="11.932604793933207"><ele>523.2857142857143</ele><time>2026-04-18T16:01:56.999Z</time></trkpt><trkpt lat="43.35831159532461" lon="11.93261050471163"><ele>527.1428571428571</ele><time>2026-04-18T16:01:57.999Z</time></trkpt><trkpt lat="43.35837937465467" lon="11.932602170519651"><ele>531.0</ele><time>2026-04-18T16:01:58.999Z</time></trkpt><trkpt lat="43.358443859312075" lon="11.932586850323464"><ele>531.0</ele><time>2026-04-18T16:01:59.999Z</time></trkpt><trkpt lat="43.35855472682629" lon="11.932581055548912"><ele>531.0</ele><time>2026-04-18T16:02:01.999Z</time></trkpt><trkpt lat="43.358667203836156" lon="11.932538253217896"><ele>531.0</ele><time>2026-04-18T16:02:03.999Z</time></trkpt><trkpt lat="43.35876986581456" lon="11.932481534399072"><ele>531.0</ele><time>2026-04-18T16:02:05.999Z</time></trkpt><trkpt lat="43.358873539548526" lon="11.932392165629187"><ele>535.8</ele><time>2026-04-18T16:02:07.999Z</time></trkpt><trkpt lat="43.358957884102416" lon="11.932297189351187"><ele>540.6</ele><time>2026-04-18T16:02:09.999Z</time></trkpt><trkpt lat="43.359054893382435" lon="11.932190513008047"><ele>545.4</ele><time>2026-04-18T16:02:11.999Z</time></trkpt><trkpt lat="43.35910645374817" lon="11.932114219915931"><ele>550.2</ele><time>2026-04-18T16:02:12.999Z</time></trkpt><trkpt lat="43.359147702511805" lon="11.932027552988218"><ele>555.0</ele><time>2026-04-18T16:02:13.999Z</time></trkpt><trkpt lat="43.359202967971775" lon="11.93194641855184"><ele>555.0</ele><time>2026-04-18T16:02:14.999Z</time></trkpt><trkpt lat="43.359268780260976" lon="11.931871471301626"><ele>555.0</ele><time>2026-04-18T16:02:15.999Z</time></trkpt><trkpt lat="43.35932713542744" lon="11.931794604885907"><ele>555.0</ele><time>2026-04-18T16:02:16.999Z</time></trkpt><trkpt lat="43.359374217250895" lon="11.931685644122192"><ele>555.0</ele><time>2026-04-18T16:02:17.999Z</time></trkpt><trkpt lat="43.35941935168166" lon="11.93159807354315"><ele>555.0</ele><time>2026-04-18T16:02:18.999Z</time></trkpt><trkpt lat="43.35946884494934" lon="11.931512094593534"><ele>555.0</ele><time>2026-04-18T16:02:19.999Z</time></trkpt><trkpt lat="43.35950720653929" lon="11.931405174556053"><ele>557.0</ele><time>2026-04-18T16:02:21Z</time></trkpt><trkpt lat="43.35954366425734" lon="11.931332928197618"><ele>559.0</ele><time>2026-04-18T16:02:22Z</time></trkpt><trkpt lat="43.35959612882149" lon="11.931231060685258"><ele>561.0</ele><time>2026-04-18T16:02:23Z</time></trkpt><trkpt lat="43.359641565609415" lon="11.931110244217614"><ele>563.0</ele><time>2026-04-18T16:02:24Z</time></trkpt><trkpt lat="43.35967077018832" lon="11.931004551766534"><ele>565.0</ele><time>2026-04-18T16:02:25Z</time></trkpt><trkpt lat="43.35969470887046" lon="11.930906946535853"><ele>567.0</ele><time>2026-04-18T16:02:26Z</time></trkpt><trkpt lat="43.359718653407405" lon="11.930813474597194"><ele>567.0</ele><time>2026-04-18T16:02:27Z</time></trkpt><trkpt lat="43.3597266056472" lon="11.930703857809407"><ele>567.0</ele><time>2026-04-18T16:02:28Z</time></trkpt><trkpt lat="43.359731656198704" lon="11.930580005209476"><ele>567.0</ele><time>2026-04-18T16:02:29Z</time></trkpt><trkpt lat="43.359728013246276" lon="11.930465504878422"><ele>567.0</ele><time>2026-04-18T16:02:30Z</time></trkpt><trkpt lat="43.35972824532968" lon="11.930345360805502"><ele>567.0</ele><time>2026-04-18T16:02:31Z</time></trkpt><trkpt lat="43.35971747073148" lon="11.930230682511818"><ele>567.0</ele><time>2026-04-18T16:02:32Z</time></trkpt><trkpt lat="43.359706927016965" lon="11.930133521367225"><ele>566.0</ele><time>2026-04-18T16:02:33Z</time></trkpt><trkpt lat="43.35970579629034" lon="11.930045018001003"><ele>565.0</ele><time>2026-04-18T16:02:34Z</time></trkpt><trkpt lat="43.35971537489159" lon="11.9298970053422"><ele>564.0</ele><time>2026-04-18T16:02:36Z</time></trkpt><trkpt lat="43.35971959482549" lon="11.929767639786032"><ele>563.0</ele><time>2026-04-18T16:02:38Z</time></trkpt><trkpt lat="43.3597236710361" lon="11.929634700729498"><ele>562.0</ele><time>2026-04-18T16:02:40Z</time></trkpt><trkpt lat="43.35972943089492" lon="11.929546561046058"><ele>561.0</ele><time>2026-04-18T16:02:41Z</time></trkpt><trkpt lat="43.3597316227557" lon="11.929454890467037"><ele>561.0</ele><time>2026-04-18T16:02:42Z</time></trkpt><trkpt lat="43.35973411805617" lon="11.929358958743316"><ele>561.0</ele><time>2026-04-18T16:02:43Z</time></trkpt><trkpt lat="43.359729500749445" lon="11.929260023506497"><ele>561.0</ele><time>2026-04-18T16:02:44Z</time></trkpt><trkpt lat="43.35971233421054" lon="11.929155830444428"><ele>561.0</ele><time>2026-04-18T16:02:45Z</time></trkpt><trkpt lat="43.35968407930903" lon="11.929047528478879"><ele>561.0</ele><time>2026-04-18T16:02:46Z</time></trkpt><trkpt lat="43.35965979437792" lon="11.928935054634081"><ele>561.0</ele><time>2026-04-18T16:02:47Z</time></trkpt><trkpt lat="43.35964930041239" lon="11.928833144675483"><ele>556.8333333333334</ele><time>2026-04-18T16:02:48Z</time></trkpt><trkpt lat="43.35964853461202" lon="11.928728809441635"><ele>552.6666666666666</ele><time>2026-04-18T16:02:49Z</time></trkpt><trkpt lat="43.35964384932206" lon="11.928620860398931"><ele>548.5</ele><time>2026-04-18T16:02:50Z</time></trkpt><trkpt lat="43.35962169973652" lon="11.928523043686445"><ele>544.3333333333333</ele><time>2026-04-18T16:02:51Z</time></trkpt><trkpt lat="43.35959082069977" lon="11.928429616318974"><ele>540.1666666666666</ele><time>2026-04-18T16:02:52Z</time></trkpt><trkpt lat="43.35956790402489" lon="11.92832874745938"><ele>536.0</ele><time>2026-04-18T16:02:52.999Z</time></trkpt><trkpt lat="43.359534935386115" lon="11.928221523214448"><ele>536.0</ele><time>2026-04-18T16:02:53.999Z</time></trkpt><trkpt lat="43.359512683404034" lon="11.928118569353636"><ele>536.0</ele><time>2026-04-18T16:02:54.999Z</time></trkpt><trkpt lat="43.35949670021288" lon="11.928003670253734"><ele>536.0</ele><time>2026-04-18T16:02:55.999Z</time></trkpt><trkpt lat="43.3594878778786" lon="11.927881065851825"><ele>536.0</ele><time>2026-04-18T16:02:56.999Z</time></trkpt><trkpt lat="43.35947438688785" lon="11.927775963837068"><ele>536.0</ele><time>2026-04-18T16:02:57.999Z</time></trkpt><trkpt lat="43.35945559210402" lon="11.927675900158992"><ele>536.0</ele><time>2026-04-18T16:02:58.999Z</time></trkpt><trkpt lat="43.359433594229785" lon="11.927573107774997"><ele>536.0</ele><time>2026-04-18T16:02:59.999Z</time></trkpt><trkpt lat="43.359439224920095" lon="11.927476774540589"><ele>536.0</ele><time>2026-04-18T16:03:00.999Z</time></trkpt><trkpt lat="43.35942934399377" lon="11.927356647420527"><ele>536.0</ele><time>2026-04-18T16:03:02.999Z</time></trkpt><trkpt lat="43.35955161406734" lon="11.92741528103924"><ele>536.0</ele><time>2026-04-18T16:03:05.999Z</time></trkpt><trkpt lat="43.35961262011393" lon="11.92750606504331"><ele>536.0</ele><time>2026-04-18T16:03:07.999Z</time></trkpt><trkpt lat="43.359689423722486" lon="11.927608540925293"><ele>541.2</ele><time>2026-04-18T16:03:09.999Z</time></trkpt><trkpt lat="43.35977495083261" lon="11.9277117775174"><ele>546.4000000000001</ele><time>2026-04-18T16:03:11.999Z</time></trkpt><trkpt lat="43.359853163532115" lon="11.927807362147297"><ele>551.6</ele><time>2026-04-18T16:03:13.999Z</time></trkpt><trkpt lat="43.3599440222524" lon="11.927917745820968"><ele>556.8000000000001</ele><time>2026-04-18T16:03:15.999Z</time></trkpt><trkpt lat="43.35999780125935" lon="11.927978278342493"><ele>562.0</ele><time>2026-04-18T16:03:16.999Z</time></trkpt><trkpt lat="43.36006394011627" lon="11.928085808769946"><ele>562.0</ele><time>2026-04-18T16:03:18.999Z</time></trkpt><trkpt lat="43.36013742537079" lon="11.928198686891678"><ele>562.0</ele><time>2026-04-18T16:03:20.999Z</time></trkpt><trkpt lat="43.3601985915566" lon="11.928268517211123"><ele>562.0</ele><time>2026-04-18T16:03:22.999Z</time></trkpt><trkpt lat="43.360255784521804" lon="11.928312373211"><ele>562.0</ele><time>2026-04-18T16:03:24.999Z</time></trkpt><trkpt lat="43.36032971160998" lon="11.928381904303645"><ele>562.0</ele><time>2026-04-18T16:03:27.999Z</time></trkpt><trkpt lat="43.360292542550276" lon="11.928274778078881"><ele>562.0</ele><time>2026-04-18T16:03:30.999Z</time></trkpt><trkpt lat="43.36028653300208" lon="11.928697869207843"><ele>562.7142857142858</ele><time>2026-04-18T16:03:57.999Z</time></trkpt><trkpt lat="43.360209387699115" lon="11.92868205583954"><ele>563.4285714285714</ele><time>2026-04-18T16:04:01.999Z</time></trkpt><trkpt lat="43.36014894264138" lon="11.928657567126072"><ele>564.1428571428571</ele><time>2026-04-18T16:04:03.999Z</time></trkpt><trkpt lat="43.360096060206544" lon="11.92860894565001"><ele>564.8571428571429</ele><time>2026-04-18T16:04:07.999Z</time></trkpt><trkpt lat="43.36015869438242" lon="11.928670385137753"><ele>565.5714285714286</ele><time>2026-04-18T16:04:16.999Z</time></trkpt><trkpt lat="43.36023269264515" lon="11.92871261119227"><ele>566.2857142857143</ele><time>2026-04-18T16:04:19.999Z</time></trkpt><trkpt lat="43.36029693022483" lon="11.92871224354631"><ele>567.0</ele><time>2026-04-18T16:04:23.999Z</time></trkpt><trkpt lat="43.36038576458006" lon="11.928696617623725"><ele>567.0</ele><time>2026-04-18T16:05:51.999Z</time></trkpt><trkpt lat="43.360456475095035" lon="11.928729947133004"><ele>567.0</ele><time>2026-04-18T16:05:54.999Z</time></trkpt><trkpt lat="43.360521369735785" lon="11.928759381612242"><ele>567.0</ele><time>2026-04-18T16:05:57.999Z</time></trkpt><trkpt lat="43.360590645271245" lon="11.928777070635864"><ele>567.0</ele><time>2026-04-18T16:06:02.999Z</time></trkpt><trkpt lat="43.36066350261166" lon="11.928792539423686"><ele>567.0</ele><time>2026-04-18T16:06:05.999Z</time></trkpt><trkpt lat="43.36073776887542" lon="11.928810288182122"><ele>567.0</ele><time>2026-04-18T16:06:10.999Z</time></trkpt><trkpt lat="43.360807295361994" lon="11.92886506783276"><ele>567.0</ele><time>2026-04-18T16:06:14.999Z</time></trkpt><trkpt lat="43.36088590027196" lon="11.928897695201643"><ele>570.5714285714286</ele><time>2026-04-18T16:06:18.999Z</time></trkpt><trkpt lat="43.36095606726192" lon="11.928937731506016"><ele>574.1428571428571</ele><time>2026-04-18T16:06:22.999Z</time></trkpt><trkpt lat="43.36100843175929" lon="11.929016299435059"><ele>577.7142857142858</ele><time>2026-04-18T16:06:25.999Z</time></trkpt><trkpt lat="43.36099802092772" lon="11.929104464316113"><ele>581.2857142857142</ele><time>2026-04-18T16:06:29.999Z</time></trkpt><trkpt lat="43.360981007788254" lon="11.92919185260925"><ele>584.8571428571429</ele><time>2026-04-18T16:06:34Z</time></trkpt><trkpt lat="43.36096407587399" lon="11.92928218484127"><ele>588.4285714285714</ele><time>2026-04-18T16:06:37Z</time></trkpt><trkpt lat="43.36099308629109" lon="11.929377310765322"><ele>592.0</ele><time>2026-04-18T16:06:40Z</time></trkpt><trkpt lat="43.36105116071716" lon="11.929435816524347"><ele>592.0</ele><time>2026-04-18T16:06:43Z</time></trkpt><trkpt lat="43.361119385328465" lon="11.929496438960884"><ele>592.0</ele><time>2026-04-18T16:06:47Z</time></trkpt><trkpt lat="43.36116461570693" lon="11.929577769850686"><ele>592.0</ele><time>2026-04-18T16:06:49Z</time></trkpt><trkpt lat="43.361220684557004" lon="11.929704554610911"><ele>592.0</ele><time>2026-04-18T16:06:51Z</time></trkpt><trkpt lat="43.36122917253464" lon="11.929811842222179"><ele>592.0</ele><time>2026-04-18T16:06:53Z</time></trkpt><trkpt lat="43.36121276287041" lon="11.929934578103037"><ele>592.0</ele><time>2026-04-18T16:06:55Z</time></trkpt><trkpt lat="43.361227634911614" lon="11.930063601419235"><ele>593.2</ele><time>2026-04-18T16:06:57Z</time></trkpt><trkpt lat="43.361292813900874" lon="11.930190513464263"><ele>594.4000000000001</ele><time>2026-04-18T16:06:59Z</time></trkpt><trkpt lat="43.36134427041348" lon="11.930271620655926"><ele>595.5999999999999</ele><time>2026-04-18T16:07:02Z</time></trkpt><trkpt lat="43.36138039126093" lon="11.930348744637149"><ele>596.8</ele><time>2026-04-18T16:07:04Z</time></trkpt><trkpt lat="43.361453218172635" lon="11.930506240368977"><ele>598.0</ele><time>2026-04-18T16:07:07Z</time></trkpt><trkpt lat="43.361481246102976" lon="11.930634378499517"><ele>600.5</ele><time>2026-04-18T16:07:09Z</time></trkpt><trkpt lat="43.361489167106036" lon="11.930744605475343"><ele>603.0</ele><time>2026-04-18T16:07:11Z</time></trkpt><trkpt lat="43.36153173771748" lon="11.930826593667371"><ele>605.5</ele><time>2026-04-18T16:07:13Z</time></trkpt><trkpt lat="43.36157554680185" lon="11.930901466821865"><ele>608.0</ele><time>2026-04-18T16:07:15Z</time></trkpt><trkpt lat="43.36160608329138" lon="11.930991066155922"><ele>610.5</ele><time>2026-04-18T16:07:17Z</time></trkpt><trkpt lat="43.36159613244695" lon="11.931099980629282"><ele>613.0</ele><time>2026-04-18T16:07:19Z</time></trkpt><trkpt lat="43.36156665315568" lon="11.931208441801195"><ele>614.6</ele><time>2026-04-18T16:07:21Z</time></trkpt><trkpt lat="43.36158350639341" lon="11.931333968128705"><ele>616.1999999999999</ele><time>2026-04-18T16:07:23Z</time></trkpt><trkpt lat="43.36157003493669" lon="11.93144521248346"><ele>617.8</ele><time>2026-04-18T16:07:24.999Z</time></trkpt><trkpt lat="43.361543566550424" lon="11.931595740647891"><ele>619.4</ele><time>2026-04-18T16:07:26.999Z</time></trkpt><trkpt lat="43.36153649383169" lon="11.931685396030877"><ele>621.0</ele><time>2026-04-18T16:07:27.999Z</time></trkpt><trkpt lat="43.36154612744474" lon="11.931826159275957"><ele>622.1666666666666</ele><time>2026-04-18T16:07:29.999Z</time></trkpt><trkpt lat="43.361567051496515" lon="11.931936941806374"><ele>623.3333333333334</ele><time>2026-04-18T16:07:31.999Z</time></trkpt><trkpt lat="43.36159999959143" lon="11.932040050315326"><ele>624.5</ele><time>2026-04-18T16:07:34.999Z</time></trkpt><trkpt lat="43.3616343685642" lon="11.932113892143036"><ele>625.6666666666667</ele><time>2026-04-18T16:07:38.999Z</time></trkpt><trkpt lat="43.36167209044478" lon="11.932201446332405"><ele>626.8333333333334</ele><time>2026-04-18T16:07:40.999Z</time></trkpt><trkpt lat="43.36173776781338" lon="11.932288965704283"><ele>628.0</ele><time>2026-04-18T16:07:42.999Z</time></trkpt><trkpt lat="43.36180123897805" lon="11.932372161592435"><ele>628.0</ele><time>2026-04-18T16:07:44.999Z</time></trkpt><trkpt lat="43.36191608996717" lon="11.93241548767556"><ele>628.0</ele><time>2026-04-18T16:07:45.999Z</time></trkpt><trkpt lat="43.36193818814656" lon="11.932551598002677"><ele>628.0</ele><time>2026-04-18T16:07:47.999Z</time></trkpt><trkpt lat="43.36196479051447" lon="11.932689046038316"><ele>628.0</ele><time>2026-04-18T16:07:49.999Z</time></trkpt><trkpt lat="43.361993809231514" lon="11.932782262815131"><ele>628.0</ele><time>2026-04-18T16:07:53.999Z</time></trkpt><trkpt lat="43.36203966016149" lon="11.932877009915524"><ele>629.1428571428571</ele><time>2026-04-18T16:07:56.999Z</time></trkpt><trkpt lat="43.36206634467554" lon="11.932972872301447"><ele>630.2857142857142</ele><time>2026-04-18T16:07:58.999Z</time></trkpt><trkpt lat="43.362105909471936" lon="11.933057658803316"><ele>631.4285714285713</ele><time>2026-04-18T16:08:00.999Z</time></trkpt><trkpt lat="43.36211231256175" lon="11.933147956030815"><ele>632.5714285714286</ele><time>2026-04-18T16:08:03.999Z</time></trkpt><trkpt lat="43.36211292559232" lon="11.933252379765978"><ele>633.7142857142858</ele><time>2026-04-18T16:08:10.999Z</time></trkpt><trkpt lat="43.36214804255215" lon="11.933326669301735"><ele>634.8571428571428</ele><time>2026-04-18T16:08:14.999Z</time></trkpt><trkpt lat="43.362169995767566" lon="11.933437685510285"><ele>636.0</ele><time>2026-04-18T16:08:16.999Z</time></trkpt><trkpt lat="43.362197725152924" lon="11.933549250671971"><ele>635.2857142857142</ele><time>2026-04-18T16:08:18.999Z</time></trkpt><trkpt lat="43.36220609489571" lon="11.933648755111317"><ele>634.5714285714287</ele><time>2026-04-18T16:08:20.999Z</time></trkpt><trkpt lat="43.36217291535342" lon="11.933730079979515"><ele>633.8571428571429</ele><time>2026-04-18T16:08:22.999Z</time></trkpt><trkpt lat="43.36216424353342" lon="11.933816128879794"><ele>633.1428571428571</ele><time>2026-04-18T16:08:26.999Z</time></trkpt><trkpt lat="43.362159045810124" lon="11.933920914188972"><ele>632.4285714285713</ele><time>2026-04-18T16:08:30.999Z</time></trkpt><trkpt lat="43.36221703625272" lon="11.933982466633852"><ele>631.7142857142858</ele><time>2026-04-18T16:08:32.999Z</time></trkpt><trkpt lat="43.362280879632586" lon="11.934065715311474"><ele>631.0</ele><time>2026-04-18T16:08:35.999Z</time></trkpt><trkpt lat="43.362298763175986" lon="11.934169282940204"><ele>633.0</ele><time>2026-04-18T16:08:39Z</time></trkpt><trkpt lat="43.36231750182123" lon="11.934273856402791"><ele>635.0</ele><time>2026-04-18T16:08:42Z</time></trkpt><trkpt lat="43.36237208601229" lon="11.934373812027852"><ele>637.0</ele><time>2026-04-18T16:08:45Z</time></trkpt><trkpt lat="43.362415158014045" lon="11.934465483109074"><ele>639.0</ele><time>2026-04-18T16:08:48Z</time></trkpt><trkpt lat="43.36244813010036" lon="11.934575486595074"><ele>641.0</ele><time>2026-04-18T16:08:51Z</time></trkpt><trkpt lat="43.36250395191424" lon="11.934666612548158"><ele>643.0</ele><time>2026-04-18T16:08:54Z</time></trkpt><trkpt lat="43.36255859742169" lon="11.934757513312517"><ele>643.0</ele><time>2026-04-18T16:08:57Z</time></trkpt><trkpt lat="43.362601656624086" lon="11.934827451878324"><ele>643.0</ele><time>2026-04-18T16:08:59Z</time></trkpt><trkpt lat="43.36264362002104" lon="11.934912669952766"><ele>643.0</ele><time>2026-04-18T16:09:01Z</time></trkpt><trkpt lat="43.36265816912643" lon="11.934999525724967"><ele>643.0</ele><time>2026-04-18T16:09:03Z</time></trkpt><trkpt lat="43.36271599912538" lon="11.935082594444998"><ele>643.0</ele><time>2026-04-18T16:09:07Z</time></trkpt><trkpt lat="43.362762497543805" lon="11.93517101609462"><ele>643.0</ele><time>2026-04-18T16:09:09Z</time></trkpt><trkpt lat="43.36283377652788" lon="11.935121162794099"><ele>643.0</ele><time>2026-04-18T16:09:11Z</time></trkpt><trkpt lat="43.362889726461994" lon="11.93504244152658"><ele>643.0</ele><time>2026-04-18T16:09:14Z</time></trkpt><trkpt lat="43.36294751899538" lon="11.934944020212548"><ele>643.0</ele><time>2026-04-18T16:09:16Z</time></trkpt><trkpt lat="43.36300226892831" lon="11.934838070885938"><ele>643.0</ele><time>2026-04-18T16:09:19Z</time></trkpt><trkpt lat="43.36307826848056" lon="11.934750112700485"><ele>643.0</ele><time>2026-04-18T16:09:22Z</time></trkpt><trkpt lat="43.363163185004716" lon="11.934721866614884"><ele>643.0</ele><time>2026-04-18T16:09:25Z</time></trkpt><trkpt lat="43.3632347429682" lon="11.93474892767836"><ele>643.0</ele><time>2026-04-18T16:09:27Z</time></trkpt><trkpt lat="43.36331959692011" lon="11.934780063220312"><ele>643.2</ele><time>2026-04-18T16:09:29Z</time></trkpt><trkpt lat="43.363402370699134" lon="11.934868085149835"><ele>643.4</ele><time>2026-04-18T16:09:31Z</time></trkpt><trkpt lat="43.36348320529542" lon="11.93488749086195"><ele>643.6</ele><time>2026-04-18T16:09:32.999Z</time></trkpt><trkpt lat="43.363562971102354" lon="11.934987849678464"><ele>643.8000000000001</ele><time>2026-04-18T16:09:34.999Z</time></trkpt><trkpt lat="43.36361324388482" lon="11.935102083905745"><ele>644.0</ele><time>2026-04-18T16:09:38.999Z</time></trkpt><trkpt lat="43.36368233453605" lon="11.935138058647793"><ele>644.0</ele><time>2026-04-18T16:09:40.999Z</time></trkpt><trkpt lat="43.3637484521094" lon="11.935058532317658"><ele>644.0</ele><time>2026-04-18T16:09:42.999Z</time></trkpt><trkpt lat="43.363806391814535" lon="11.934984018536603"><ele>644.0</ele><time>2026-04-18T16:09:44.999Z</time></trkpt><trkpt lat="43.36386040658094" lon="11.934900029137427"><ele>644.0</ele><time>2026-04-18T16:09:47.999Z</time></trkpt><trkpt lat="43.36392884748393" lon="11.93487028840349"><ele>644.0</ele><time>2026-04-18T16:09:50.999Z</time></trkpt><trkpt lat="43.36398796150512" lon="11.934805736216607"><ele>644.0</ele><time>2026-04-18T16:09:53.999Z</time></trkpt><trkpt lat="43.364055069646255" lon="11.93473580048265"><ele>646.3333333333333</ele><time>2026-04-18T16:09:56.999Z</time></trkpt><trkpt lat="43.3641338602529" lon="11.934716638042337"><ele>648.6666666666666</ele><time>2026-04-18T16:09:59.999Z</time></trkpt><trkpt lat="43.364220677348534" lon="11.934729473068897"><ele>651.0</ele><time>2026-04-18T16:10:03.999Z</time></trkpt><trkpt lat="43.36431096621772" lon="11.93471565593246"><ele>653.3333333333334</ele><time>2026-04-18T16:10:06.999Z</time></trkpt><trkpt lat="43.364389461279785" lon="11.934751724893124"><ele>655.6666666666667</ele><time>2026-04-18T16:10:09.999Z</time></trkpt><trkpt lat="43.3644508796543" lon="11.934813268334809"><ele>658.0</ele><time>2026-04-18T16:10:11.999Z</time></trkpt><trkpt lat="43.36452950450342" lon="11.934846574542167"><ele>658.0</ele><time>2026-04-18T16:10:15.999Z</time></trkpt><trkpt lat="43.36461578188387" lon="11.934882769782934"><ele>658.0</ele><time>2026-04-18T16:10:18.999Z</time></trkpt><trkpt lat="43.364684543362586" lon="11.934967313830649"><ele>658.0</ele><time>2026-04-18T16:10:20.999Z</time></trkpt><trkpt lat="43.36474701437504" lon="11.935031957400316"><ele>658.0</ele><time>2026-04-18T16:10:22.999Z</time></trkpt><trkpt lat="43.3647953566582" lon="11.935089903366102"><ele>658.0</ele><time>2026-04-18T16:10:24.999Z</time></trkpt><trkpt lat="43.36484396829277" lon="11.93515651216614"><ele>658.0</ele><time>2026-04-18T16:10:26.999Z</time></trkpt><trkpt lat="43.36489385425308" lon="11.935272874551863"><ele>661.1666666666667</ele><time>2026-04-18T16:10:29.999Z</time></trkpt><trkpt lat="43.364953454622764" lon="11.935338406737413"><ele>664.3333333333334</ele><time>2026-04-18T16:10:31.999Z</time></trkpt><trkpt lat="43.365015228455356" lon="11.935424774955852"><ele>667.5</ele><time>2026-04-18T16:10:33.999Z</time></trkpt><trkpt lat="43.365085028526664" lon="11.935523005383159"><ele>670.6666666666666</ele><time>2026-04-18T16:10:35.999Z</time></trkpt><trkpt lat="43.36512332963813" lon="11.935604757130998"><ele>673.8333333333333</ele><time>2026-04-18T16:10:38.999Z</time></trkpt><trkpt lat="43.36515759763339" lon="11.935706517753687"><ele>677.0</ele><time>2026-04-18T16:10:41.999Z</time></trkpt><trkpt lat="43.365196587435086" lon="11.935778874406099"><ele>677.0</ele><time>2026-04-18T16:10:44Z</time></trkpt><trkpt lat="43.36523490979696" lon="11.935854370378523"><ele>677.0</ele><time>2026-04-18T16:10:46Z</time></trkpt><trkpt lat="43.36526447478241" lon="11.935935648757804"><ele>677.0</ele><time>2026-04-18T16:10:48Z</time></trkpt><trkpt lat="43.36534469724059" lon="11.935996457978563"><ele>677.0</ele><time>2026-04-18T16:10:50Z</time></trkpt><trkpt lat="43.36544032673767" lon="11.936001356851719"><ele>677.0</ele><time>2026-04-18T16:10:52Z</time></trkpt><trkpt lat="43.36552112533861" lon="11.93597394426924"><ele>677.0</ele><time>2026-04-18T16:10:55Z</time></trkpt><trkpt lat="43.36561040816937" lon="11.935974353807907"><ele>679.1666666666666</ele><time>2026-04-18T16:10:58Z</time></trkpt><trkpt lat="43.365669951913716" lon="11.936019135476625"><ele>681.3333333333333</ele><time>2026-04-18T16:11:00Z</time></trkpt><trkpt lat="43.36573553192103" lon="11.936069563240395"><ele>683.5</ele><time>2026-04-18T16:11:03Z</time></trkpt><trkpt lat="43.36579709598287" lon="11.936125157176985"><ele>685.6666666666666</ele><time>2026-04-18T16:11:06Z</time></trkpt><trkpt lat="43.36588001425732" lon="11.93612837146967"><ele>687.8333333333334</ele><time>2026-04-18T16:11:09Z</time></trkpt><trkpt lat="43.36594891207055" lon="11.936040167405672"><ele>690.0</ele><time>2026-04-18T16:11:12Z</time></trkpt><trkpt lat="43.36597557574597" lon="11.93595518941394"><ele>687.3333333333334</ele><time>2026-04-18T16:11:14Z</time></trkpt><trkpt lat="43.366052216285176" lon="11.935861388283978"><ele>684.6666666666666</ele><time>2026-04-18T16:11:16Z</time></trkpt><trkpt lat="43.36612740600108" lon="11.935861528157501"><ele>682.0</ele><time>2026-04-18T16:11:18Z</time></trkpt><trkpt lat="43.36620893743214" lon="11.935847277408238"><ele>679.3333333333333</ele><time>2026-04-18T16:11:21Z</time></trkpt><trkpt lat="43.36628169100611" lon="11.935843936508101"><ele>676.6666666666666</ele><time>2026-04-18T16:11:24Z</time></trkpt><trkpt lat="43.36635192488866" lon="11.935854223069558"><ele>674.0</ele><time>2026-04-18T16:11:28Z</time></trkpt><trkpt lat="43.36644449621815" lon="11.935839698776878"><ele>674.0</ele><time>2026-04-18T16:11:31Z</time></trkpt><trkpt lat="43.36652830824151" lon="11.935810432005807"><ele>674.0</ele><time>2026-04-18T16:11:35Z</time></trkpt><trkpt lat="43.366593544518295" lon="11.935799311354762"><ele>674.0</ele><time>2026-04-18T16:11:39Z</time></trkpt><trkpt lat="43.36669723138078" lon="11.935787160828069"><ele>674.0</ele><time>2026-04-18T16:12:40.999Z</time></trkpt><trkpt lat="43.36676752084022" lon="11.935825607294237"><ele>674.0</ele><time>2026-04-18T16:12:43.999Z</time></trkpt><trkpt lat="43.36683101055609" lon="11.935827349231076"><ele>674.0</ele><time>2026-04-18T16:12:46.999Z</time></trkpt><trkpt lat="43.36691788448677" lon="11.935864789810028"><ele>674.0000000000001</ele><time>2026-04-18T16:12:50Z</time></trkpt><trkpt lat="43.36699413669976" lon="11.935832576163614"><ele>674.0</ele><time>2026-04-18T16:12:52Z</time></trkpt><trkpt lat="43.367055367763705" lon="11.935812388230197"><ele>674.0</ele><time>2026-04-18T16:12:54Z</time></trkpt><trkpt lat="43.36713286260759" lon="11.935809680004937"><ele>674.0</ele><time>2026-04-18T16:12:57Z</time></trkpt><trkpt lat="43.36720668841391" lon="11.935809331973552"><ele>674.0</ele><time>2026-04-18T16:13:00Z</time></trkpt><trkpt lat="43.36727692185529" lon="11.935754779678847"><ele>674.0000000000001</ele><time>2026-04-18T16:13:04Z</time></trkpt><trkpt lat="43.36734468248682" lon="11.935727301677247"><ele>674.0</ele><time>2026-04-18T16:13:07Z</time></trkpt><trkpt lat="43.36742121570006" lon="11.935723475744448"><ele>674.6666666666666</ele><time>2026-04-18T16:13:09Z</time></trkpt><trkpt lat="43.36749794045424" lon="11.935749098361525"><ele>675.3333333333333</ele><time>2026-04-18T16:13:11Z</time></trkpt><trkpt lat="43.36758993903141" lon="11.935785135602002"><ele>676.0</ele><time>2026-04-18T16:13:13Z</time></trkpt><trkpt lat="43.36766918583787" lon="11.935795880111154"><ele>676.6666666666666</ele><time>2026-04-18T16:13:15Z</time></trkpt><trkpt lat="43.36774264079564" lon="11.93582464555437"><ele>677.3333333333334</ele><time>2026-04-18T16:13:17Z</time></trkpt><trkpt lat="43.367810325972115" lon="11.935860719359557"><ele>678.0</ele><time>2026-04-18T16:13:19Z</time></trkpt><trkpt lat="43.36787559285984" lon="11.935917516791056"><ele>680.4285714285714</ele><time>2026-04-18T16:13:22Z</time></trkpt><trkpt lat="43.36795466207368" lon="11.935961814887452"><ele>682.8571428571429</ele><time>2026-04-18T16:13:25Z</time></trkpt><trkpt lat="43.368015573073976" lon="11.935993539882778"><ele>685.2857142857143</ele><time>2026-04-18T16:13:27Z</time></trkpt><trkpt lat="43.36807182813798" lon="11.936047147906827"><ele>687.7142857142858</ele><time>2026-04-18T16:13:30Z</time></trkpt><trkpt lat="43.368130209651206" lon="11.93610683758698"><ele>690.1428571428571</ele><time>2026-04-18T16:13:33Z</time></trkpt><trkpt lat="43.36818366267558" lon="11.93617386119208"><ele>692.5714285714287</ele><time>2026-04-18T16:13:36Z</time></trkpt><trkpt lat="43.3682398171015" lon="11.936225953276558"><ele>695.0</ele><time>2026-04-18T16:13:39Z</time></trkpt><trkpt lat="43.36829601506037" lon="11.936276725650774"><ele>695.0000000000001</ele><time>2026-04-18T16:13:42Z</time></trkpt><trkpt lat="43.368348137553646" lon="11.936362087374409"><ele>695.0</ele><time>2026-04-18T16:13:45Z</time></trkpt><trkpt lat="43.368384906711" lon="11.936437545918862"><ele>695.0</ele><time>2026-04-18T16:13:48Z</time></trkpt><trkpt lat="43.36842018362713" lon="11.936509401385518"><ele>695.0</ele><time>2026-04-18T16:13:51Z</time></trkpt><trkpt lat="43.36844105084158" lon="11.936611252634187"><ele>695.0</ele><time>2026-04-18T16:13:54Z</time></trkpt><trkpt lat="43.36846369854021" lon="11.936711211761178"><ele>695.0000000000001</ele><time>2026-04-18T16:13:57Z</time></trkpt><trkpt lat="43.36847705356376" lon="11.936816600668145"><ele>695.0</ele><time>2026-04-18T16:14:00Z</time></trkpt><trkpt lat="43.36850798221865" lon="11.936905862980359"><ele>697.6666666666666</ele><time>2026-04-18T16:14:03Z</time></trkpt><trkpt lat="43.368505578585186" lon="11.93700188584063"><ele>700.3333333333333</ele><time>2026-04-18T16:14:06Z</time></trkpt><trkpt lat="43.368518078701186" lon="11.937091167661714"><ele>703.0</ele><time>2026-04-18T16:14:08.999Z</time></trkpt><trkpt lat="43.368550687255194" lon="11.937202742700794"><ele>705.6666666666666</ele><time>2026-04-18T16:14:12.999Z</time></trkpt><trkpt lat="43.36857800378172" lon="11.937305369836817"><ele>708.3333333333334</ele><time>2026-04-18T16:14:15.999Z</time></trkpt><trkpt lat="43.36866124360618" lon="11.93735597276973"><ele>711.0</ele><time>2026-04-18T16:14:18.999Z</time></trkpt><trkpt lat="43.36871348598903" lon="11.937285598768662"><ele>711.0</ele><time>2026-04-18T16:14:21.999Z</time></trkpt><trkpt lat="43.368789362090325" lon="11.937273955146011"><ele>711.0</ele><time>2026-04-18T16:14:25.999Z</time></trkpt><trkpt lat="43.368842389423854" lon="11.93722722593438"><ele>711.0</ele><time>2026-04-18T16:14:29.999Z</time></trkpt><trkpt lat="43.36886762228912" lon="11.937134522565373"><ele>711.0</ele><time>2026-04-18T16:14:32.999Z</time></trkpt><trkpt lat="43.368913467117075" lon="11.937040093392012"><ele>711.0</ele><time>2026-04-18T16:14:34.999Z</time></trkpt><trkpt lat="43.368978083888834" lon="11.936976915058782"><ele>711.0</ele><time>2026-04-18T16:14:37.999Z</time></trkpt><trkpt lat="43.36904174732122" lon="11.936934733541486"><ele>711.0</ele><time>2026-04-18T16:14:39.999Z</time></trkpt><trkpt lat="43.369104207219856" lon="11.936899288754041"><ele>711.7142857142858</ele><time>2026-04-18T16:14:41.999Z</time></trkpt><trkpt lat="43.36916704974667" lon="11.936839572606774"><ele>712.4285714285714</ele><time>2026-04-18T16:14:43.999Z</time></trkpt><trkpt lat="43.36922952041332" lon="11.936782881679182"><ele>713.1428571428571</ele><time>2026-04-18T16:14:45.999Z</time></trkpt><trkpt lat="43.369295405446344" lon="11.936747702596051"><ele>713.8571428571429</ele><time>2026-04-18T16:14:48.999Z</time></trkpt><trkpt lat="43.369357287935856" lon="11.936703156456934"><ele>714.5714285714286</ele><time>2026-04-18T16:14:51.999Z</time></trkpt><trkpt lat="43.36943064644691" lon="11.93670685272755"><ele>715.2857142857143</ele><time>2026-04-18T16:14:55Z</time></trkpt><trkpt lat="43.36949316609506" lon="11.936692624183136"><ele>716.0</ele><time>2026-04-18T16:14:58Z</time></trkpt><trkpt lat="43.36956879746702" lon="11.936667909538667"><ele>717.0</ele><time>2026-04-18T16:15:02Z</time></trkpt><trkpt lat="43.36964667282101" lon="11.93666521164772"><ele>718.0</ele><time>2026-04-18T16:15:06Z</time></trkpt><trkpt lat="43.36972747990443" lon="11.936668719580325"><ele>719.0</ele><time>2026-04-18T16:15:09Z</time></trkpt><trkpt lat="43.36980086342118" lon="11.936676160506208"><ele>720.0</ele><time>2026-04-18T16:15:11Z</time></trkpt><trkpt lat="43.36987633474025" lon="11.936683602077034"><ele>721.0</ele><time>2026-04-18T16:15:13Z</time></trkpt><trkpt lat="43.36994634940321" lon="11.936714709218817"><ele>722.0</ele><time>2026-04-18T16:15:16Z</time></trkpt><trkpt lat="43.37005566119423" lon="11.93674340519394"><ele>722.0</ele><time>2026-04-18T16:15:18Z</time></trkpt><trkpt lat="43.3701273329853" lon="11.936781263377165"><ele>722.0</ele><time>2026-04-18T16:15:20Z</time></trkpt><trkpt lat="43.3702014275658" lon="11.93681145127188"><ele>722.0</ele><time>2026-04-18T16:15:22Z</time></trkpt><trkpt lat="43.37028091989798" lon="11.936847445548885"><ele>722.0</ele><time>2026-04-18T16:15:24Z</time></trkpt><trkpt lat="43.370361137425355" lon="11.936882110913233"><ele>722.0</ele><time>2026-04-18T16:15:26Z</time></trkpt><trkpt lat="43.370438899864176" lon="11.93689143132737"><ele>722.0</ele><time>2026-04-18T16:15:28Z</time></trkpt><trkpt lat="43.37052633285571" lon="11.936926288162969"><ele>721.0</ele><time>2026-04-18T16:15:30Z</time></trkpt><trkpt lat="43.370619794071885" lon="11.936972728486374"><ele>720.0</ele><time>2026-04-18T16:15:32Z</time></trkpt><trkpt lat="43.37070884358545" lon="11.93705254089613"><ele>719.0</ele><time>2026-04-18T16:15:34Z</time></trkpt><trkpt lat="43.37078397421308" lon="11.93711087885768"><ele>718.0</ele><time>2026-04-18T16:15:36Z</time></trkpt><trkpt lat="43.37084910288693" lon="11.937181689093626"><ele>717.0</ele><time>2026-04-18T16:15:38Z</time></trkpt><trkpt lat="43.370914216153345" lon="11.937280174920746"><ele>717.0</ele><time>2026-04-18T16:15:40Z</time></trkpt><trkpt lat="43.37097667181945" lon="11.93741475332568"><ele>717.0</ele><time>2026-04-18T16:15:42Z</time></trkpt><trkpt lat="43.3710475472888" lon="11.937534943537878"><ele>717.0</ele><time>2026-04-18T16:15:44Z</time></trkpt><trkpt lat="43.37112402004841" lon="11.937622802361139"><ele>717.0</ele><time>2026-04-18T16:15:46Z</time></trkpt><trkpt lat="43.371202023372554" lon="11.937728913339733"><ele>717.0</ele><time>2026-04-18T16:15:48Z</time></trkpt><trkpt lat="43.371290171423745" lon="11.93783835321977"><ele>717.6666666666666</ele><time>2026-04-18T16:15:50Z</time></trkpt><trkpt lat="43.37138071154548" lon="11.937925124313466"><ele>718.3333333333334</ele><time>2026-04-18T16:15:52Z</time></trkpt><trkpt lat="43.371452793455994" lon="11.9379810813992"><ele>719.0</ele><time>2026-04-18T16:15:54Z</time></trkpt><trkpt lat="43.37150792861618" lon="11.938034317086444"><ele>719.6666666666667</ele><time>2026-04-18T16:15:56Z</time></trkpt><trkpt lat="43.37157352080822" lon="11.938099027051924"><ele>720.3333333333334</ele><time>2026-04-18T16:15:58Z</time></trkpt><trkpt lat="43.37163838747897" lon="11.938145357881602"><ele>721.0</ele><time>2026-04-18T16:16:00Z</time></trkpt><trkpt lat="43.371679515758494" lon="11.938255305678469"><ele>721.0</ele><time>2026-04-18T16:16:03Z</time></trkpt><trkpt lat="43.37166818612801" lon="11.938344178874893"><ele>721.0</ele><time>2026-04-18T16:17:14Z</time></trkpt><trkpt lat="43.37165951600056" lon="11.938255397568433"><ele>721.0</ele><time>2026-04-18T16:18:23Z</time></trkpt><trkpt lat="43.371672846361" lon="11.93834225295578"><ele>721.0</ele><time>2026-04-18T16:20:14Z</time></trkpt><trkpt lat="43.37168690779369" lon="11.938245261667653"><ele>721.0</ele><time>2026-04-18T16:22:39Z</time></trkpt><trkpt lat="43.37173924902992" lon="11.938141982067794"><ele>721.0</ele><time>2026-04-18T16:22:42Z</time></trkpt><trkpt lat="43.371816531903534" lon="11.9380975081991"><ele>721.0</ele><time>2026-04-18T16:22:44Z</time></trkpt><trkpt lat="43.37189771348273" lon="11.93806210890295"><ele>721.0</ele><time>2026-04-18T16:22:46Z</time></trkpt><trkpt lat="43.37198013919439" lon="11.93804395523574"><ele>721.0</ele><time>2026-04-18T16:22:48Z</time></trkpt><trkpt lat="43.37204387328227" lon="11.93801073974556"><ele>721.0</ele><time>2026-04-18T16:22:50Z</time></trkpt><trkpt lat="43.372125703418625" lon="11.93797297199218"><ele>721.0</ele><time>2026-04-18T16:22:53Z</time></trkpt><trkpt lat="43.37219184082948" lon="11.937958353228602"><ele>721.0</ele><time>2026-04-18T16:22:56Z</time></trkpt><trkpt lat="43.372253679773905" lon="11.937902542134776"><ele>721.0</ele><time>2026-04-18T16:23:00Z</time></trkpt><trkpt lat="43.37231578320976" lon="11.937883598567863"><ele>721.0</ele><time>2026-04-18T16:23:04Z</time></trkpt><trkpt lat="43.37238024964433" lon="11.937853539062498"><ele>723.4285714285714</ele><time>2026-04-18T16:23:09Z</time></trkpt><trkpt lat="43.37243563004479" lon="11.937800922056693"><ele>725.8571428571429</ele><time>2026-04-18T16:23:11.998Z</time></trkpt><trkpt lat="43.37248603401461" lon="11.937732592301536"><ele>728.2857142857142</ele><time>2026-04-18T16:23:14.998Z</time></trkpt><trkpt lat="43.37256140711227" lon="11.937712827964932"><ele>730.7142857142858</ele><time>2026-04-18T16:23:17.999Z</time></trkpt><trkpt lat="43.37262280771161" lon="11.937684607195422"><ele>733.1428571428571</ele><time>2026-04-18T16:23:19.999Z</time></trkpt><trkpt lat="43.372689858952654" lon="11.937659571137361"><ele>735.5714285714286</ele><time>2026-04-18T16:23:22.999Z</time></trkpt><trkpt lat="43.37276269038493" lon="11.937718943684741"><ele>738.0</ele><time>2026-04-18T16:23:26.999Z</time></trkpt><trkpt lat="43.3728046894341" lon="11.937832336566677"><ele>738.0</ele><time>2026-04-18T16:23:29.999Z</time></trkpt><trkpt lat="43.37284637483809" lon="11.937942406006503"><ele>738.0</ele><time>2026-04-18T16:23:32.999Z</time></trkpt><trkpt lat="43.372880693905394" lon="11.93801719717743"><ele>738.0</ele><time>2026-04-18T16:23:34.999Z</time></trkpt><trkpt lat="43.37291358544118" lon="11.938106018946165"><ele>738.0</ele><time>2026-04-18T16:23:36.999Z</time></trkpt><trkpt lat="43.372924684288975" lon="11.938202868133196"><ele>738.0</ele><time>2026-04-18T16:23:38.999Z</time></trkpt><trkpt lat="43.372931108835544" lon="11.938330228883343"><ele>738.0</ele><time>2026-04-18T16:23:40.999Z</time></trkpt><trkpt lat="43.3729577839222" lon="11.93841969904372"><ele>737.8333333333334</ele><time>2026-04-18T16:23:42.999Z</time></trkpt><trkpt lat="43.373002551982275" lon="11.938486286879735"><ele>737.6666666666666</ele><time>2026-04-18T16:23:44.999Z</time></trkpt><trkpt lat="43.373059589745814" lon="11.938557013432312"><ele>737.5</ele><time>2026-04-18T16:23:46.999Z</time></trkpt><trkpt lat="43.373118652926046" lon="11.938600988381568"><ele>737.3333333333333</ele><time>2026-04-18T16:23:48.999Z</time></trkpt><trkpt lat="43.37314515660534" lon="11.938743798118596"><ele>737.1666666666666</ele><time>2026-04-18T16:23:51.999Z</time></trkpt><trkpt lat="43.373173991493104" lon="11.938857050850489"><ele>737.0</ele><time>2026-04-18T16:23:53.999Z</time></trkpt><trkpt lat="43.373209767952694" lon="11.938976210402222"><ele>740.2</ele><time>2026-04-18T16:23:56.999Z</time></trkpt><trkpt lat="43.37322336345275" lon="11.939080544275132"><ele>743.4000000000001</ele><time>2026-04-18T16:23:58.999Z</time></trkpt><trkpt lat="43.373285275569195" lon="11.939105850036652"><ele>746.5999999999999</ele><time>2026-04-18T16:24:01.999Z</time></trkpt><trkpt lat="43.37334651446071" lon="11.939139776366188"><ele>749.8</ele><time>2026-04-18T16:24:03.999Z</time></trkpt><trkpt lat="43.37351020246885" lon="11.939154725932276"><ele>753.0</ele><time>2026-04-18T16:24:06.999Z</time></trkpt><trkpt lat="43.37359960627464" lon="11.939153860029627"><ele>753.0</ele><time>2026-04-18T16:24:08.999Z</time></trkpt><trkpt lat="43.373693287735044" lon="11.939161302899533"><ele>753.0</ele><time>2026-04-18T16:24:10.999Z</time></trkpt><trkpt lat="43.37377786074313" lon="11.939166541053696"><ele>753.0</ele><time>2026-04-18T16:24:12.999Z</time></trkpt><trkpt lat="43.37385896950913" lon="11.939199204645691"><ele>753.0</ele><time>2026-04-18T16:24:14.999Z</time></trkpt><trkpt lat="43.373929641979764" lon="11.939242625990584"><ele>753.0</ele><time>2026-04-18T16:24:16.999Z</time></trkpt><trkpt lat="43.37401044596674" lon="11.93929229661009"><ele>753.0</ele><time>2026-04-18T16:24:18.999Z</time></trkpt><trkpt lat="43.37408250465052" lon="11.939329591135813"><ele>754.3333333333334</ele><time>2026-04-18T16:24:34.999Z</time></trkpt><trkpt lat="43.374166278548635" lon="11.939381950959902"><ele>755.6666666666666</ele><time>2026-04-18T16:24:37.999Z</time></trkpt><trkpt lat="43.37425859535057" lon="11.9393565632152"><ele>757.0</ele><time>2026-04-18T16:24:39.999Z</time></trkpt><trkpt lat="43.37426882444014" lon="11.939459564579233"><ele>758.3333333333333</ele><time>2026-04-18T16:24:41.999Z</time></trkpt><trkpt lat="43.374269994729" lon="11.939576701055854"><ele>759.6666666666666</ele><time>2026-04-18T16:24:44.999Z</time></trkpt><trkpt lat="43.37435393204898" lon="11.939632598370366"><ele>761.0</ele><time>2026-04-18T16:24:46.999Z</time></trkpt><trkpt lat="43.37439118480261" lon="11.939531964429793"><ele>761.0</ele><time>2026-04-18T16:24:48.999Z</time></trkpt><trkpt lat="43.37434967333074" lon="11.939464160589095"><ele>761.0</ele><time>2026-04-18T16:24:49.999Z</time></trkpt><trkpt lat="43.374631585741774" lon="11.939744247553968"><ele>761.0</ele><time>2026-04-18T16:24:52.999Z</time></trkpt><trkpt lat="43.374703527407725" lon="11.939704568388963"><ele>761.5714285714286</ele><time>2026-04-18T16:24:54.999Z</time></trkpt><trkpt lat="43.374732496281176" lon="11.93962728191223"><ele>762.1428571428571</ele><time>2026-04-18T16:24:56.999Z</time></trkpt><trkpt lat="43.374798047214064" lon="11.939566357234977"><ele>762.7142857142858</ele><time>2026-04-18T16:24:58.999Z</time></trkpt><trkpt lat="43.37486488245161" lon="11.939579023314046"><ele>763.2857142857142</ele><time>2026-04-18T16:25:08.999Z</time></trkpt><trkpt lat="43.374951439155595" lon="11.939556443505058"><ele>763.8571428571429</ele><time>2026-04-18T16:25:13.999Z</time></trkpt><trkpt lat="43.37502002618874" lon="11.939543713865149"><ele>764.4285714285714</ele><time>2026-04-18T16:25:15.999Z</time></trkpt><trkpt lat="43.37509068379794" lon="11.939516495288984"><ele>765.0</ele><time>2026-04-18T16:25:19.999Z</time></trkpt><trkpt lat="43.37514814109575" lon="11.939458519977878"><ele>765.0</ele><time>2026-04-18T16:25:22.999Z</time></trkpt><trkpt lat="43.37521077410363" lon="11.939353905633498"><ele>765.0</ele><time>2026-04-18T16:25:26Z</time></trkpt><trkpt lat="43.375263396712164" lon="11.939268449832865"><ele>765.0</ele><time>2026-04-18T16:25:29Z</time></trkpt><trkpt lat="43.37528307455071" lon="11.939154920527207"><ele>765.0</ele><time>2026-04-18T16:25:32Z</time></trkpt><trkpt lat="43.375326522734284" lon="11.939056979675284"><ele>765.0</ele><time>2026-04-18T16:25:35Z</time></trkpt><trkpt lat="43.37541121551398" lon="11.939008774249896"><ele>765.0</ele><time>2026-04-18T16:25:38Z</time></trkpt><trkpt lat="43.37551727712815" lon="11.939019804785758"><ele>762.8</ele><time>2026-04-18T16:25:41Z</time></trkpt><trkpt lat="43.375588853651436" lon="11.938965373754073"><ele>760.6</ele><time>2026-04-18T16:25:43Z</time></trkpt><trkpt lat="43.375703916004" lon="11.938868025422225"><ele>758.4000000000001</ele><time>2026-04-18T16:25:46Z</time></trkpt><trkpt lat="43.37579148843601" lon="11.938833600838851"><ele>756.2</ele><time>2026-04-18T16:25:48Z</time></trkpt><trkpt lat="43.37587534493611" lon="11.938782910645203"><ele>754.0</ele><time>2026-04-18T16:25:50Z</time></trkpt><trkpt lat="43.37594365652683" lon="11.93873677076224"><ele>753.9999999999999</ele><time>2026-04-18T16:25:52Z</time></trkpt><trkpt lat="43.37600747173887" lon="11.93869275271313"><ele>754.0</ele><time>2026-04-18T16:25:54Z</time></trkpt><trkpt lat="43.376086848807375" lon="11.938669005072812"><ele>754.0</ele><time>2026-04-18T16:25:57Z</time></trkpt><trkpt lat="43.37615149674619" lon="11.938684369558795"><ele>754.0</ele><time>2026-04-18T16:25:59.999Z</time></trkpt><trkpt lat="43.376217915297495" lon="11.938710607314475"><ele>754.0</ele><time>2026-04-18T16:26:02.999Z</time></trkpt><trkpt lat="43.37626892240821" lon="11.938649556739112"><ele>753.9999999999999</ele><time>2026-04-18T16:26:04.999Z</time></trkpt><trkpt lat="43.376305306889094" lon="11.93857579359734"><ele>754.0</ele><time>2026-04-18T16:26:06.999Z</time></trkpt><trkpt lat="43.3763563178729" lon="11.93849367753518"><ele>754.9999999999999</ele><time>2026-04-18T16:26:09.999Z</time></trkpt><trkpt lat="43.37642551962335" lon="11.938486202792658"><ele>756.0</ele><time>2026-04-18T16:26:11.999Z</time></trkpt><trkpt lat="43.37648859219027" lon="11.938472677650212"><ele>757.0</ele><time>2026-04-18T16:26:14.999Z</time></trkpt><trkpt lat="43.37654223952569" lon="11.938424203651499"><ele>758.0</ele><time>2026-04-18T16:26:17.999Z</time></trkpt><trkpt lat="43.37659626860952" lon="11.9383503333439"><ele>759.0</ele><time>2026-04-18T16:26:20.999Z</time></trkpt><trkpt lat="43.37668040328302" lon="11.938319593017617"><ele>759.9999999999999</ele><time>2026-04-18T16:26:23.999Z</time></trkpt><trkpt lat="43.37673786303153" lon="11.938282772436612"><ele>761.0</ele><time>2026-04-18T16:26:25.999Z</time></trkpt><trkpt lat="43.37680111000912" lon="11.93831123820933"><ele>762.0</ele><time>2026-04-18T16:26:27.999Z</time></trkpt><trkpt lat="43.376896003398016" lon="11.938295582110007"><ele>763.0</ele><time>2026-04-18T16:26:30.999Z</time></trkpt><trkpt lat="43.376965126378984" lon="11.93826076146271"><ele>764.0</ele><time>2026-04-18T16:26:32.999Z</time></trkpt><trkpt lat="43.37704240057064" lon="11.938223528838753"><ele>765.0</ele><time>2026-04-18T16:26:34.999Z</time></trkpt><trkpt lat="43.37712037722118" lon="11.93823586342442"><ele>766.0</ele><time>2026-04-18T16:26:37.999Z</time></trkpt><trkpt lat="43.37718114397769" lon="11.93817745279283"><ele>767.0</ele><time>2026-04-18T16:26:41.999Z</time></trkpt><trkpt lat="43.37724712086329" lon="11.938115438851677"><ele>767.8571428571429</ele><time>2026-04-18T16:26:45.999Z</time></trkpt><trkpt lat="43.37731695148615" lon="11.938051273846963"><ele>768.7142857142858</ele><time>2026-04-18T16:26:48.999Z</time></trkpt><trkpt lat="43.377368501916756" lon="11.937997957986001"><ele>769.5714285714286</ele><time>2026-04-18T16:26:51.999Z</time></trkpt><trkpt lat="43.37744070648744" lon="11.937955443398806"><ele>770.4285714285714</ele><time>2026-04-18T16:26:56.999Z</time></trkpt><trkpt lat="43.377519247147525" lon="11.93796701149443"><ele>771.2857142857142</ele><time>2026-04-18T16:26:59.999Z</time></trkpt><trkpt lat="43.37758696781677" lon="11.937940703932147"><ele>772.1428571428571</ele><time>2026-04-18T16:27:01.999Z</time></trkpt><trkpt lat="43.377644284772146" lon="11.937902709308172"><ele>773.0</ele><time>2026-04-18T16:27:03.999Z</time></trkpt><trkpt lat="43.37772404423896" lon="11.937826685690966"><ele>773.0000000000001</ele><time>2026-04-18T16:27:05.999Z</time></trkpt><trkpt lat="43.37780134051189" lon="11.937813448544915"><ele>773.0</ele><time>2026-04-18T16:27:07.999Z</time></trkpt><trkpt lat="43.37787371063608" lon="11.937786736733804"><ele>773.0</ele><time>2026-04-18T16:27:10.999Z</time></trkpt><trkpt lat="43.3779452781946" lon="11.937761974731071"><ele>773.0</ele><time>2026-04-18T16:27:14.999Z</time></trkpt><trkpt lat="43.37800782814166" lon="11.937734045685863"><ele>773.0000000000001</ele><time>2026-04-18T16:27:17.999Z</time></trkpt><trkpt lat="43.37805912534033" lon="11.93762986171277"><ele>773.0</ele><time>2026-04-18T16:27:20.999Z</time></trkpt><trkpt lat="43.3781093369471" lon="11.937554442299845"><ele>775.2857142857142</ele><time>2026-04-18T16:27:24.999Z</time></trkpt><trkpt lat="43.37817333862306" lon="11.93754615362181"><ele>777.5714285714286</ele><time>2026-04-18T16:27:27.999Z</time></trkpt><trkpt lat="43.37824826251893" lon="11.93753040829497"><ele>779.8571428571429</ele><time>2026-04-18T16:27:32Z</time></trkpt><trkpt lat="43.37831533662443" lon="11.937483248015264"><ele>782.1428571428571</ele><time>2026-04-18T16:27:36Z</time></trkpt><trkpt lat="43.378367039117606" lon="11.937408879546865"><ele>784.4285714285714</ele><time>2026-04-18T16:27:40Z</time></trkpt><trkpt lat="43.37842253177598" lon="11.937353834615733"><ele>786.7142857142857</ele><time>2026-04-18T16:27:45Z</time></trkpt><trkpt lat="43.37847984769969" lon="11.937284372729986"><ele>789.0</ele><time>2026-04-18T16:27:49Z</time></trkpt><trkpt lat="43.37854090334174" lon="11.937183747879487"><ele>788.9999999999999</ele><time>2026-04-18T16:27:52Z</time></trkpt><trkpt lat="43.37861586717275" lon="11.937161692515058"><ele>789.0</ele><time>2026-04-18T16:27:55Z</time></trkpt><trkpt lat="43.37869834288458" lon="11.937216409429887"><ele>789.0</ele><time>2026-04-18T16:27:57Z</time></trkpt><trkpt lat="43.378748083959756" lon="11.937280660298786"><ele>789.0</ele><time>2026-04-18T16:28:00Z</time></trkpt><trkpt lat="43.37880157690451" lon="11.93734388853026"><ele>789.0</ele><time>2026-04-18T16:28:02Z</time></trkpt><trkpt lat="43.37883235903837" lon="11.937265668993067"><ele>788.9999999999999</ele><time>2026-04-18T16:28:05Z</time></trkpt><trkpt lat="43.378817969413625" lon="11.93735672184653"><ele>789.0</ele><time>2026-04-18T16:28:12Z</time></trkpt><trkpt lat="43.37887358996937" lon="11.937502331156383"><ele>790.5</ele><time>2026-04-18T16:28:16.999Z</time></trkpt><trkpt lat="43.3789670715607" lon="11.937509933725357"><ele>792.0</ele><time>2026-04-18T16:28:20.999Z</time></trkpt><trkpt lat="43.37903821918356" lon="11.937532200526233"><ele>793.5</ele><time>2026-04-18T16:28:23.999Z</time></trkpt><trkpt lat="43.37909856315211" lon="11.937587524485059"><ele>795.0</ele><time>2026-04-18T16:28:25.999Z</time></trkpt><trkpt lat="43.37916871658791" lon="11.93763193148958"><ele>796.5</ele><time>2026-04-18T16:28:28.999Z</time></trkpt><trkpt lat="43.37923881948259" lon="11.937687846799104"><ele>798.0</ele><time>2026-04-18T16:28:31.999Z</time></trkpt><trkpt lat="43.37932505115472" lon="11.937715833184756"><ele>798.0</ele><time>2026-04-18T16:28:34.999Z</time></trkpt><trkpt lat="43.37941088176836" lon="11.937710858075064"><ele>798.0</ele><time>2026-04-18T16:28:37.999Z</time></trkpt><trkpt lat="43.3794733212041" lon="11.93764892641513"><ele>798.0</ele><time>2026-04-18T16:28:40.999Z</time></trkpt><trkpt lat="43.37953024560796" lon="11.937566787781218"><ele>798.0</ele><time>2026-04-18T16:28:42.999Z</time></trkpt><trkpt lat="43.37954713676445" lon="11.937464998809057"><ele>798.0</ele><time>2026-04-18T16:28:46.999Z</time></trkpt><trkpt lat="43.37956085635719" lon="11.937380448788005"><ele>798.0</ele><time>2026-04-18T16:28:48.999Z</time></trkpt><trkpt lat="43.37956936949545" lon="11.937284023000666"><ele>798.0</ele><time>2026-04-18T16:28:51.999Z</time></trkpt><trkpt lat="43.37952863556592" lon="11.937158959198024"><ele>798.0</ele><time>2026-04-18T16:28:54.999Z</time></trkpt><trkpt lat="43.37951971628587" lon="11.937063158323657"><ele>798.0</ele><time>2026-04-18T16:28:58.999Z</time></trkpt><trkpt lat="43.37953876894312" lon="11.93697578069649"><ele>798.0</ele><time>2026-04-18T16:29:25.999Z</time></trkpt><trkpt lat="43.37955746598062" lon="11.93688341605184"><ele>798.0</ele><time>2026-04-18T16:29:59Z</time></trkpt><trkpt lat="43.37958472119545" lon="11.936804900720489"><ele>798.0</ele><time>2026-04-18T16:30:27Z</time></trkpt><trkpt lat="43.37958708143703" lon="11.936713812748796"><ele>798.0</ele><time>2026-04-18T16:31:23.999Z</time></trkpt><trkpt lat="43.37960890453973" lon="11.93661453197499"><ele>795.5</ele><time>2026-04-18T16:31:51Z</time></trkpt><trkpt lat="43.3796177400522" lon="11.936513554178484"><ele>793.0</ele><time>2026-04-18T16:31:58Z</time></trkpt><trkpt lat="43.37959003907682" lon="11.936355170507559"><ele>790.5</ele><time>2026-04-18T16:32:01Z</time></trkpt><trkpt lat="43.37956275362581" lon="11.936233670703128"><ele>788.0</ele><time>2026-04-18T16:32:03Z</time></trkpt><trkpt lat="43.37952780438423" lon="11.93613835432508"><ele>785.5</ele><time>2026-04-18T16:32:05Z</time></trkpt><trkpt lat="43.37950021534102" lon="11.936037009061389"><ele>783.0</ele><time>2026-04-18T16:32:07Z</time></trkpt><trkpt lat="43.37945603452463" lon="11.935936081769166"><ele>781.1666666666666</ele><time>2026-04-18T16:32:10Z</time></trkpt><trkpt lat="43.37944876531274" lon="11.935830001755972"><ele>779.3333333333333</ele><time>2026-04-18T16:32:13Z</time></trkpt><trkpt lat="43.37944599283268" lon="11.935735912802537"><ele>777.5</ele><time>2026-04-18T16:32:15Z</time></trkpt><trkpt lat="43.37943015075128" lon="11.935616080000274"><ele>775.6666666666666</ele><time>2026-04-18T16:32:17Z</time></trkpt><trkpt lat="43.379412982246706" lon="11.935477009679362"><ele>773.8333333333333</ele><time>2026-04-18T16:32:19Z</time></trkpt><trkpt lat="43.3793511991025" lon="11.935358376558492"><ele>772.0</ele><time>2026-04-18T16:32:22Z</time></trkpt><trkpt lat="43.37932397333654" lon="11.935206435768144"><ele>771.9999999999999</ele><time>2026-04-18T16:32:24Z</time></trkpt><trkpt lat="43.37932664445542" lon="11.93510657647106"><ele>772.0</ele><time>2026-04-18T16:32:26Z</time></trkpt><trkpt lat="43.379335093480655" lon="11.935009248281139"><ele>772.0</ele><time>2026-04-18T16:32:30Z</time></trkpt><trkpt lat="43.379333370295086" lon="11.934913842218743"><ele>772.0</ele><time>2026-04-18T16:32:32Z</time></trkpt><trkpt lat="43.3793237270479" lon="11.934781415212747"><ele>771.9999999999999</ele><time>2026-04-18T16:32:35Z</time></trkpt><trkpt lat="43.37928670116738" lon="11.934653893043562"><ele>772.0</ele><time>2026-04-18T16:32:38Z</time></trkpt><trkpt lat="43.37923604239146" lon="11.934595176508646"><ele>771.6666666666666</ele><time>2026-04-18T16:32:40Z</time></trkpt><trkpt lat="43.37918753860471" lon="11.934537708041136"><ele>771.3333333333333</ele><time>2026-04-18T16:32:43Z</time></trkpt><trkpt lat="43.37917977542543" lon="11.934415926591416"><ele>771.0</ele><time>2026-04-18T16:32:45.999Z</time></trkpt><trkpt lat="43.37918470035007" lon="11.93428516034471"><ele>770.6666666666667</ele><time>2026-04-18T16:32:48.999Z</time></trkpt><trkpt lat="43.37918843313776" lon="11.934183653919723"><ele>770.3333333333334</ele><time>2026-04-18T16:32:49.999Z</time></trkpt><trkpt lat="43.37919616153162" lon="11.934056463634548"><ele>770.0</ele><time>2026-04-18T16:32:51.999Z</time></trkpt><trkpt lat="43.37919425684009" lon="11.933929415110992"><ele>769.5000000000001</ele><time>2026-04-18T16:32:53.999Z</time></trkpt><trkpt lat="43.379191802224085" lon="11.933793375156112"><ele>769.0</ele><time>2026-04-18T16:32:55.999Z</time></trkpt><trkpt lat="43.37916500120024" lon="11.933685832625722"><ele>768.5</ele><time>2026-04-18T16:32:57.999Z</time></trkpt><trkpt lat="43.37915356096524" lon="11.933581942146295"><ele>768.0</ele><time>2026-04-18T16:32:59.999Z</time></trkpt><trkpt lat="43.37913143959769" lon="11.933461720509344"><ele>767.5</ele><time>2026-04-18T16:33:02.999Z</time></trkpt><trkpt lat="43.37911666240501" lon="11.933347955164152"><ele>767.0</ele><time>2026-04-18T16:33:06.999Z</time></trkpt><trkpt lat="43.37909633947107" lon="11.93321599449534"><ele>765.7142857142858</ele><time>2026-04-18T16:33:09.999Z</time></trkpt><trkpt lat="43.37907680515632" lon="11.933122940391897"><ele>764.4285714285714</ele><time>2026-04-18T16:33:11.999Z</time></trkpt><trkpt lat="43.37907220553632" lon="11.933008996586967"><ele>763.1428571428571</ele><time>2026-04-18T16:33:14.999Z</time></trkpt><trkpt lat="43.37906433554158" lon="11.932910895468568"><ele>761.8571428571429</ele><time>2026-04-18T16:33:17.999Z</time></trkpt><trkpt lat="43.379074069507446" lon="11.932823262101653"><ele>760.5714285714286</ele><time>2026-04-18T16:33:19.999Z</time></trkpt><trkpt lat="43.3790731302499" lon="11.932712245777703"><ele>759.2857142857143</ele><time>2026-04-18T16:33:22.999Z</time></trkpt><trkpt lat="43.37908795905641" lon="11.932626392898264"><ele>758.0</ele><time>2026-04-18T16:33:24.999Z</time></trkpt><trkpt lat="43.379077860004955" lon="11.932539351613885"><ele>756.5</ele><time>2026-04-18T16:33:26.999Z</time></trkpt><trkpt lat="43.37907320292729" lon="11.93243646040373"><ele>755.0</ele><time>2026-04-18T16:33:28.999Z</time></trkpt><trkpt lat="43.37904877881758" lon="11.932322878219836"><ele>753.5</ele><time>2026-04-18T16:33:30.999Z</time></trkpt><trkpt lat="43.37901660822943" lon="11.932231875965774"><ele>752.0</ele><time>2026-04-18T16:33:32.999Z</time></trkpt><trkpt lat="43.37898987649912" lon="11.932137310583016"><ele>750.5</ele><time>2026-04-18T16:33:34.999Z</time></trkpt><trkpt lat="43.37895538918504" lon="11.932010516350845"><ele>749.0</ele><time>2026-04-18T16:33:37.999Z</time></trkpt><trkpt lat="43.378920890139476" lon="11.931923987252032"><ele>749.0</ele><time>2026-04-18T16:33:39.999Z</time></trkpt><trkpt lat="43.37888164457682" lon="11.931834134552982"><ele>749.0</ele><time>2026-04-18T16:33:42.999Z</time></trkpt><trkpt lat="43.37884376291382" lon="11.931761739457956"><ele>749.0</ele><time>2026-04-18T16:33:45.999Z</time></trkpt><trkpt lat="43.37881641880379" lon="11.931653157430969"><ele>749.0</ele><time>2026-04-18T16:33:49Z</time></trkpt><trkpt lat="43.37877764883674" lon="11.931547103505496"><ele>749.0</ele><time>2026-04-18T16:33:53Z</time></trkpt><trkpt lat="43.378756207440745" lon="11.931453518363954"><ele>749.0</ele><time>2026-04-18T16:34:08Z</time></trkpt><trkpt lat="43.37874934143785" lon="11.931366088311256"><ele>749.0</ele><time>2026-04-18T16:34:17Z</time></trkpt><trkpt lat="43.37873183769869" lon="11.931261822686237"><ele>747.7142857142857</ele><time>2026-04-18T16:34:30Z</time></trkpt><trkpt lat="43.37869623635673" lon="11.931185686696633"><ele>746.4285714285714</ele><time>2026-04-18T16:34:33Z</time></trkpt><trkpt lat="43.37865571295682" lon="11.931099647723073"><ele>745.1428571428571</ele><time>2026-04-18T16:34:37Z</time></trkpt><trkpt lat="43.37860391733111" lon="11.931013778160084"><ele>743.8571428571429</ele><time>2026-04-18T16:34:41Z</time></trkpt><trkpt lat="43.37858182011908" lon="11.930924803547851"><ele>742.5714285714286</ele><time>2026-04-18T16:34:45Z</time></trkpt><trkpt lat="43.378547865440716" lon="11.930840974771144"><ele>741.2857142857142</ele><time>2026-04-18T16:35:00Z</time></trkpt><trkpt lat="43.37852282697509" lon="11.930758551086788"><ele>740.0</ele><time>2026-04-18T16:35:03Z</time></trkpt><trkpt lat="43.37848902513446" lon="11.930669386053486"><ele>743.3333333333333</ele><time>2026-04-18T16:35:08.999Z</time></trkpt><trkpt lat="43.378486146900414" lon="11.93057345762165"><ele>746.6666666666666</ele><time>2026-04-18T16:35:12.999Z</time></trkpt><trkpt lat="43.378471269752126" lon="11.930467940182346"><ele>750.0</ele><time>2026-04-18T16:35:34.999Z</time></trkpt><trkpt lat="43.37846492535807" lon="11.93038152669659"><ele>753.3333333333334</ele><time>2026-04-18T16:35:36.999Z</time></trkpt><trkpt lat="43.37845104762314" lon="11.930264223887255"><ele>756.6666666666667</ele><time>2026-04-18T16:35:40.999Z</time></trkpt><trkpt lat="43.378437356089506" lon="11.930157973854095"><ele>760.0</ele><time>2026-04-18T16:35:42.999Z</time></trkpt><trkpt lat="43.37842262502132" lon="11.930038527033531"><ele>761.0</ele><time>2026-04-18T16:35:44.999Z</time></trkpt><trkpt lat="43.37841304230603" lon="11.929947829293639"><ele>762.0</ele><time>2026-04-18T16:35:46.999Z</time></trkpt><trkpt lat="43.37843693143864" lon="11.929834290298562"><ele>763.0</ele><time>2026-04-18T16:35:49.999Z</time></trkpt><trkpt lat="43.37846330866776" lon="11.929755628738812"><ele>764.0</ele><time>2026-04-18T16:35:51.999Z</time></trkpt><trkpt lat="43.37842817964213" lon="11.92967224879741"><ele>765.0</ele><time>2026-04-18T16:35:54Z</time></trkpt><trkpt lat="43.378409203669136" lon="11.929573486960763"><ele>766.0</ele><time>2026-04-18T16:35:56Z</time></trkpt><trkpt lat="43.37840850906578" lon="11.929428349066432"><ele>766.0</ele><time>2026-04-18T16:35:58Z</time></trkpt><trkpt lat="43.378409349487534" lon="11.929293937327902"><ele>766.0</ele><time>2026-04-18T16:36:00Z</time></trkpt><trkpt lat="43.37840514168438" lon="11.92918471962097"><ele>766.0</ele><time>2026-04-18T16:36:02Z</time></trkpt><trkpt lat="43.378403618195854" lon="11.92907487895277"><ele>766.0</ele><time>2026-04-18T16:36:05Z</time></trkpt><trkpt lat="43.37839480875247" lon="11.928968491928755"><ele>766.0</ele><time>2026-04-18T16:36:08Z</time></trkpt><trkpt lat="43.37840057352627" lon="11.928871181652237"><ele>766.0</ele><time>2026-04-18T16:36:11Z</time></trkpt><trkpt lat="43.37841559178178" lon="11.928771019999909"><ele>766.8571428571429</ele><time>2026-04-18T16:36:14Z</time></trkpt><trkpt lat="43.378412046273496" lon="11.928654263676417"><ele>767.7142857142857</ele><time>2026-04-18T16:36:17Z</time></trkpt><trkpt lat="43.37841948205459" lon="11.928544548630638"><ele>768.5714285714287</ele><time>2026-04-18T16:36:20Z</time></trkpt><trkpt lat="43.37845156763469" lon="11.928455507941162"><ele>769.4285714285714</ele><time>2026-04-18T16:36:24Z</time></trkpt><trkpt lat="43.37844798055473" lon="11.928362262765585"><ele>770.2857142857143</ele><time>2026-04-18T16:36:29Z</time></trkpt><trkpt lat="43.37849150700642" lon="11.928278329578527"><ele>771.1428571428572</ele><time>2026-04-18T16:36:33Z</time></trkpt><trkpt lat="43.37852953259095" lon="11.928201321379822"><ele>772.0</ele><time>2026-04-18T16:36:38Z</time></trkpt><trkpt lat="43.37858700539605" lon="11.928137596162559"><ele>773.2857142857143</ele><time>2026-04-18T16:36:42Z</time></trkpt><trkpt lat="43.37865727193681" lon="11.928132242304871"><ele>774.5714285714286</ele><time>2026-04-18T16:38:04Z</time></trkpt><trkpt lat="43.378707163075575" lon="11.92806587992269"><ele>775.8571428571429</ele><time>2026-04-18T16:38:22Z</time></trkpt><trkpt lat="43.37876129387507" lon="11.928005574593893"><ele>777.1428571428571</ele><time>2026-04-18T16:38:46Z</time></trkpt><trkpt lat="43.378824003912776" lon="11.927946063666141"><ele>778.4285714285714</ele><time>2026-04-18T16:40:05Z</time></trkpt><trkpt lat="43.378887665849106" lon="11.927888446972553"><ele>779.7142857142858</ele><time>2026-04-18T16:40:09Z</time></trkpt><trkpt lat="43.378930751876084" lon="11.92780366580735"><ele>781.0</ele><time>2026-04-18T16:40:13Z</time></trkpt><trkpt lat="43.378978395444605" lon="11.927734192744067"><ele>783.2857142857143</ele><time>2026-04-18T16:40:31Z</time></trkpt><trkpt lat="43.37902991821051" lon="11.927670263943776"><ele>785.5714285714287</ele><time>2026-04-18T16:40:39Z</time></trkpt><trkpt lat="43.379030514129376" lon="11.927577510754647"><ele>787.8571428571429</ele><time>2026-04-18T16:40:46Z</time></trkpt><trkpt lat="43.37906854660456" lon="11.92750751216812"><ele>790.1428571428571</ele><time>2026-04-18T16:40:53Z</time></trkpt><trkpt lat="43.37907585240154" lon="11.927412857285066"><ele>792.4285714285714</ele><time>2026-04-18T16:41:11Z</time></trkpt><trkpt lat="43.379051834680254" lon="11.927324866666092"><ele>794.7142857142857</ele><time>2026-04-18T16:41:19Z</time></trkpt><trkpt lat="43.37904015351888" lon="11.92723862815882"><ele>797.0</ele><time>2026-04-18T16:41:27Z</time></trkpt><trkpt lat="43.379055250362676" lon="11.927145551943788"><ele>799.4285714285714</ele><time>2026-04-18T16:41:37Z</time></trkpt><trkpt lat="43.379067278556896" lon="11.927059905014097"><ele>801.8571428571429</ele><time>2026-04-18T16:41:45Z</time></trkpt><trkpt lat="43.379066713726665" lon="11.926954234162167"><ele>804.2857142857143</ele><time>2026-04-18T16:41:49Z</time></trkpt><trkpt lat="43.37906316773033" lon="11.926865774253082"><ele>806.7142857142858</ele><time>2026-04-18T16:41:53Z</time></trkpt><trkpt lat="43.379061715906445" lon="11.926739424463157"><ele>809.1428571428571</ele><time>2026-04-18T16:41:56.999Z</time></trkpt><trkpt lat="43.379056644542835" lon="11.926627294687197"><ele>811.5714285714287</ele><time>2026-04-18T16:42:01.999Z</time></trkpt><trkpt lat="43.37905312442404" lon="11.926536119004398"><ele>814.0</ele><time>2026-04-18T16:42:03.999Z</time></trkpt><trkpt lat="43.37903821065032" lon="11.926422926117304"><ele>816.3333333333333</ele><time>2026-04-18T16:42:07.999Z</time></trkpt><trkpt lat="43.379027857687404" lon="11.926313442678165"><ele>818.6666666666666</ele><time>2026-04-18T16:42:13Z</time></trkpt><trkpt lat="43.379016833894426" lon="11.92622447903158"><ele>821.0</ele><time>2026-04-18T16:42:16Z</time></trkpt><trkpt lat="43.37902487724692" lon="11.926135145994524"><ele>823.3333333333333</ele><time>2026-04-18T16:42:19Z</time></trkpt><trkpt lat="43.379048814594796" lon="11.926019064892099"><ele>825.6666666666666</ele><time>2026-04-18T16:42:23Z</time></trkpt><trkpt lat="43.37907379196663" lon="11.925916422732657"><ele>828.0</ele><time>2026-04-18T16:42:26Z</time></trkpt><trkpt lat="43.37909774458858" lon="11.925821653569473"><ele>828.4285714285714</ele><time>2026-04-18T16:42:29Z</time></trkpt><trkpt lat="43.37911090101544" lon="11.925729599055394"><ele>828.8571428571429</ele><time>2026-04-18T16:42:32Z</time></trkpt><trkpt lat="43.37913483132917" lon="11.925647916224236"><ele>829.2857142857142</ele><time>2026-04-18T16:42:37Z</time></trkpt><trkpt lat="43.379152952176625" lon="11.925563040054238"><ele>829.7142857142858</ele><time>2026-04-18T16:42:44Z</time></trkpt><trkpt lat="43.37919220968205" lon="11.92545998517569"><ele>830.1428571428571</ele><time>2026-04-18T16:42:48Z</time></trkpt><trkpt lat="43.379241633927336" lon="11.925395830289435"><ele>830.5714285714286</ele><time>2026-04-18T16:42:51Z</time></trkpt><trkpt lat="43.37929691996257" lon="11.925352671463695"><ele>831.0</ele><time>2026-04-18T16:42:54Z</time></trkpt><trkpt lat="43.379369004057956" lon="11.92529901715597"><ele>831.0</ele><time>2026-04-18T16:42:57Z</time></trkpt><trkpt lat="43.37944684827821" lon="11.925306045798681"><ele>831.0</ele><time>2026-04-18T16:42:59Z</time></trkpt><trkpt lat="43.37951954806239" lon="11.925309568219115"><ele>831.0</ele><time>2026-04-18T16:43:01Z</time></trkpt><trkpt lat="43.37960102752399" lon="11.925293144115408"><ele>831.0</ele><time>2026-04-18T16:43:03Z</time></trkpt><trkpt lat="43.37968208089664" lon="11.925261988438917"><ele>831.0</ele><time>2026-04-18T16:43:06Z</time></trkpt><trkpt lat="43.3797615341547" lon="11.9252458296684"><ele>831.0</ele><time>2026-04-18T16:43:08Z</time></trkpt><trkpt lat="43.37984593848733" lon="11.925219385493316"><ele>830.8333333333334</ele><time>2026-04-18T16:43:10Z</time></trkpt><trkpt lat="43.37991298067913" lon="11.925164018638572"><ele>830.6666666666667</ele><time>2026-04-18T16:43:12Z</time></trkpt><trkpt lat="43.37998900779104" lon="11.925140206483956"><ele>830.5</ele><time>2026-04-18T16:43:14Z</time></trkpt><trkpt lat="43.380078242453436" lon="11.925115014537315"><ele>830.3333333333334</ele><time>2026-04-18T16:43:16Z</time></trkpt><trkpt lat="43.38015857461924" lon="11.925082067207898"><ele>830.1666666666667</ele><time>2026-04-18T16:43:18Z</time></trkpt><trkpt lat="43.3802241614497" lon="11.925040832089055"><ele>830.0</ele><time>2026-04-18T16:43:20Z</time></trkpt><trkpt lat="43.380306922012146" lon="11.924976255512894"><ele>830.0000000000001</ele><time>2026-04-18T16:43:22Z</time></trkpt><trkpt lat="43.380380028068174" lon="11.924920044892303"><ele>830.0</ele><time>2026-04-18T16:43:24Z</time></trkpt><trkpt lat="43.38044633673979" lon="11.92488650497359"><ele>830.0</ele><time>2026-04-18T16:43:26Z</time></trkpt><trkpt lat="43.38050087139678" lon="11.924827910653658"><ele>830.0</ele><time>2026-04-18T16:43:28Z</time></trkpt><trkpt lat="43.38058932660066" lon="11.924740776221457"><ele>830.0000000000001</ele><time>2026-04-18T16:43:30Z</time></trkpt><trkpt lat="43.38065130266187" lon="11.924695603773737"><ele>830.0</ele><time>2026-04-18T16:43:31Z</time></trkpt><trkpt lat="43.38071922512349" lon="11.924618833581373"><ele>831.25</ele><time>2026-04-18T16:43:34Z</time></trkpt><trkpt lat="43.38077689004942" lon="11.924517090784699"><ele>832.5</ele><time>2026-04-18T16:43:37Z</time></trkpt><trkpt lat="43.380950569967816" lon="11.92428326632162"><ele>833.75</ele><time>2026-04-18T16:43:40Z</time></trkpt><trkpt lat="43.38100808715891" lon="11.924190830732861"><ele>835.0</ele><time>2026-04-18T16:43:42Z</time></trkpt><trkpt lat="43.38104571383308" lon="11.924112300289536"><ele>832.1666666666666</ele><time>2026-04-18T16:43:44Z</time></trkpt><trkpt lat="43.38110142711488" lon="11.924030779119114"><ele>829.3333333333333</ele><time>2026-04-18T16:43:47Z</time></trkpt><trkpt lat="43.38113459621794" lon="11.923955264902308"><ele>826.5</ele><time>2026-04-18T16:43:49Z</time></trkpt><trkpt lat="43.38117287490666" lon="11.92386694962072"><ele>823.6666666666667</ele><time>2026-04-18T16:43:51Z</time></trkpt><trkpt lat="43.38121154348193" lon="11.923792075182213"><ele>820.8333333333334</ele><time>2026-04-18T16:43:54Z</time></trkpt><trkpt lat="43.38126723397326" lon="11.923715881421845"><ele>818.0</ele><time>2026-04-18T16:43:56Z</time></trkpt><trkpt lat="43.38133237539923" lon="11.923632938848005"><ele>816.8</ele><time>2026-04-18T16:43:58Z</time></trkpt><trkpt lat="43.381386712053754" lon="11.923506576581948"><ele>815.5999999999999</ele><time>2026-04-18T16:44:00Z</time></trkpt><trkpt lat="43.38144181967262" lon="11.923395013958565"><ele>814.4000000000001</ele><time>2026-04-18T16:44:02Z</time></trkpt><trkpt lat="43.381511695871495" lon="11.923300604289594"><ele>813.2</ele><time>2026-04-18T16:44:04Z</time></trkpt><trkpt lat="43.38158817294185" lon="11.92321658881947"><ele>812.0</ele><time>2026-04-18T16:44:06Z</time></trkpt><trkpt lat="43.38163789736028" lon="11.923123605932672"><ele>812.0000000000001</ele><time>2026-04-18T16:44:08Z</time></trkpt><trkpt lat="43.3817029085895" lon="11.923071341354996"><ele>812.0</ele><time>2026-04-18T16:44:10Z</time></trkpt><trkpt lat="43.38175975843942" lon="11.922968193620841"><ele>812.0</ele><time>2026-04-18T16:44:13Z</time></trkpt><trkpt lat="43.38181780413024" lon="11.922897187647502"><ele>812.0</ele><time>2026-04-18T16:44:15Z</time></trkpt><trkpt lat="43.38187737129695" lon="11.922834372212828"><ele>812.0000000000001</ele><time>2026-04-18T16:44:17.001Z</time></trkpt><trkpt lat="43.38192970328263" lon="11.922768466666426"><ele>812.0</ele><time>2026-04-18T16:44:19.001Z</time></trkpt><trkpt lat="43.38198790592932" lon="11.9226897862663"><ele>812.0000000000001</ele><time>2026-04-18T16:44:22.001Z</time></trkpt><trkpt lat="43.38206148453029" lon="11.922621834107671"><ele>812.0</ele><time>2026-04-18T16:44:25.001Z</time></trkpt><trkpt lat="43.38213892163075" lon="11.92260061740654"><ele>812.0</ele><time>2026-04-18T16:44:28.001Z</time></trkpt><trkpt lat="43.3821891588447" lon="11.92254048487161"><ele>812.0</ele><time>2026-04-18T16:44:29.001Z</time></trkpt><trkpt lat="43.38225365978239" lon="11.922512622539896"><ele>812.0000000000001</ele><time>2026-04-18T16:44:31.001Z</time></trkpt><trkpt lat="43.38231387998955" lon="11.922459182148337"><ele>812.0</ele><time>2026-04-18T16:44:34.001Z</time></trkpt><trkpt lat="43.38238792480566" lon="11.922407854828425"><ele>810.4285714285714</ele><time>2026-04-18T16:44:37Z</time></trkpt><trkpt lat="43.38244729683272" lon="11.922369185369993"><ele>808.8571428571429</ele><time>2026-04-18T16:44:39Z</time></trkpt><trkpt lat="43.382508759199155" lon="11.922345683155221"><ele>807.2857142857142</ele><time>2026-04-18T16:44:41Z</time></trkpt><trkpt lat="43.38257276356872" lon="11.92227423245272"><ele>805.7142857142858</ele><time>2026-04-18T16:44:44Z</time></trkpt><trkpt lat="43.38261611851635" lon="11.922210477207425"><ele>804.1428571428571</ele><time>2026-04-18T16:44:46Z</time></trkpt><trkpt lat="43.38266415520617" lon="11.92214542898743"><ele>802.5714285714286</ele><time>2026-04-18T16:44:48Z</time></trkpt><trkpt lat="43.38272188746982" lon="11.9220827513124"><ele>801.0</ele><time>2026-04-18T16:44:50Z</time></trkpt><trkpt lat="43.38274888620825" lon="11.921984610717056"><ele>801.0</ele><time>2026-04-18T16:44:54Z</time></trkpt><trkpt lat="43.38281547380741" lon="11.92190367184829"><ele>801.0</ele><time>2026-04-18T16:45:46.999Z</time></trkpt><trkpt lat="43.38283451579689" lon="11.921779610769155"><ele>801.0</ele><time>2026-04-18T16:45:50.999Z</time></trkpt><trkpt lat="43.382854363322316" lon="11.921686315297643"><ele>801.0</ele><time>2026-04-18T16:45:52.999Z</time></trkpt><trkpt lat="43.38286146144312" lon="11.921590037191278"><ele>801.0</ele><time>2026-04-18T16:45:54.999Z</time></trkpt><trkpt lat="43.382880247697116" lon="11.921475111909022"><ele>801.0</ele><time>2026-04-18T16:45:56.999Z</time></trkpt><trkpt lat="43.38287804280649" lon="11.921345325792055"><ele>799.3333333333334</ele><time>2026-04-18T16:45:58.999Z</time></trkpt><trkpt lat="43.38289453613682" lon="11.921227031260628"><ele>797.6666666666667</ele><time>2026-04-18T16:46:00.999Z</time></trkpt><trkpt lat="43.38291481009542" lon="11.92112594935553"><ele>796.0</ele><time>2026-04-18T16:46:02.999Z</time></trkpt><trkpt lat="43.38292809219169" lon="11.921001257999599"><ele>794.3333333333334</ele><time>2026-04-18T16:46:04.999Z</time></trkpt><trkpt lat="43.38293509573712" lon="11.920894985234073"><ele>792.6666666666667</ele><time>2026-04-18T16:46:06.999Z</time></trkpt><trkpt lat="43.38294570350826" lon="11.920805251347442"><ele>791.0</ele><time>2026-04-18T16:46:08.999Z</time></trkpt><trkpt lat="43.382946013207516" lon="11.920661252681878"><ele>790.1999999999999</ele><time>2026-04-18T16:46:11.999Z</time></trkpt><trkpt lat="43.382943170524996" lon="11.920539500189015"><ele>789.4</ele><time>2026-04-18T16:46:13.999Z</time></trkpt><trkpt lat="43.38292591341164" lon="11.920406698273364"><ele>788.6</ele><time>2026-04-18T16:46:15.999Z</time></trkpt><trkpt lat="43.38293252236571" lon="11.920261968698274"><ele>787.8</ele><time>2026-04-18T16:46:17.999Z</time></trkpt><trkpt lat="43.382945936684045" lon="11.920115674881641"><ele>787.0</ele><time>2026-04-18T16:46:19.999Z</time></trkpt><trkpt lat="43.38297054370292" lon="11.92001431649297"><ele>786.6</ele><time>2026-04-18T16:46:23Z</time></trkpt><trkpt lat="43.38300789214201" lon="11.919910822228262"><ele>786.2</ele><time>2026-04-18T16:46:25Z</time></trkpt><trkpt lat="43.38300954510992" lon="11.919790717759344"><ele>785.8</ele><time>2026-04-18T16:46:27Z</time></trkpt><trkpt lat="43.38302316446902" lon="11.919663547288195"><ele>785.4</ele><time>2026-04-18T16:46:29Z</time></trkpt><trkpt lat="43.38301989130379" lon="11.919535177365006"><ele>785.0</ele><time>2026-04-18T16:46:31Z</time></trkpt><trkpt lat="43.38303223530911" lon="11.919398923858832"><ele>791.6</ele><time>2026-04-18T16:46:33Z</time></trkpt><trkpt lat="43.38304446807709" lon="11.919283461606437"><ele>798.2</ele><time>2026-04-18T16:46:35Z</time></trkpt><trkpt lat="43.38307276309377" lon="11.91916025994932"><ele>804.8</ele><time>2026-04-18T16:46:37Z</time></trkpt><trkpt lat="43.38310217510508" lon="11.919035837867547"><ele>811.4</ele><time>2026-04-18T16:46:39Z</time></trkpt><trkpt lat="43.383145340873384" lon="11.918943999973688"><ele>818.0</ele><time>2026-04-18T16:46:41Z</time></trkpt><trkpt lat="43.38321932321073" lon="11.918853125987706"><ele>818.0</ele><time>2026-04-18T16:46:43Z</time></trkpt><trkpt lat="43.38331932762962" lon="11.91875742267958"><ele>818.0</ele><time>2026-04-18T16:46:44.999Z</time></trkpt><trkpt lat="43.38339768120487" lon="11.918678107079495"><ele>818.0</ele><time>2026-04-18T16:46:46.999Z</time></trkpt><trkpt lat="43.3834492487229" lon="11.91860837853615"><ele>818.0</ele><time>2026-04-18T16:46:48.999Z</time></trkpt><trkpt lat="43.383526721935645" lon="11.918550334750032"><ele>818.0</ele><time>2026-04-18T16:46:50.999Z</time></trkpt><trkpt lat="43.38362070902534" lon="11.91847396622808"><ele>818.8</ele><time>2026-04-18T16:46:52.999Z</time></trkpt><trkpt lat="43.383713211855465" lon="11.91839441507323"><ele>819.5999999999999</ele><time>2026-04-18T16:46:54.999Z</time></trkpt><trkpt lat="43.383786625852096" lon="11.918367637781895"><ele>820.4000000000001</ele><time>2026-04-18T16:46:56.999Z</time></trkpt><trkpt lat="43.38389327138073" lon="11.918381982333411"><ele>821.2</ele><time>2026-04-18T16:46:58.999Z</time></trkpt><trkpt lat="43.38399503600928" lon="11.918420118861102"><ele>822.0</ele><time>2026-04-18T16:47:00.999Z</time></trkpt><trkpt lat="43.384100669746054" lon="11.91846869168666"><ele>822.0</ele><time>2026-04-18T16:47:02.999Z</time></trkpt><trkpt lat="43.38421805937884" lon="11.9184974286791"><ele>822.0</ele><time>2026-04-18T16:47:04.999Z</time></trkpt><trkpt lat="43.3843038940765" lon="11.918488549879665"><ele>822.0</ele><time>2026-04-18T16:47:06.999Z</time></trkpt><trkpt lat="43.38441334697225" lon="11.918482460516763"><ele>822.0</ele><time>2026-04-18T16:47:08.999Z</time></trkpt><trkpt lat="43.384539769001506" lon="11.918457665661716"><ele>822.0</ele><time>2026-04-18T16:47:10.999Z</time></trkpt><trkpt lat="43.384604676634" lon="11.918447575747736"><ele>822.0</ele><time>2026-04-18T16:47:11.999Z</time></trkpt><trkpt lat="43.38467029161361" lon="11.918435724687443"><ele>822.0</ele><time>2026-04-18T16:47:12.999Z</time></trkpt><trkpt lat="43.38473497827645" lon="11.918410403960038"><ele>822.0</ele><time>2026-04-18T16:47:13.999Z</time></trkpt><trkpt lat="43.384860011806296" lon="11.918378639314366"><ele>822.0</ele><time>2026-04-18T16:47:15.999Z</time></trkpt><trkpt lat="43.38492280182871" lon="11.918357014531942"><ele>822.0</ele><time>2026-04-18T16:47:16.999Z</time></trkpt><trkpt lat="43.38499125301055" lon="11.918344848175336"><ele>822.0</ele><time>2026-04-18T16:47:17.999Z</time></trkpt><trkpt lat="43.385061888780754" lon="11.91833806961185"><ele>818.8333333333334</ele><time>2026-04-18T16:47:18.999Z</time></trkpt><trkpt lat="43.38513063029325" lon="11.918338139414155"><ele>815.6666666666667</ele><time>2026-04-18T16:47:19.999Z</time></trkpt><trkpt lat="43.385193355161405" lon="11.91832006249227"><ele>812.5</ele><time>2026-04-18T16:47:20.999Z</time></trkpt><trkpt lat="43.385319682014305" lon="11.91827960563401"><ele>809.3333333333334</ele><time>2026-04-18T16:47:22.999Z</time></trkpt><trkpt lat="43.385396136955634" lon="11.918266243087206"><ele>806.1666666666667</ele><time>2026-04-18T16:47:23.999Z</time></trkpt><trkpt lat="43.385475179101114" lon="11.918253362509981"><ele>803.0</ele><time>2026-04-18T16:47:25.999Z</time></trkpt><trkpt lat="43.385554931484634" lon="11.918230030838354"><ele>802.5000000000001</ele><time>2026-04-18T16:47:28.999Z</time></trkpt><trkpt lat="43.385633359300456" lon="11.918144418946378"><ele>802.0</ele><time>2026-04-18T16:47:31.999Z</time></trkpt><trkpt lat="43.38573291550925" lon="11.918024552948923"><ele>801.5</ele><time>2026-04-18T16:47:33.999Z</time></trkpt><trkpt lat="43.38577738148168" lon="11.917952999765287"><ele>801.0</ele><time>2026-04-18T16:47:34.999Z</time></trkpt><trkpt lat="43.385822699450515" lon="11.917886867060181"><ele>800.5000000000001</ele><time>2026-04-18T16:47:35.999Z</time></trkpt><trkpt lat="43.38586990121027" lon="11.917823869320692"><ele>800.0</ele><time>2026-04-18T16:47:36.999Z</time></trkpt><trkpt lat="43.385960233286426" lon="11.917723232557659"><ele>800.0</ele><time>2026-04-18T16:47:38.999Z</time></trkpt><trkpt lat="43.38604280180495" lon="11.9176568057281"><ele>800.0</ele><time>2026-04-18T16:47:40.999Z</time></trkpt><trkpt lat="43.38614391798671" lon="11.91758430028371"><ele>800.0</ele><time>2026-04-18T16:47:42.999Z</time></trkpt><trkpt lat="43.3862315306568" lon="11.91748050534061"><ele>800.0</ele><time>2026-04-18T16:47:44.999Z</time></trkpt><trkpt lat="43.386319028116375" lon="11.917361432190422"><ele>800.0</ele><time>2026-04-18T16:47:46.999Z</time></trkpt><trkpt lat="43.38641363886835" lon="11.9172699832069"><ele>799.0000000000001</ele><time>2026-04-18T16:47:48.999Z</time></trkpt><trkpt lat="43.38647612792739" lon="11.917226617261251"><ele>798.0</ele><time>2026-04-18T16:47:49.999Z</time></trkpt><trkpt lat="43.386529682235064" lon="11.91715497698632"><ele>797.0</ele><time>2026-04-18T16:47:51.999Z</time></trkpt><trkpt lat="43.38655485491931" lon="11.917028429478698"><ele>796.0</ele><time>2026-04-18T16:47:54.999Z</time></trkpt><trkpt lat="43.38661198218851" lon="11.916959103834095"><ele>795.0000000000001</ele><time>2026-04-18T16:47:57.999Z</time></trkpt><trkpt lat="43.38668716697204" lon="11.916941774484222"><ele>794.0</ele><time>2026-04-18T16:48:01.999Z</time></trkpt><trkpt lat="43.38677213783763" lon="11.916872233516612"><ele>794.0000000000001</ele><time>2026-04-18T16:48:03.999Z</time></trkpt><trkpt lat="43.386813779816435" lon="11.916804747329424"><ele>794.0</ele><time>2026-04-18T16:48:05.999Z</time></trkpt><trkpt lat="43.38676879668744" lon="11.916686788624519"><ele>794.0</ele><time>2026-04-18T16:48:08.999Z</time></trkpt><trkpt lat="43.38676281311323" lon="11.916575786587737"><ele>794.0</ele><time>2026-04-18T16:48:11.999Z</time></trkpt><trkpt lat="43.386744259430685" lon="11.916482546062579"><ele>794.0000000000001</ele><time>2026-04-18T16:48:14.999Z</time></trkpt><trkpt lat="43.386724207576705" lon="11.916340303027122"><ele>794.0</ele><time>2026-04-18T16:48:17.999Z</time></trkpt><trkpt lat="43.386735939235244" lon="11.916209555539066"><ele>793.4000000000001</ele><time>2026-04-18T16:48:19.999Z</time></trkpt><trkpt lat="43.38679137121686" lon="11.916117633697166"><ele>792.8</ele><time>2026-04-18T16:48:21.999Z</time></trkpt><trkpt lat="43.38688300921233" lon="11.916160875725305"><ele>792.2</ele><time>2026-04-18T16:48:24.999Z</time></trkpt><trkpt lat="43.38697216230424" lon="11.916151576256645"><ele>791.5999999999999</ele><time>2026-04-18T16:48:26.999Z</time></trkpt><trkpt lat="43.387065312168396" lon="11.916093253945887"><ele>791.0</ele><time>2026-04-18T16:48:29Z</time></trkpt><trkpt lat="43.38715474438261" lon="11.915996243904223"><ele>792.0000000000001</ele><time>2026-04-18T16:48:31Z</time></trkpt><trkpt lat="43.38718580441656" lon="11.915892560938529"><ele>793.0</ele><time>2026-04-18T16:48:33Z</time></trkpt><trkpt lat="43.38721297361159" lon="11.915791279024544"><ele>794.0</ele><time>2026-04-18T16:48:35Z</time></trkpt><trkpt lat="43.3872594535998" lon="11.915704981209895"><ele>795.0</ele><time>2026-04-18T16:48:38Z</time></trkpt><trkpt lat="43.38732583261499" lon="11.91560158450632"><ele>796.0000000000001</ele><time>2026-04-18T16:48:40Z</time></trkpt><trkpt lat="43.38737774446185" lon="11.915544099321163"><ele>797.0</ele><time>2026-04-18T16:48:41Z</time></trkpt><trkpt lat="43.38742853135246" lon="11.915489540510782"><ele>797.0000000000001</ele><time>2026-04-18T16:48:42Z</time></trkpt><trkpt lat="43.38749676239575" lon="11.915406975203105"><ele>797.0</ele><time>2026-04-18T16:48:44Z</time></trkpt><trkpt lat="43.387538580944806" lon="11.91531311034764"><ele>797.0</ele><time>2026-04-18T16:48:46Z</time></trkpt><trkpt lat="43.38754363168496" lon="11.915221372491192"><ele>797.0</ele><time>2026-04-18T16:48:47Z</time></trkpt><trkpt lat="43.38758806782312" lon="11.915071166894853"><ele>797.0000000000001</ele><time>2026-04-18T16:48:49Z</time></trkpt><trkpt lat="43.38761228159995" lon="11.914989040343343"><ele>797.0</ele><time>2026-04-18T16:48:50Z</time></trkpt><trkpt lat="43.38762599218621" lon="11.914903774690703"><ele>795.6</ele><time>2026-04-18T16:48:51Z</time></trkpt><trkpt lat="43.387627872590386" lon="11.91474100125011"><ele>794.2</ele><time>2026-04-18T16:48:53Z</time></trkpt><trkpt lat="43.38762917595185" lon="11.914606372428938"><ele>792.8</ele><time>2026-04-18T16:48:55Z</time></trkpt><trkpt lat="43.38764031124503" lon="11.914515878006032"><ele>791.4</ele><time>2026-04-18T16:48:56Z</time></trkpt><trkpt lat="43.38766030436273" lon="11.914357523458655"><ele>790.0</ele><time>2026-04-18T16:48:58Z</time></trkpt><trkpt lat="43.38768480783095" lon="11.914266933818073"><ele>788.8333333333333</ele><time>2026-04-18T16:48:59Z</time></trkpt><trkpt lat="43.387720348189745" lon="11.914169375978739"><ele>787.6666666666666</ele><time>2026-04-18T16:49:00Z</time></trkpt><trkpt lat="43.387768541975035" lon="11.914084156811848"><ele>786.5</ele><time>2026-04-18T16:49:01Z</time></trkpt><trkpt lat="43.38782733500091" lon="11.914012504901416"><ele>785.3333333333333</ele><time>2026-04-18T16:49:02Z</time></trkpt><trkpt lat="43.387880569881595" lon="11.913953098914947"><ele>784.1666666666666</ele><time>2026-04-18T16:49:03Z</time></trkpt><trkpt lat="43.38793848319655" lon="11.913907371326442"><ele>783.0</ele><time>2026-04-18T16:49:04Z</time></trkpt><trkpt lat="43.388031657688096" lon="11.913845280273879"><ele>788.1666666666666</ele><time>2026-04-18T16:49:05.999Z</time></trkpt><trkpt lat="43.388082937281" lon="11.913757316436227"><ele>793.3333333333333</ele><time>2026-04-18T16:49:07.999Z</time></trkpt><trkpt lat="43.38808123445634" lon="11.913652200684966"><ele>798.5</ele><time>2026-04-18T16:49:09.999Z</time></trkpt><trkpt lat="43.388078295058044" lon="11.913556312165564"><ele>803.6666666666666</ele><time>2026-04-18T16:49:11.999Z</time></trkpt><trkpt lat="43.388050093650435" lon="11.913476060753089"><ele>808.8333333333333</ele><time>2026-04-18T16:49:14.999Z</time></trkpt><trkpt lat="43.38804200298095" lon="11.913347402087853"><ele>814.0</ele><time>2026-04-18T16:49:17.999Z</time></trkpt><trkpt lat="43.38801365878004" lon="11.913256889949338"><ele>807.1666666666666</ele><time>2026-04-18T16:49:20.999Z</time></trkpt><trkpt lat="43.387999820992974" lon="11.913153066228064"><ele>800.3333333333333</ele><time>2026-04-18T16:49:22.999Z</time></trkpt><trkpt lat="43.387975510232685" lon="11.913061369920229"><ele>793.5</ele><time>2026-04-18T16:49:24.999Z</time></trkpt><trkpt lat="43.38794363020991" lon="11.912962856579759"><ele>786.6666666666667</ele><time>2026-04-18T16:49:26.999Z</time></trkpt><trkpt lat="43.38792152063796" lon="11.912864005082078"><ele>779.8333333333334</ele><time>2026-04-18T16:49:28.999Z</time></trkpt><trkpt lat="43.3879014158067" lon="11.912766618633587"><ele>773.0</ele><time>2026-04-18T16:49:30.999Z</time></trkpt><trkpt lat="43.38786767693886" lon="11.912670669762587"><ele>773.0</ele><time>2026-04-18T16:49:32.999Z</time></trkpt><trkpt lat="43.38785126358344" lon="11.912574520377493"><ele>773.0</ele><time>2026-04-18T16:49:33.999Z</time></trkpt><trkpt lat="43.387832418873785" lon="11.912476864722008"><ele>773.0</ele><time>2026-04-18T16:49:34.999Z</time></trkpt><trkpt lat="43.3878162466135" lon="11.912307615791496"><ele>773.0</ele><time>2026-04-18T16:49:36.999Z</time></trkpt><trkpt lat="43.38784431660592" lon="11.912175433793466"><ele>773.0</ele><time>2026-04-18T16:49:38.999Z</time></trkpt><trkpt lat="43.38786632001994" lon="11.91202677111944"><ele>773.5999999999999</ele><time>2026-04-18T16:49:40.999Z</time></trkpt><trkpt lat="43.38789447314318" lon="11.911858280866854"><ele>774.1999999999999</ele><time>2026-04-18T16:49:42.999Z</time></trkpt><trkpt lat="43.38794519282656" lon="11.911722973665778"><ele>774.8</ele><time>2026-04-18T16:49:44.999Z</time></trkpt><trkpt lat="43.38803017006664" lon="11.911642818341802"><ele>775.4</ele><time>2026-04-18T16:49:46.999Z</time></trkpt><trkpt lat="43.38809341251061" lon="11.911616505595596"><ele>776.0</ele><time>2026-04-18T16:49:47.999Z</time></trkpt><trkpt lat="43.38820535471346" lon="11.911582179396024"><ele>781.8</ele><time>2026-04-18T16:49:49.999Z</time></trkpt><trkpt lat="43.38831069850454" lon="11.91154307358973"><ele>787.5999999999999</ele><time>2026-04-18T16:49:51.999Z</time></trkpt><trkpt lat="43.388425825258686" lon="11.911478802258578"><ele>793.4</ele><time>2026-04-18T16:49:53.999Z</time></trkpt><trkpt lat="43.388475942110254" lon="11.911421114024357"><ele>799.2</ele><time>2026-04-18T16:49:54.999Z</time></trkpt><trkpt lat="43.38856680499486" lon="11.911329284133263"><ele>805.0</ele><time>2026-04-18T16:49:56.999Z</time></trkpt><trkpt lat="43.38863929887829" lon="11.91128631590642"><ele>805.0</ele><time>2026-04-18T16:49:58.999Z</time></trkpt><trkpt lat="43.38870865794867" lon="11.91121281402914"><ele>805.0</ele><time>2026-04-18T16:50:02.999Z</time></trkpt><trkpt lat="43.38879405755664" lon="11.91113184164511"><ele>805.0</ele><time>2026-04-18T16:50:04.999Z</time></trkpt><trkpt lat="43.38889006635222" lon="11.911072698917732"><ele>805.0</ele><time>2026-04-18T16:50:06.999Z</time></trkpt><trkpt lat="43.38895026092946" lon="11.911045457350074"><ele>805.0</ele><time>2026-04-18T16:50:08.999Z</time></trkpt><trkpt lat="43.38906011806991" lon="11.911006336506803"><ele>804.0</ele><time>2026-04-18T16:50:10.999Z</time></trkpt><trkpt lat="43.38917099349295" lon="11.910940014422646"><ele>803.0</ele><time>2026-04-18T16:50:12.999Z</time></trkpt><trkpt lat="43.38928559303692" lon="11.910910598562813"><ele>802.0</ele><time>2026-04-18T16:50:14.999Z</time></trkpt><trkpt lat="43.389349731164884" lon="11.910896037028907"><ele>801.0</ele><time>2026-04-18T16:50:15.999Z</time></trkpt><trkpt lat="43.38947198492682" lon="11.910860206195192"><ele>800.0</ele><time>2026-04-18T16:50:17.999Z</time></trkpt><trkpt lat="43.38957763147764" lon="11.910865758718924"><ele>800.0000000000001</ele><time>2026-04-18T16:50:19.999Z</time></trkpt><trkpt lat="43.38963190052968" lon="11.910815178881748"><ele>800.0</ele><time>2026-04-18T16:50:21.999Z</time></trkpt><trkpt lat="43.38971442476495" lon="11.910738882024866"><ele>800.0</ele><time>2026-04-18T16:50:23.999Z</time></trkpt><trkpt lat="43.38976194514915" lon="11.910609923032187"><ele>800.0</ele><time>2026-04-18T16:50:25.999Z</time></trkpt><trkpt lat="43.389780920395786" lon="11.910496507053626"><ele>800.0000000000001</ele><time>2026-04-18T16:50:27.999Z</time></trkpt><trkpt lat="43.389761556244665" lon="11.910406343019124"><ele>800.0</ele><time>2026-04-18T16:50:29.999Z</time></trkpt><trkpt lat="43.38976912411254" lon="11.910293850184237"><ele>800.8333333333334</ele><time>2026-04-18T16:50:34Z</time></trkpt><trkpt lat="43.38980943688594" lon="11.910185762216845"><ele>801.6666666666667</ele><time>2026-04-18T16:50:39Z</time></trkpt><trkpt lat="43.389829347894704" lon="11.91008693611226"><ele>802.5</ele><time>2026-04-18T16:50:42Z</time></trkpt><trkpt lat="43.38982358830621" lon="11.909992140464217"><ele>803.3333333333333</ele><time>2026-04-18T16:50:45Z</time></trkpt><trkpt lat="43.38988224801794" lon="11.909924238213831"><ele>804.1666666666666</ele><time>2026-04-18T16:50:50Z</time></trkpt><trkpt lat="43.38989454756958" lon="11.909826377274571"><ele>805.0</ele><time>2026-04-18T16:50:55Z</time></trkpt><trkpt lat="43.389903793204525" lon="11.909731405697679"><ele>806.1666666666666</ele><time>2026-04-18T16:50:59Z</time></trkpt><trkpt lat="43.38991834270184" lon="11.909626457823643"><ele>807.3333333333333</ele><time>2026-04-18T16:51:03Z</time></trkpt><trkpt lat="43.38994832082106" lon="11.909529594189067"><ele>808.5</ele><time>2026-04-18T16:51:07Z</time></trkpt><trkpt lat="43.389972895888626" lon="11.909414155904429"><ele>809.6666666666667</ele><time>2026-04-18T16:51:12Z</time></trkpt><trkpt lat="43.38998330224032" lon="11.90931364034564"><ele>810.8333333333334</ele><time>2026-04-18T16:51:16Z</time></trkpt><trkpt lat="43.38999291831021" lon="11.909223062157944"><ele>812.0</ele><time>2026-04-18T16:51:19Z</time></trkpt><trkpt lat="43.39000364672536" lon="11.90912747366425"><ele>813.8571428571429</ele><time>2026-04-18T16:51:21.999Z</time></trkpt><trkpt lat="43.389996178859185" lon="11.909018597586666"><ele>815.7142857142858</ele><time>2026-04-18T16:51:25.999Z</time></trkpt><trkpt lat="43.389996100078655" lon="11.908929229372074"><ele>817.5714285714286</ele><time>2026-04-18T16:51:28.999Z</time></trkpt><trkpt lat="43.39001571303661" lon="11.908834372456885"><ele>819.4285714285714</ele><time>2026-04-18T16:51:30.999Z</time></trkpt><trkpt lat="43.390026856253996" lon="11.908722635908958"><ele>821.2857142857143</ele><time>2026-04-18T16:51:33.999Z</time></trkpt><trkpt lat="43.39001231181124" lon="11.908632181284291"><ele>823.1428571428571</ele><time>2026-04-18T16:51:35.999Z</time></trkpt><trkpt lat="43.39001758346304" lon="11.90853185724426"><ele>825.0</ele><time>2026-04-18T16:51:38.999Z</time></trkpt><trkpt lat="43.390022644246265" lon="11.908429440130329"><ele>826.8333333333334</ele><time>2026-04-18T16:51:41.999Z</time></trkpt><trkpt lat="43.39004140424163" lon="11.908320930012891"><ele>828.6666666666667</ele><time>2026-04-18T16:51:44.999Z</time></trkpt><trkpt lat="43.39005624004516" lon="11.908207781406665"><ele>830.5</ele><time>2026-04-18T16:51:47.999Z</time></trkpt><trkpt lat="43.39007321902245" lon="11.908122130094725"><ele>832.3333333333334</ele><time>2026-04-18T16:51:49.999Z</time></trkpt><trkpt lat="43.390093317037646" lon="11.907992104646741"><ele>834.1666666666667</ele><time>2026-04-18T16:51:51.999Z</time></trkpt><trkpt lat="43.39013343497381" lon="11.907861369972633"><ele>836.0</ele><time>2026-04-18T16:51:54.999Z</time></trkpt><trkpt lat="43.39016374663022" lon="11.907745915655727"><ele>836.0000000000001</ele><time>2026-04-18T16:51:56.999Z</time></trkpt><trkpt lat="43.39020298354612" lon="11.907640241630608"><ele>836.0</ele><time>2026-04-18T16:51:58.999Z</time></trkpt><trkpt lat="43.390249865951894" lon="11.907522335614352"><ele>836.0</ele><time>2026-04-18T16:52:00.999Z</time></trkpt><trkpt lat="43.39027032066188" lon="11.907422639676296"><ele>836.0</ele><time>2026-04-18T16:52:02.999Z</time></trkpt><trkpt lat="43.39029766446927" lon="11.907321604111416"><ele>836.0000000000001</ele><time>2026-04-18T16:52:04.999Z</time></trkpt><trkpt lat="43.39031558624123" lon="11.907207550346913"><ele>836.0</ele><time>2026-04-18T16:52:06.999Z</time></trkpt><trkpt lat="43.390335078333344" lon="11.907111589406883"><ele>836.0</ele><time>2026-04-18T16:52:08.999Z</time></trkpt><trkpt lat="43.39036395678463" lon="11.907014847324742"><ele>836.0</ele><time>2026-04-18T16:52:11.999Z</time></trkpt><trkpt lat="43.39039206116861" lon="11.906910665383649"><ele>836.0</ele><time>2026-04-18T16:52:14.999Z</time></trkpt><trkpt lat="43.390427538431496" lon="11.906831715446886"><ele>836.0</ele><time>2026-04-18T16:52:17.999Z</time></trkpt><trkpt lat="43.390451074487814" lon="11.906715849709661"><ele>836.0</ele><time>2026-04-18T16:52:20.999Z</time></trkpt><trkpt lat="43.390479145346795" lon="11.906630756255506"><ele>836.0</ele><time>2026-04-18T16:52:22.999Z</time></trkpt><trkpt lat="43.39051789300944" lon="11.906557873753279"><ele>836.0</ele><time>2026-04-18T16:52:24.999Z</time></trkpt><trkpt lat="43.390570135513954" lon="11.906468155012773"><ele>833.6666666666667</ele><time>2026-04-18T16:52:27.999Z</time></trkpt><trkpt lat="43.3906273462225" lon="11.906387806947029"><ele>831.3333333333334</ele><time>2026-04-18T16:52:30.999Z</time></trkpt><trkpt lat="43.39067246351144" lon="11.906308053687553"><ele>829.0</ele><time>2026-04-18T16:52:33.999Z</time></trkpt><trkpt lat="43.39073683899415" lon="11.906261249433518"><ele>826.6666666666667</ele><time>2026-04-18T16:52:36.999Z</time></trkpt><trkpt lat="43.39081765274183" lon="11.906200565033393"><ele>824.3333333333334</ele><time>2026-04-18T16:52:41Z</time></trkpt><trkpt lat="43.390888964395046" lon="11.906158390145091"><ele>822.0</ele><time>2026-04-18T16:52:45Z</time></trkpt><trkpt lat="43.3909427691608" lon="11.906082687026682"><ele>822.0</ele><time>2026-04-18T16:52:48Z</time></trkpt><trkpt lat="43.391014621321425" lon="11.906039484472556"><ele>822.0</ele><time>2026-04-18T16:52:51Z</time></trkpt><trkpt lat="43.39110017515113" lon="11.905997403926985"><ele>822.0</ele><time>2026-04-18T16:52:54Z</time></trkpt><trkpt lat="43.39118586559257" lon="11.905943541027986"><ele>822.0</ele><time>2026-04-18T16:52:56Z</time></trkpt><trkpt lat="43.39126865300943" lon="11.905911017006915"><ele>822.0</ele><time>2026-04-18T16:52:58Z</time></trkpt><trkpt lat="43.39136608220705" lon="11.905871904053088"><ele>817.8</ele><time>2026-04-18T16:53:00Z</time></trkpt><trkpt lat="43.39146159983905" lon="11.905825661067993"><ele>813.6</ele><time>2026-04-18T16:53:02Z</time></trkpt><trkpt lat="43.39155632125399" lon="11.905719669469494"><ele>809.4</ele><time>2026-04-18T16:53:04Z</time></trkpt><trkpt lat="43.391618655434385" lon="11.905623419588625"><ele>805.1999999999999</ele><time>2026-04-18T16:53:06Z</time></trkpt><trkpt lat="43.39167856426744" lon="11.905570298175244"><ele>801.0</ele><time>2026-04-18T16:53:09Z</time></trkpt><trkpt lat="43.39173272342937" lon="11.905478490627244"><ele>801.0</ele><time>2026-04-18T16:53:12Z</time></trkpt><trkpt lat="43.39185603237211" lon="11.905265372572877"><ele>801.0</ele><time>2026-04-18T16:53:15Z</time></trkpt><trkpt lat="43.39192241902609" lon="11.905157294960482"><ele>801.0</ele><time>2026-04-18T16:53:17Z</time></trkpt><trkpt lat="43.391988975228784" lon="11.90507474333938"><ele>801.0</ele><time>2026-04-18T16:53:19Z</time></trkpt><trkpt lat="43.39206828073626" lon="11.904995013078521"><ele>800.6666666666666</ele><time>2026-04-18T16:53:21Z</time></trkpt><trkpt lat="43.3921245656407" lon="11.904937241193071"><ele>800.3333333333333</ele><time>2026-04-18T16:53:22Z</time></trkpt><trkpt lat="43.39218650164103" lon="11.904903985274524"><ele>800.0</ele><time>2026-04-18T16:53:23Z</time></trkpt><trkpt lat="43.39229985343746" lon="11.904881163255663"><ele>799.6666666666666</ele><time>2026-04-18T16:53:25Z</time></trkpt><trkpt lat="43.39241699065372" lon="11.904901539168995"><ele>799.3333333333333</ele><time>2026-04-18T16:53:27Z</time></trkpt><trkpt lat="43.3924780919453" lon="11.904930698282957"><ele>799.0</ele><time>2026-04-18T16:53:29Z</time></trkpt><trkpt lat="43.392533648051675" lon="11.904992318455587"><ele>798.9999999999999</ele><time>2026-04-18T16:53:31Z</time></trkpt><trkpt lat="43.39261163220624" lon="11.905019953705759"><ele>799.0</ele><time>2026-04-18T16:53:33Z</time></trkpt><trkpt lat="43.392712043418136" lon="11.905131759667686"><ele>799.0</ele><time>2026-04-18T16:53:35Z</time></trkpt><trkpt lat="43.39276629490624" lon="11.905180944835577"><ele>799.0</ele><time>2026-04-18T16:53:36Z</time></trkpt><trkpt lat="43.39283520592429" lon="11.905198153331305"><ele>798.9999999999999</ele><time>2026-04-18T16:53:37Z</time></trkpt><trkpt lat="43.392898731823685" lon="11.905243375800664"><ele>799.0</ele><time>2026-04-18T16:53:39.999Z</time></trkpt><trkpt lat="43.39295954158416" lon="11.905295957024771"><ele>798.8000000000001</ele><time>2026-04-18T16:53:42.999Z</time></trkpt><trkpt lat="43.3930328439135" lon="11.905348463915896"><ele>798.6</ele><time>2026-04-18T16:53:44.999Z</time></trkpt><trkpt lat="43.393124873904185" lon="11.905402361707866"><ele>798.4</ele><time>2026-04-18T16:53:46.999Z</time></trkpt><trkpt lat="43.39321197798724" lon="11.905470559727567"><ele>798.2</ele><time>2026-04-18T16:53:48.999Z</time></trkpt><trkpt lat="43.393293195900014" lon="11.905466593615483"><ele>798.0</ele><time>2026-04-18T16:53:50.999Z</time></trkpt><trkpt lat="43.39340568843124" lon="11.90548908828648"><ele>798.0</ele><time>2026-04-18T16:53:52.999Z</time></trkpt><trkpt lat="43.39350540349072" lon="11.90554327856249"><ele>798.0</ele><time>2026-04-18T16:53:54.999Z</time></trkpt><trkpt lat="43.39359771624348" lon="11.905588321090976"><ele>798.0</ele><time>2026-04-18T16:53:56.999Z</time></trkpt><trkpt lat="43.393675751378495" lon="11.90561130643522"><ele>798.0</ele><time>2026-04-18T16:53:58.999Z</time></trkpt><trkpt lat="43.39376709171073" lon="11.905643676804184"><ele>798.0</ele><time>2026-04-18T16:54:00.999Z</time></trkpt><trkpt lat="43.393865944810024" lon="11.905695847062864"><ele>798.4</ele><time>2026-04-18T16:54:02.999Z</time></trkpt><trkpt lat="43.39392585151582" lon="11.90572291970354"><ele>798.8</ele><time>2026-04-18T16:54:03.999Z</time></trkpt><trkpt lat="43.39403113682192" lon="11.905803992228055"><ele>799.2</ele><time>2026-04-18T16:54:05.999Z</time></trkpt><trkpt lat="43.39413204766056" lon="11.905882314126936"><ele>799.6</ele><time>2026-04-18T16:54:07.999Z</time></trkpt><trkpt lat="43.39424063790287" lon="11.905962299669154"><ele>800.0</ele><time>2026-04-18T16:54:09.999Z</time></trkpt><trkpt lat="43.39434437281915" lon="11.906020649974037"><ele>798.2857142857143</ele><time>2026-04-18T16:54:11.999Z</time></trkpt><trkpt lat="43.39440390504401" lon="11.906076233857315"><ele>796.5714285714286</ele><time>2026-04-18T16:54:12.999Z</time></trkpt><trkpt lat="43.39445391323002" lon="11.906134518504867"><ele>794.8571428571429</ele><time>2026-04-18T16:54:13.999Z</time></trkpt><trkpt lat="43.39451186262415" lon="11.906175699758066"><ele>793.1428571428571</ele><time>2026-04-18T16:54:14.999Z</time></trkpt><trkpt lat="43.394574842873446" lon="11.906188388112644"><ele>791.4285714285714</ele><time>2026-04-18T16:54:15.999Z</time></trkpt><trkpt lat="43.3946701740722" lon="11.906212286297848"><ele>789.7142857142858</ele><time>2026-04-18T16:54:17.999Z</time></trkpt><trkpt lat="43.394742434676196" lon="11.906236141026575"><ele>788.0</ele><time>2026-04-18T16:54:19.999Z</time></trkpt><trkpt lat="43.39479908494491" lon="11.906283867812716"><ele>788.0000000000001</ele><time>2026-04-18T16:54:21.999Z</time></trkpt><trkpt lat="43.3948591121239" lon="11.906332793077738"><ele>788.0</ele><time>2026-04-18T16:54:23.999Z</time></trkpt><trkpt lat="43.394927852113796" lon="11.906348069648391"><ele>788.0</ele><time>2026-04-18T16:54:25.999Z</time></trkpt><trkpt lat="43.39500796002603" lon="11.906369855914013"><ele>788.0</ele><time>2026-04-18T16:54:28.999Z</time></trkpt><trkpt lat="43.39509290297942" lon="11.90639911601848"><ele>788.0000000000001</ele><time>2026-04-18T16:54:31.999Z</time></trkpt><trkpt lat="43.395160557808936" lon="11.90630564177515"><ele>788.0</ele><time>2026-04-18T16:54:34.999Z</time></trkpt><trkpt lat="43.39519993777334" lon="11.906205614122351"><ele>788.0</ele><time>2026-04-18T16:54:37.999Z</time></trkpt><trkpt lat="43.395239643007095" lon="11.90612682776176"><ele>788.0</ele><time>2026-04-18T16:55:47Z</time></trkpt><trkpt lat="43.39526533277789" lon="11.906007116965219"><ele>788.0</ele><time>2026-04-18T16:55:57.999Z</time></trkpt><trkpt lat="43.395280818382744" lon="11.905922440869642"><ele>788.0</ele><time>2026-04-18T16:55:59.999Z</time></trkpt><trkpt lat="43.395281880117615" lon="11.905830292406465"><ele>788.0</ele><time>2026-04-18T16:56:01.999Z</time></trkpt><trkpt lat="43.39528925994395" lon="11.90573828126588"><ele>788.0</ele><time>2026-04-18T16:56:03.999Z</time></trkpt><trkpt lat="43.395312743892525" lon="11.905644078932522"><ele>788.0</ele><time>2026-04-18T16:56:05.999Z</time></trkpt><trkpt lat="43.39536946571791" lon="11.90558235038038"><ele>788.1666666666667</ele><time>2026-04-18T16:56:07.999Z</time></trkpt><trkpt lat="43.39544218759871" lon="11.905537236384143"><ele>788.3333333333334</ele><time>2026-04-18T16:56:10.999Z</time></trkpt><trkpt lat="43.39549976174129" lon="11.905500478642967"><ele>788.5</ele><time>2026-04-18T16:56:12.999Z</time></trkpt><trkpt lat="43.395554123156245" lon="11.905445120641138"><ele>788.6666666666667</ele><time>2026-04-18T16:56:13.999Z</time></trkpt><trkpt lat="43.395636400636135" lon="11.905324282196396"><ele>788.8333333333334</ele><time>2026-04-18T16:56:15.999Z</time></trkpt><trkpt lat="43.395706069265344" lon="11.905197527153954"><ele>789.0</ele><time>2026-04-18T16:56:17.999Z</time></trkpt><trkpt lat="43.395752007306406" lon="11.905136471523747"><ele>782.8000000000001</ele><time>2026-04-18T16:56:18.999Z</time></trkpt><trkpt lat="43.395839001883424" lon="11.905033161727433"><ele>776.6</ele><time>2026-04-18T16:56:20.999Z</time></trkpt><trkpt lat="43.39591542396197" lon="11.904906478097768"><ele>770.4</ele><time>2026-04-18T16:56:22.999Z</time></trkpt><trkpt lat="43.395973079341736" lon="11.904779656747102"><ele>764.2</ele><time>2026-04-18T16:56:24.999Z</time></trkpt><trkpt lat="43.396034362103" lon="11.904682721448347"><ele>758.0</ele><time>2026-04-18T16:56:26.999Z</time></trkpt><trkpt lat="43.396113328817" lon="11.904608100618297"><ele>758.0</ele><time>2026-04-18T16:56:28.999Z</time></trkpt><trkpt lat="43.39618311044656" lon="11.904526965456329"><ele>758.0</ele><time>2026-04-18T16:56:30.999Z</time></trkpt><trkpt lat="43.39628770604057" lon="11.904488428085122"><ele>758.0</ele><time>2026-04-18T16:56:32.999Z</time></trkpt><trkpt lat="43.39639196646106" lon="11.90445787701441"><ele>758.0</ele><time>2026-04-18T16:56:34.999Z</time></trkpt><trkpt lat="43.396480562031414" lon="11.90443321833413"><ele>758.0</ele><time>2026-04-18T16:56:36.999Z</time></trkpt><trkpt lat="43.396580884783106" lon="11.904446341187134"><ele>755.3333333333333</ele><time>2026-04-18T16:56:38.999Z</time></trkpt><trkpt lat="43.396653179092894" lon="11.904459675188935"><ele>752.6666666666666</ele><time>2026-04-18T16:56:40.999Z</time></trkpt><trkpt lat="43.39673720639353" lon="11.904462949972263"><ele>750.0</ele><time>2026-04-18T16:56:42.999Z</time></trkpt><trkpt lat="43.3968173573597" lon="11.90448088599668"><ele>747.3333333333334</ele><time>2026-04-18T16:56:44.999Z</time></trkpt><trkpt lat="43.39691099416896" lon="11.904469358424574"><ele>744.6666666666667</ele><time>2026-04-18T16:56:47.999Z</time></trkpt><trkpt lat="43.39697994660957" lon="11.904459004789882"><ele>742.0</ele><time>2026-04-18T16:56:49.999Z</time></trkpt><trkpt lat="43.39706064459045" lon="11.904418666573378"><ele>742.0</ele><time>2026-04-18T16:56:52Z</time></trkpt><trkpt lat="43.39713815088326" lon="11.904390827694645"><ele>742.0</ele><time>2026-04-18T16:56:54Z</time></trkpt><trkpt lat="43.39720379826327" lon="11.904350261602792"><ele>742.0</ele><time>2026-04-18T16:56:56Z</time></trkpt><trkpt lat="43.39726721012447" lon="11.904318421137848"><ele>742.0</ele><time>2026-04-18T16:56:58Z</time></trkpt><trkpt lat="43.39732189680244" lon="11.904241181667405"><ele>742.0</ele><time>2026-04-18T16:57:00Z</time></trkpt><trkpt lat="43.3973868475312" lon="11.904159111721443"><ele>742.0</ele><time>2026-04-18T16:57:02Z</time></trkpt><trkpt lat="43.39747292421932" lon="11.904070487153392"><ele>739.5</ele><time>2026-04-18T16:57:04Z</time></trkpt><trkpt lat="43.397541925580285" lon="11.903971317453289"><ele>737.0</ele><time>2026-04-18T16:57:06Z</time></trkpt><trkpt lat="43.397577409500876" lon="11.90385168944922"><ele>734.5</ele><time>2026-04-18T16:57:08Z</time></trkpt><trkpt lat="43.397585478567024" lon="11.903704251986106"><ele>732.0</ele><time>2026-04-18T16:57:10Z</time></trkpt><trkpt lat="43.39759793581877" lon="11.903617365892188"><ele>729.5</ele><time>2026-04-18T16:57:11Z</time></trkpt><trkpt lat="43.39760841696013" lon="11.903519440257034"><ele>727.0</ele><time>2026-04-18T16:57:12Z</time></trkpt><trkpt lat="43.397642325574964" lon="11.90339064892675"><ele>725.8333333333334</ele><time>2026-04-18T16:57:13Z</time></trkpt><trkpt lat="43.39767596672602" lon="11.903289809053746"><ele>724.6666666666667</ele><time>2026-04-18T16:57:14Z</time></trkpt><trkpt lat="43.39770828461302" lon="11.903197449352744"><ele>723.5</ele><time>2026-04-18T16:57:15Z</time></trkpt><trkpt lat="43.397734123103334" lon="11.90310945597537"><ele>722.3333333333334</ele><time>2026-04-18T16:57:16Z</time></trkpt><trkpt lat="43.397779618783936" lon="11.90301515475693"><ele>721.1666666666666</ele><time>2026-04-18T16:57:18Z</time></trkpt><trkpt lat="43.39775420652119" lon="11.90290502420202"><ele>720.0</ele><time>2026-04-18T16:57:20Z</time></trkpt><trkpt lat="43.39764395192361" lon="11.902853271952987"><ele>720.0</ele><time>2026-04-18T16:57:22Z</time></trkpt><trkpt lat="43.39756953863934" lon="11.902855222482838"><ele>720.0</ele><time>2026-04-18T16:57:23Z</time></trkpt><trkpt lat="43.39749830712622" lon="11.902883050012065"><ele>720.0</ele><time>2026-04-18T16:57:24Z</time></trkpt><trkpt lat="43.3974247002651" lon="11.902927219201437"><ele>720.0</ele><time>2026-04-18T16:57:25Z</time></trkpt><trkpt lat="43.397367954333184" lon="11.903003498620865"><ele>720.0</ele><time>2026-04-18T16:57:26Z</time></trkpt><trkpt lat="43.39729964149351" lon="11.903081698667872"><ele>720.0</ele><time>2026-04-18T16:57:27Z</time></trkpt><trkpt lat="43.397245068835666" lon="11.903184201562103"><ele>720.0</ele><time>2026-04-18T16:57:28Z</time></trkpt><trkpt lat="43.39719171134675" lon="11.903267601321035"><ele>720.0</ele><time>2026-04-18T16:57:29Z</time></trkpt><trkpt lat="43.397141531682976" lon="11.903323170904327"><ele>720.0</ele><time>2026-04-18T16:57:30Z</time></trkpt><trkpt lat="43.39705053188109" lon="11.903316411899684"><ele>720.0</ele><time>2026-04-18T16:57:31Z</time></trkpt><trkpt lat="43.396959952895614" lon="11.903288778384455"><ele>720.0</ele><time>2026-04-18T16:57:32Z</time></trkpt><trkpt lat="43.3968894936445" lon="11.903200504835619"><ele>720.0</ele><time>2026-04-18T16:57:33Z</time></trkpt><trkpt lat="43.396829719480884" lon="11.903108566399787"><ele>720.6</ele><time>2026-04-18T16:57:34Z</time></trkpt><trkpt lat="43.396771220713596" lon="11.903018447881315"><ele>721.2</ele><time>2026-04-18T16:57:35Z</time></trkpt><trkpt lat="43.39671010398169" lon="11.902916473202906"><ele>721.8</ele><time>2026-04-18T16:57:36Z</time></trkpt><trkpt lat="43.39664281361153" lon="11.902823418826008"><ele>722.4</ele><time>2026-04-18T16:57:37Z</time></trkpt><trkpt lat="43.39656493634744" lon="11.902733674373932"><ele>723.0</ele><time>2026-04-18T16:57:38Z</time></trkpt><trkpt lat="43.39648590097011" lon="11.902653091087911"><ele>723.0</ele><time>2026-04-18T16:57:39Z</time></trkpt><trkpt lat="43.396403620304895" lon="11.902592303609325"><ele>723.0</ele><time>2026-04-18T16:57:40Z</time></trkpt><trkpt lat="43.39630976546114" lon="11.902554513209035"><ele>723.0</ele><time>2026-04-18T16:57:41Z</time></trkpt><trkpt lat="43.396207374248995" lon="11.902561404509372"><ele>723.0</ele><time>2026-04-18T16:57:42Z</time></trkpt><trkpt lat="43.396102241175605" lon="11.90259648806817"><ele>723.0</ele><time>2026-04-18T16:57:43Z</time></trkpt><trkpt lat="43.39600146167618" lon="11.90264624762714"><ele>722.0</ele><time>2026-04-18T16:57:44Z</time></trkpt><trkpt lat="43.39590493008951" lon="11.90270852674495"><ele>721.0</ele><time>2026-04-18T16:57:45Z</time></trkpt><trkpt lat="43.395819674557245" lon="11.902788186472531"><ele>720.0</ele><time>2026-04-18T16:57:46Z</time></trkpt><trkpt lat="43.39574961089066" lon="11.902881698087551"><ele>719.0</ele><time>2026-04-18T16:57:47Z</time></trkpt><trkpt lat="43.39568499789814" lon="11.90298397922204"><ele>718.0</ele><time>2026-04-18T16:57:48Z</time></trkpt><trkpt lat="43.39563524869885" lon="11.903079641653823"><ele>718.0</ele><time>2026-04-18T16:57:49Z</time></trkpt><trkpt lat="43.39558476571469" lon="11.903178601839546"><ele>718.0</ele><time>2026-04-18T16:57:50Z</time></trkpt><trkpt lat="43.39553492393506" lon="11.903274106590535"><ele>718.0</ele><time>2026-04-18T16:57:51Z</time></trkpt><trkpt lat="43.39546545429461" lon="11.903347933481477"><ele>718.0</ele><time>2026-04-18T16:57:52Z</time></trkpt><trkpt lat="43.39540425325922" lon="11.903406858567749"><ele>718.0</ele><time>2026-04-18T16:57:53Z</time></trkpt><trkpt lat="43.39532107912627" lon="11.903427479624765"><ele>718.0</ele><time>2026-04-18T16:57:54Z</time></trkpt><trkpt lat="43.39523360622271" lon="11.903411506569675"><ele>716.5999999999999</ele><time>2026-04-18T16:57:55Z</time></trkpt><trkpt lat="43.395141901047545" lon="11.903382293442982"><ele>715.1999999999999</ele><time>2026-04-18T16:57:56Z</time></trkpt><trkpt lat="43.39505561181776" lon="11.903360669369064"><ele>713.8</ele><time>2026-04-18T16:57:57Z</time></trkpt><trkpt lat="43.39497001662393" lon="11.90334115291"><ele>712.4</ele><time>2026-04-18T16:57:58Z</time></trkpt><trkpt lat="43.39487766497536" lon="11.90332395963859"><ele>711.0</ele><time>2026-04-18T16:57:59Z</time></trkpt><trkpt lat="43.39478799922913" lon="11.903317638787362"><ele>711.0</ele><time>2026-04-18T16:58:00Z</time></trkpt><trkpt lat="43.394704315216615" lon="11.903325438648526"><ele>711.0</ele><time>2026-04-18T16:58:01Z</time></trkpt><trkpt lat="43.394623104342536" lon="11.903332493117288"><ele>711.0</ele><time>2026-04-18T16:58:02Z</time></trkpt><trkpt lat="43.394512129426005" lon="11.903247311608522"><ele>711.0</ele><time>2026-04-18T16:58:04Z</time></trkpt><trkpt lat="43.39447565425235" lon="11.903147578554735"><ele>711.0</ele><time>2026-04-18T16:58:05Z</time></trkpt><trkpt lat="43.394441694407675" lon="11.90302903250573"><ele>710.5</ele><time>2026-04-18T16:58:06Z</time></trkpt><trkpt lat="43.394401121145755" lon="11.902921851873394"><ele>710.0</ele><time>2026-04-18T16:58:06.999Z</time></trkpt><trkpt lat="43.3943341312151" lon="11.902837280574671"><ele>709.5</ele><time>2026-04-18T16:58:07.999Z</time></trkpt><trkpt lat="43.39427327892974" lon="11.902743894099315"><ele>709.0</ele><time>2026-04-18T16:58:08.999Z</time></trkpt><trkpt lat="43.39421612152829" lon="11.902658231645098"><ele>708.5</ele><time>2026-04-18T16:58:09.999Z</time></trkpt><trkpt lat="43.39415240465734" lon="11.902568193221992"><ele>708.0</ele><time>2026-04-18T16:58:10.999Z</time></trkpt><trkpt lat="43.39409506784359" lon="11.902490718356185"><ele>708.0</ele><time>2026-04-18T16:58:11.999Z</time></trkpt><trkpt lat="43.39403993158183" lon="11.902418782553259"><ele>708.0</ele><time>2026-04-18T16:58:12.999Z</time></trkpt><trkpt lat="43.3939617081171" lon="11.902328475227318"><ele>708.0</ele><time>2026-04-18T16:58:13.999Z</time></trkpt><trkpt lat="43.393896759376226" lon="11.902269746792845"><ele>708.0</ele><time>2026-04-18T16:58:14.999Z</time></trkpt><trkpt lat="43.39379672578522" lon="11.90219614282971"><ele>708.0</ele><time>2026-04-18T16:58:15.999Z</time></trkpt><trkpt lat="43.39369970794503" lon="11.902208324690424"><ele>708.6666666666666</ele><time>2026-04-18T16:58:16.999Z</time></trkpt><trkpt lat="43.39361248518524" lon="11.902205102538073"><ele>709.3333333333334</ele><time>2026-04-18T16:58:17.999Z</time></trkpt><trkpt lat="43.39353694929399" lon="11.90225421326888"><ele>710.0</ele><time>2026-04-18T16:58:18.999Z</time></trkpt><trkpt lat="43.393473653472974" lon="11.90231266457842"><ele>710.6666666666667</ele><time>2026-04-18T16:58:19.999Z</time></trkpt><trkpt lat="43.39340898305684" lon="11.90237838604357"><ele>711.3333333333334</ele><time>2026-04-18T16:58:20.999Z</time></trkpt><trkpt lat="43.39335239229863" lon="11.902448450557173"><ele>712.0</ele><time>2026-04-18T16:58:21.999Z</time></trkpt><trkpt lat="43.39327766925392" lon="11.90247735241445"><ele>712.0</ele><time>2026-04-18T16:58:22.999Z</time></trkpt><trkpt lat="43.39319733212738" lon="11.902459773979004"><ele>712.0</ele><time>2026-04-18T16:58:23.999Z</time></trkpt><trkpt lat="43.39312838940799" lon="11.902398705406807"><ele>712.0</ele><time>2026-04-18T16:58:24.999Z</time></trkpt><trkpt lat="43.39306395824573" lon="11.902322327950719"><ele>712.0</ele><time>2026-04-18T16:58:25.999Z</time></trkpt><trkpt lat="43.39300528168748" lon="11.902240671614383"><ele>712.0</ele><time>2026-04-18T16:58:26.999Z</time></trkpt><trkpt lat="43.392932407398895" lon="11.902194651331707"><ele>712.0</ele><time>2026-04-18T16:58:27.999Z</time></trkpt><trkpt lat="43.392851096462664" lon="11.90217031974315"><ele>714.6666666666667</ele><time>2026-04-18T16:58:28.999Z</time></trkpt><trkpt lat="43.392763566051634" lon="11.902123972695582"><ele>717.3333333333334</ele><time>2026-04-18T16:58:29.999Z</time></trkpt><trkpt lat="43.392675079163" lon="11.902075274467752"><ele>720.0</ele><time>2026-04-18T16:58:30.999Z</time></trkpt><trkpt lat="43.39260037765527" lon="11.902018148678243"><ele>722.6666666666666</ele><time>2026-04-18T16:58:31.999Z</time></trkpt><trkpt lat="43.392541424389066" lon="11.901932952413814"><ele>725.3333333333333</ele><time>2026-04-18T16:58:32.999Z</time></trkpt><trkpt lat="43.392489331488186" lon="11.901863000895863"><ele>728.0</ele><time>2026-04-18T16:58:33.999Z</time></trkpt><trkpt lat="43.39242324289186" lon="11.90177006583"><ele>725.5999999999999</ele><time>2026-04-18T16:58:34.999Z</time></trkpt><trkpt lat="43.39235777992825" lon="11.901665642779816"><ele>723.1999999999999</ele><time>2026-04-18T16:58:35.999Z</time></trkpt><trkpt lat="43.392291480113585" lon="11.901584810601811"><ele>720.8</ele><time>2026-04-18T16:58:36.999Z</time></trkpt><trkpt lat="43.392213903932095" lon="11.901507485053049"><ele>718.4</ele><time>2026-04-18T16:58:37.999Z</time></trkpt><trkpt lat="43.392122194550474" lon="11.901434098152693"><ele>716.0</ele><time>2026-04-18T16:58:38.999Z</time></trkpt><trkpt lat="43.39202508285759" lon="11.901370536607745"><ele>716.0</ele><time>2026-04-18T16:58:39.999Z</time></trkpt><trkpt lat="43.39193153526014" lon="11.901316229426525"><ele>716.0</ele><time>2026-04-18T16:58:40.999Z</time></trkpt><trkpt lat="43.39183372188388" lon="11.90124878691834"><ele>716.0</ele><time>2026-04-18T16:58:41.999Z</time></trkpt><trkpt lat="43.391734786311694" lon="11.901170764267576"><ele>716.0</ele><time>2026-04-18T16:58:42.999Z</time></trkpt><trkpt lat="43.39163444018749" lon="11.901112207684136"><ele>716.0</ele><time>2026-04-18T16:58:43.999Z</time></trkpt><trkpt lat="43.391539465012286" lon="11.901073972973002"><ele>716.0</ele><time>2026-04-18T16:58:44.999Z</time></trkpt><trkpt lat="43.39145406555656" lon="11.901039371382735"><ele>716.0</ele><time>2026-04-18T16:58:45.999Z</time></trkpt><trkpt lat="43.39137810352004" lon="11.901007337338402"><ele>716.0</ele><time>2026-04-18T16:58:46.999Z</time></trkpt><trkpt lat="43.39129462340389" lon="11.901019911133535"><ele>716.0</ele><time>2026-04-18T16:58:47.999Z</time></trkpt><trkpt lat="43.39120370487622" lon="11.901065728797638"><ele>716.0</ele><time>2026-04-18T16:58:48.999Z</time></trkpt><trkpt lat="43.3911013311775" lon="11.901099391303731"><ele>715.0</ele><time>2026-04-18T16:58:49.999Z</time></trkpt><trkpt lat="43.391003130213676" lon="11.901132659662764"><ele>714.0</ele><time>2026-04-18T16:58:50.999Z</time></trkpt><trkpt lat="43.390908053490506" lon="11.901162612755813"><ele>713.0</ele><time>2026-04-18T16:58:51.999Z</time></trkpt><trkpt lat="43.39081299088961" lon="11.901197826080738"><ele>712.0</ele><time>2026-04-18T16:58:52.999Z</time></trkpt><trkpt lat="43.39072964049482" lon="11.901234792874314"><ele>711.0</ele><time>2026-04-18T16:58:53.999Z</time></trkpt><trkpt lat="43.39065838259758" lon="11.901296131019198"><ele>711.0</ele><time>2026-04-18T16:58:54.999Z</time></trkpt><trkpt lat="43.39060701821034" lon="11.901375742660006"><ele>711.0</ele><time>2026-04-18T16:58:55.999Z</time></trkpt><trkpt lat="43.390567658563754" lon="11.901472681631732"><ele>711.0</ele><time>2026-04-18T16:58:56.999Z</time></trkpt><trkpt lat="43.39054654654061" lon="11.901581631009776"><ele>711.0</ele><time>2026-04-18T16:58:58Z</time></trkpt><trkpt lat="43.39053971298637" lon="11.901706011589777"><ele>711.0</ele><time>2026-04-18T16:58:59Z</time></trkpt><trkpt lat="43.39051356607883" lon="11.90183076738238"><ele>711.0</ele><time>2026-04-18T16:59:00Z</time></trkpt><trkpt lat="43.39049396329831" lon="11.901958110934292"><ele>711.8333333333334</ele><time>2026-04-18T16:59:01Z</time></trkpt><trkpt lat="43.39047234397235" lon="11.902087537507931"><ele>712.6666666666666</ele><time>2026-04-18T16:59:02Z</time></trkpt><trkpt lat="43.39045738370361" lon="11.902209652029798"><ele>713.5</ele><time>2026-04-18T16:59:03Z</time></trkpt><trkpt lat="43.39042764147595" lon="11.90231775830062"><ele>714.3333333333333</ele><time>2026-04-18T16:59:04Z</time></trkpt><trkpt lat="43.39038824240923" lon="11.90240436711214"><ele>715.1666666666666</ele><time>2026-04-18T16:59:05Z</time></trkpt><trkpt lat="43.39033210192735" lon="11.902459884221836"><ele>716.0</ele><time>2026-04-18T16:59:06Z</time></trkpt><trkpt lat="43.390260200688125" lon="11.902480172272007"><ele>716.0</ele><time>2026-04-18T16:59:07Z</time></trkpt><trkpt lat="43.3901820342758" lon="11.902466150878215"><ele>716.0</ele><time>2026-04-18T16:59:08Z</time></trkpt><trkpt lat="43.39011769786675" lon="11.902397338952177"><ele>716.0</ele><time>2026-04-18T16:59:09Z</time></trkpt><trkpt lat="43.39006566945045" lon="11.90230639523224"><ele>716.0</ele><time>2026-04-18T16:59:10Z</time></trkpt><trkpt lat="43.390019729875476" lon="11.902193232839709"><ele>716.0</ele><time>2026-04-18T16:59:11Z</time></trkpt><trkpt lat="43.389957838301605" lon="11.902128816399264"><ele>716.0</ele><time>2026-04-18T16:59:12Z</time></trkpt><trkpt lat="43.38989120049961" lon="11.90209675522198"><ele>716.0</ele><time>2026-04-18T16:59:13Z</time></trkpt><trkpt lat="43.38982166551124" lon="11.902075608117114"><ele>716.0</ele><time>2026-04-18T16:59:14Z</time></trkpt><trkpt lat="43.38974439335747" lon="11.902077575128015"><ele>716.0</ele><time>2026-04-18T16:59:15Z</time></trkpt><trkpt lat="43.38966282803006" lon="11.902083110937946"><ele>716.0</ele><time>2026-04-18T16:59:16Z</time></trkpt><trkpt lat="43.38957559365594" lon="11.902110342694208"><ele>716.0</ele><time>2026-04-18T16:59:17Z</time></trkpt><trkpt lat="43.38948665746524" lon="11.902138286833717"><ele>716.0</ele><time>2026-04-18T16:59:18Z</time></trkpt><trkpt lat="43.38939512022671" lon="11.902149522461501"><ele>717.0</ele><time>2026-04-18T16:59:19Z</time></trkpt><trkpt lat="43.38930391526742" lon="11.902153378926187"><ele>718.0</ele><time>2026-04-18T16:59:20Z</time></trkpt><trkpt lat="43.38921136221436" lon="11.902138786049697"><ele>719.0</ele><time>2026-04-18T16:59:21Z</time></trkpt><trkpt lat="43.38912037018127" lon="11.902123914132236"><ele>720.0</ele><time>2026-04-18T16:59:22Z</time></trkpt><trkpt lat="43.389024988479164" lon="11.902073820675426"><ele>721.0</ele><time>2026-04-18T16:59:23Z</time></trkpt><trkpt lat="43.38894093767284" lon="11.902034614611967"><ele>721.0</ele><time>2026-04-18T16:59:24Z</time></trkpt><trkpt lat="43.388857202579175" lon="11.90197896828539"><ele>721.0</ele><time>2026-04-18T16:59:25Z</time></trkpt><trkpt lat="43.38877944666444" lon="11.901920347072675"><ele>721.0</ele><time>2026-04-18T16:59:26Z</time></trkpt><trkpt lat="43.38870547887243" lon="11.901857496998527"><ele>721.0</ele><time>2026-04-18T16:59:27Z</time></trkpt><trkpt lat="43.388631449258526" lon="11.901775034823762"><ele>721.0</ele><time>2026-04-18T16:59:28Z</time></trkpt><trkpt lat="43.388557713249455" lon="11.90170077413863"><ele>718.5999999999999</ele><time>2026-04-18T16:59:29Z</time></trkpt><trkpt lat="43.38848126837832" lon="11.901620607195932"><ele>716.2</ele><time>2026-04-18T16:59:30Z</time></trkpt><trkpt lat="43.3884094156704" lon="11.90153377915015"><ele>713.8</ele><time>2026-04-18T16:59:31Z</time></trkpt><trkpt lat="43.388339720458646" lon="11.901439497264326"><ele>711.4000000000001</ele><time>2026-04-18T16:59:32Z</time></trkpt><trkpt lat="43.38826354784579" lon="11.901351445624005"><ele>709.0</ele><time>2026-04-18T16:59:33Z</time></trkpt><trkpt lat="43.38818627419854" lon="11.90126576886511"><ele>709.0</ele><time>2026-04-18T16:59:34Z</time></trkpt><trkpt lat="43.38810658095267" lon="11.901181039221601"><ele>709.0</ele><time>2026-04-18T16:59:35Z</time></trkpt><trkpt lat="43.388024963605794" lon="11.901098163338014"><ele>709.0</ele><time>2026-04-18T16:59:36Z</time></trkpt><trkpt lat="43.38793710886052" lon="11.901038150718062"><ele>709.0</ele><time>2026-04-18T16:59:37Z</time></trkpt><trkpt lat="43.38784352989534" lon="11.900980231450967"><ele>709.0</ele><time>2026-04-18T16:59:38Z</time></trkpt><trkpt lat="43.38775034375343" lon="11.900920034308918"><ele>706.2</ele><time>2026-04-18T16:59:39Z</time></trkpt><trkpt lat="43.38765768359998" lon="11.900844111379795"><ele>703.4000000000001</ele><time>2026-04-18T16:59:40Z</time></trkpt><trkpt lat="43.387565392259994" lon="11.90076817530789"><ele>700.6</ele><time>2026-04-18T16:59:41Z</time></trkpt><trkpt lat="43.3874741630107" lon="11.900685457534971"><ele>697.8</ele><time>2026-04-18T16:59:42Z</time></trkpt><trkpt lat="43.38738121790816" lon="11.90059722859043"><ele>695.0</ele><time>2026-04-18T16:59:43Z</time></trkpt><trkpt lat="43.3872868257198" lon="11.900502143006152"><ele>695.0</ele><time>2026-04-18T16:59:44Z</time></trkpt><trkpt lat="43.38719396104016" lon="11.90041459668399"><ele>695.0</ele><time>2026-04-18T16:59:45Z</time></trkpt><trkpt lat="43.387112430755565" lon="11.90037371816715"><ele>695.0</ele><time>2026-04-18T16:59:46Z</time></trkpt><trkpt lat="43.387015497635645" lon="11.900258376360254"><ele>695.0</ele><time>2026-04-18T16:59:47Z</time></trkpt><trkpt lat="43.386943176038756" lon="11.900194609185666"><ele>695.0</ele><time>2026-04-18T16:59:48Z</time></trkpt><trkpt lat="43.38681173950082" lon="11.900086271123945"><ele>690.8</ele><time>2026-04-18T16:59:49Z</time></trkpt><trkpt lat="43.38671006393006" lon="11.899985935382364"><ele>686.6</ele><time>2026-04-18T16:59:50Z</time></trkpt><trkpt lat="43.38661971147189" lon="11.89990433950574"><ele>682.4000000000001</ele><time>2026-04-18T16:59:51Z</time></trkpt><trkpt lat="43.38652670765548" lon="11.899815616367754"><ele>678.2</ele><time>2026-04-18T16:59:52Z</time></trkpt><trkpt lat="43.38644599250988" lon="11.899740751618802"><ele>674.0</ele><time>2026-04-18T16:59:53Z</time></trkpt><trkpt lat="43.38636965398836" lon="11.899687470380904"><ele>673.1666666666666</ele><time>2026-04-18T16:59:54Z</time></trkpt><trkpt lat="43.386284431584734" lon="11.899671382995564"><ele>672.3333333333333</ele><time>2026-04-18T16:59:55Z</time></trkpt><trkpt lat="43.38620341725724" lon="11.899700580926066"><ele>671.5</ele><time>2026-04-18T16:59:56Z</time></trkpt><trkpt lat="43.38613556583926" lon="11.899778749854166"><ele>670.6666666666666</ele><time>2026-04-18T16:59:57Z</time></trkpt><trkpt lat="43.38607810107354" lon="11.89988250979613"><ele>669.8333333333334</ele><time>2026-04-18T16:59:58Z</time></trkpt><trkpt lat="43.38603242598458" lon="11.899998325186555"><ele>669.0</ele><time>2026-04-18T16:59:59Z</time></trkpt><trkpt lat="43.385993032351564" lon="11.90011797782947"><ele>669.0</ele><time>2026-04-18T17:00:00Z</time></trkpt><trkpt lat="43.38596556968408" lon="11.90024850015692"><ele>669.0</ele><time>2026-04-18T17:00:01Z</time></trkpt><trkpt lat="43.38591458372755" lon="11.900371989591099"><ele>669.0</ele><time>2026-04-18T17:00:02Z</time></trkpt><trkpt lat="43.38589971543354" lon="11.900500016727598"><ele>669.0</ele><time>2026-04-18T17:00:03Z</time></trkpt><trkpt lat="43.38584597004622" lon="11.900615872188602"><ele>669.0</ele><time>2026-04-18T17:00:04Z</time></trkpt><trkpt lat="43.385809531277985" lon="11.900743294743306"><ele>669.0</ele><time>2026-04-18T17:00:05Z</time></trkpt><trkpt lat="43.38573025788643" lon="11.900825571321306"><ele>669.0</ele><time>2026-04-18T17:00:06Z</time></trkpt><trkpt lat="43.3856506607656" lon="11.900913870484802"><ele>669.0</ele><time>2026-04-18T17:00:07Z</time></trkpt><trkpt lat="43.38556947091655" lon="11.900995070933059"><ele>669.0</ele><time>2026-04-18T17:00:08Z</time></trkpt><trkpt lat="43.385499836165074" lon="11.901072821558374"><ele>669.0</ele><time>2026-04-18T17:00:09Z</time></trkpt><trkpt lat="43.38543428160915" lon="11.901152379368357"><ele>666.0</ele><time>2026-04-18T17:00:10Z</time></trkpt><trkpt lat="43.38537635488275" lon="11.901213680137793"><ele>663.0</ele><time>2026-04-18T17:00:11Z</time></trkpt><trkpt lat="43.385309266958785" lon="11.901249206390576"><ele>660.0</ele><time>2026-04-18T17:00:12Z</time></trkpt><trkpt lat="43.385239671884854" lon="11.901239658387283"><ele>657.0</ele><time>2026-04-18T17:00:13Z</time></trkpt><trkpt lat="43.385185556250974" lon="11.901172046938548"><ele>654.0</ele><time>2026-04-18T17:00:14Z</time></trkpt><trkpt lat="43.38515355095564" lon="11.901073930423903"><ele>651.0</ele><time>2026-04-18T17:00:15Z</time></trkpt><trkpt lat="43.38516263003977" lon="11.90096716629416"><ele>648.0</ele><time>2026-04-18T17:00:16Z</time></trkpt><trkpt lat="43.38521507750444" lon="11.90087462320291"><ele>648.0</ele><time>2026-04-18T17:00:17Z</time></trkpt><trkpt lat="43.38530951694674" lon="11.90086411443317"><ele>648.0</ele><time>2026-04-18T17:00:18Z</time></trkpt><trkpt lat="43.38540117002949" lon="11.900815232247803"><ele>648.0</ele><time>2026-04-18T17:00:19Z</time></trkpt><trkpt lat="43.38547399322765" lon="11.900757565820054"><ele>648.0</ele><time>2026-04-18T17:00:20Z</time></trkpt><trkpt lat="43.3855427071998" lon="11.900674209390662"><ele>648.0</ele><time>2026-04-18T17:00:21Z</time></trkpt><trkpt lat="43.38561656428113" lon="11.900603719612034"><ele>649.8</ele><time>2026-04-18T17:00:22Z</time></trkpt><trkpt lat="43.385674684472605" lon="11.900512909543565"><ele>651.5999999999999</ele><time>2026-04-18T17:00:23Z</time></trkpt><trkpt lat="43.385701719554724" lon="11.900392991634293"><ele>653.4000000000001</ele><time>2026-04-18T17:00:24Z</time></trkpt><trkpt lat="43.38570876083636" lon="11.900255213797104"><ele>655.2</ele><time>2026-04-18T17:00:25Z</time></trkpt><trkpt lat="43.38570365515391" lon="11.900109519733938"><ele>657.0</ele><time>2026-04-18T17:00:26Z</time></trkpt><trkpt lat="43.38569162058793" lon="11.899957839140937"><ele>657.0</ele><time>2026-04-18T17:00:27Z</time></trkpt><trkpt lat="43.385686424867494" lon="11.899805210179306"><ele>657.0</ele><time>2026-04-18T17:00:28Z</time></trkpt><trkpt lat="43.3856849309599" lon="11.899655486588241"><ele>657.0</ele><time>2026-04-18T17:00:29Z</time></trkpt><trkpt lat="43.38568285226293" lon="11.899503989841348"><ele>657.0</ele><time>2026-04-18T17:00:29.999Z</time></trkpt><trkpt lat="43.38567715011875" lon="11.899351441337664"><ele>657.0</ele><time>2026-04-18T17:00:30.999Z</time></trkpt><trkpt lat="43.38566744267029" lon="11.899197830631653"><ele>655.2</ele><time>2026-04-18T17:00:31.999Z</time></trkpt><trkpt lat="43.38565901783869" lon="11.899044057266345"><ele>653.4000000000001</ele><time>2026-04-18T17:00:32.999Z</time></trkpt><trkpt lat="43.38564995115522" lon="11.898896125882521"><ele>651.5999999999999</ele><time>2026-04-18T17:00:33.999Z</time></trkpt><trkpt lat="43.385641819153406" lon="11.898764279752859"><ele>649.8</ele><time>2026-04-18T17:00:34.999Z</time></trkpt><trkpt lat="43.38563382696489" lon="11.898654457146533"><ele>648.0</ele><time>2026-04-18T17:00:35.999Z</time></trkpt><trkpt lat="43.38562848286202" lon="11.898556404614444"><ele>645.0</ele><time>2026-04-18T17:00:36.999Z</time></trkpt><trkpt lat="43.38560949825921" lon="11.898391622011049"><ele>642.0</ele><time>2026-04-18T17:00:38.999Z</time></trkpt><trkpt lat="43.38559455164724" lon="11.89824202569578"><ele>639.0</ele><time>2026-04-18T17:00:40.999Z</time></trkpt><trkpt lat="43.385609934971775" lon="11.898109586732216"><ele>636.0</ele><time>2026-04-18T17:00:42.999Z</time></trkpt><trkpt lat="43.38564443337685" lon="11.897941893876938"><ele>636.0</ele><time>2026-04-18T17:00:44.999Z</time></trkpt><trkpt lat="43.38568278786294" lon="11.897856399247706"><ele>636.0</ele><time>2026-04-18T17:00:45.999Z</time></trkpt><trkpt lat="43.385742975688025" lon="11.89777941801095"><ele>636.0</ele><time>2026-04-18T17:00:46.999Z</time></trkpt><trkpt lat="43.38581671454385" lon="11.897720585306898"><ele>636.0</ele><time>2026-04-18T17:00:47.999Z</time></trkpt><trkpt lat="43.3859030278469" lon="11.897704355874605"><ele>636.0</ele><time>2026-04-18T17:00:48.999Z</time></trkpt><trkpt lat="43.385991396522904" lon="11.89767582662463"><ele>636.0</ele><time>2026-04-18T17:00:49.999Z</time></trkpt><trkpt lat="43.38608457879737" lon="11.897640319518418"><ele>636.0</ele><time>2026-04-18T17:00:50.999Z</time></trkpt><trkpt lat="43.386150761978605" lon="11.897591621272467"><ele>636.0</ele><time>2026-04-18T17:00:51.999Z</time></trkpt><trkpt lat="43.38619434211058" lon="11.897522079604183"><ele>636.0</ele><time>2026-04-18T17:00:52.999Z</time></trkpt><trkpt lat="43.38619511186391" lon="11.89740354398086"><ele>636.0</ele><time>2026-04-18T17:00:53.999Z</time></trkpt><trkpt lat="43.386142625140394" lon="11.897306436319688"><ele>636.0</ele><time>2026-04-18T17:00:54.999Z</time></trkpt><trkpt lat="43.38607958474981" lon="11.897248857308462"><ele>636.0</ele><time>2026-04-18T17:00:55.999Z</time></trkpt><trkpt lat="43.385998427042395" lon="11.897223675549148"><ele>632.8</ele><time>2026-04-18T17:00:56.999Z</time></trkpt><trkpt lat="43.38590657732009" lon="11.8972199753752"><ele>629.6</ele><time>2026-04-18T17:00:57.999Z</time></trkpt><trkpt lat="43.38581204146967" lon="11.897225668237008"><ele>626.4</ele><time>2026-04-18T17:00:58.999Z</time></trkpt><trkpt lat="43.38571799641148" lon="11.897240361066563"><ele>623.2</ele><time>2026-04-18T17:00:59.999Z</time></trkpt><trkpt lat="43.385624362845306" lon="11.897254986281157"><ele>620.0</ele><time>2026-04-18T17:01:00.999Z</time></trkpt><trkpt lat="43.38553128901472" lon="11.897280704766803"><ele>617.3333333333333</ele><time>2026-04-18T17:01:01.999Z</time></trkpt><trkpt lat="43.385444741473634" lon="11.897320628809032"><ele>614.6666666666666</ele><time>2026-04-18T17:01:02.999Z</time></trkpt><trkpt lat="43.3853663568006" lon="11.897373401382428"><ele>612.0</ele><time>2026-04-18T17:01:04Z</time></trkpt><trkpt lat="43.38530203112763" lon="11.897442454887662"><ele>609.3333333333334</ele><time>2026-04-18T17:01:05Z</time></trkpt><trkpt lat="43.3852473062004" lon="11.897556305717055"><ele>606.6666666666667</ele><time>2026-04-18T17:01:06Z</time></trkpt><trkpt lat="43.385205840011196" lon="11.897659760727803"><ele>604.0</ele><time>2026-04-18T17:01:07Z</time></trkpt><trkpt lat="43.38516708183109" lon="11.897738214088205"><ele>604.0</ele><time>2026-04-18T17:01:08Z</time></trkpt><trkpt lat="43.38511286109704" lon="11.897804237272307"><ele>604.0</ele><time>2026-04-18T17:01:10Z</time></trkpt><trkpt lat="43.38504667687944" lon="11.897736248369041"><ele>604.0</ele><time>2026-04-18T17:01:12Z</time></trkpt><trkpt lat="43.38505062062868" lon="11.897618130436365"><ele>604.0</ele><time>2026-04-18T17:01:14Z</time></trkpt><trkpt lat="43.385113007141534" lon="11.897499949482444"><ele>604.0</ele><time>2026-04-18T17:01:16Z</time></trkpt><trkpt lat="43.38520099004534" lon="11.89736769527531"><ele>602.8333333333334</ele><time>2026-04-18T17:01:18Z</time></trkpt><trkpt lat="43.385249212723124" lon="11.897286165180928"><ele>601.6666666666667</ele><time>2026-04-18T17:01:19Z</time></trkpt><trkpt lat="43.38529331187028" lon="11.897195626169932"><ele>600.5</ele><time>2026-04-18T17:01:20Z</time></trkpt><trkpt lat="43.385331147096" lon="11.897101309198195"><ele>599.3333333333334</ele><time>2026-04-18T17:01:21Z</time></trkpt><trkpt lat="43.385361251796226" lon="11.896999873108783"><ele>598.1666666666666</ele><time>2026-04-18T17:01:22Z</time></trkpt><trkpt lat="43.38539044329711" lon="11.896897666023433"><ele>597.0</ele><time>2026-04-18T17:01:23Z</time></trkpt><trkpt lat="43.38540983492596" lon="11.896781983979615"><ele>598.4</ele><time>2026-04-18T17:01:24Z</time></trkpt><trkpt lat="43.385440296710605" lon="11.896664593176125"><ele>599.8000000000001</ele><time>2026-04-18T17:01:25Z</time></trkpt><trkpt lat="43.38549148630947" lon="11.896566673991146"><ele>601.2</ele><time>2026-04-18T17:01:26Z</time></trkpt><trkpt lat="43.38554750556456" lon="11.896458599276722"><ele>602.6</ele><time>2026-04-18T17:01:27Z</time></trkpt><trkpt lat="43.38561013381087" lon="11.896352441109759"><ele>604.0</ele><time>2026-04-18T17:01:28Z</time></trkpt><trkpt lat="43.38567339537778" lon="11.896245525724181"><ele>604.0</ele><time>2026-04-18T17:01:29Z</time></trkpt><trkpt lat="43.38573364354808" lon="11.896153601281508"><ele>604.0</ele><time>2026-04-18T17:01:30Z</time></trkpt><trkpt lat="43.38578226534216" lon="11.896081204879478"><ele>604.0</ele><time>2026-04-18T17:01:31Z</time></trkpt><trkpt lat="43.3858912049983" lon="11.89599238552739"><ele>604.0</ele><time>2026-04-18T17:01:33Z</time></trkpt><trkpt lat="43.385975796265846" lon="11.895984667598077"><ele>604.0</ele><time>2026-04-18T17:01:34Z</time></trkpt><trkpt lat="43.386061580025796" lon="11.896005553280727"><ele>604.0</ele><time>2026-04-18T17:01:35Z</time></trkpt><trkpt lat="43.386144305156236" lon="11.896037953111092"><ele>604.0</ele><time>2026-04-18T17:01:36Z</time></trkpt><trkpt lat="43.386227700852864" lon="11.896075759766813"><ele>604.0</ele><time>2026-04-18T17:01:37Z</time></trkpt><trkpt lat="43.38631517073155" lon="11.89612091203486"><ele>604.0</ele><time>2026-04-18T17:01:38Z</time></trkpt><trkpt lat="43.38641085100306" lon="11.896166247117272"><ele>604.0</ele><time>2026-04-18T17:01:39Z</time></trkpt><trkpt lat="43.38650239340144" lon="11.896208345157328"><ele>602.6666666666667</ele><time>2026-04-18T17:01:40Z</time></trkpt><trkpt lat="43.38658473954323" lon="11.896246430737907"><ele>601.3333333333334</ele><time>2026-04-18T17:01:41Z</time></trkpt><trkpt lat="43.38665740482903" lon="11.896283521450883"><ele>600.0</ele><time>2026-04-18T17:01:42Z</time></trkpt><trkpt lat="43.38672261634883" lon="11.896316247923934"><ele>598.6666666666666</ele><time>2026-04-18T17:01:43Z</time></trkpt><trkpt lat="43.38682577413573" lon="11.896371917228134"><ele>597.3333333333333</ele><time>2026-04-18T17:01:45Z</time></trkpt><trkpt lat="43.38692218218893" lon="11.896407175848362"><ele>596.0</ele><time>2026-04-18T17:01:47Z</time></trkpt><trkpt lat="43.38699047708788" lon="11.896444951524229"><ele>596.0</ele><time>2026-04-18T17:01:49Z</time></trkpt><trkpt lat="43.38707680230676" lon="11.89647517899724"><ele>596.0</ele><time>2026-04-18T17:01:52Z</time></trkpt><trkpt lat="43.38721689281651" lon="11.896430813836174"><ele>596.0</ele><time>2026-04-18T17:01:55Z</time></trkpt><trkpt lat="43.38731093947357" lon="11.896348094592978"><ele>596.0</ele><time>2026-04-18T17:01:57Z</time></trkpt><trkpt lat="43.38738335006626" lon="11.896289032308653"><ele>596.0</ele><time>2026-04-18T17:01:59Z</time></trkpt><trkpt lat="43.387411288431025" lon="11.896200636851388"><ele>593.4</ele><time>2026-04-18T17:02:01Z</time></trkpt><trkpt lat="43.38737870441684" lon="11.89608024047397"><ele>590.8</ele><time>2026-04-18T17:02:03Z</time></trkpt><trkpt lat="43.387368544831084" lon="11.895954289261576"><ele>588.1999999999999</ele><time>2026-04-18T17:02:05Z</time></trkpt><trkpt lat="43.387349062016426" lon="11.895833381783675"><ele>585.6</ele><time>2026-04-18T17:02:07Z</time></trkpt><trkpt lat="43.38738282577368" lon="11.895707499441853"><ele>583.0</ele><time>2026-04-18T17:02:09Z</time></trkpt><trkpt lat="43.3874695899518" lon="11.895636740990449"><ele>583.0</ele><time>2026-04-18T17:02:11Z</time></trkpt><trkpt lat="43.38764126081239" lon="11.895690626183203"><ele>583.0</ele><time>2026-04-18T17:02:15Z</time></trkpt><trkpt lat="43.387706054384914" lon="11.895680274173282"><ele>583.0</ele><time>2026-04-18T17:02:16Z</time></trkpt><trkpt lat="43.3877442843491" lon="11.895826677472527"><ele>583.0</ele><time>2026-04-18T17:02:17Z</time></trkpt><trkpt lat="43.38779102261304" lon="11.8959050572606"><ele>583.0</ele><time>2026-04-18T17:02:18Z</time></trkpt><trkpt lat="43.38785214100525" lon="11.895985524919489"><ele>583.0</ele><time>2026-04-18T17:02:19Z</time></trkpt><trkpt lat="43.38791740962405" lon="11.896060460742836"><ele>583.0</ele><time>2026-04-18T17:02:20Z</time></trkpt><trkpt lat="43.387987115867496" lon="11.896127913787748"><ele>583.0</ele><time>2026-04-18T17:02:21Z</time></trkpt><trkpt lat="43.388061793610966" lon="11.896188150677188"><ele>583.0</ele><time>2026-04-18T17:02:22Z</time></trkpt><trkpt lat="43.38813671275183" lon="11.896242378687615"><ele>583.0</ele><time>2026-04-18T17:02:23Z</time></trkpt><trkpt lat="43.38820076550254" lon="11.896285406743544"><ele>583.0</ele><time>2026-04-18T17:02:24Z</time></trkpt><trkpt lat="43.38825843596867" lon="11.89632512123463"><ele>580.6</ele><time>2026-04-18T17:02:25Z</time></trkpt><trkpt lat="43.38836982723496" lon="11.896396824909278"><ele>578.1999999999999</ele><time>2026-04-18T17:02:27Z</time></trkpt><trkpt lat="43.38847086222295" lon="11.896451301214054"><ele>575.8</ele><time>2026-04-18T17:02:29Z</time></trkpt><trkpt lat="43.38859432824067" lon="11.896474208334988"><ele>573.4</ele><time>2026-04-18T17:02:31Z</time></trkpt><trkpt lat="43.38866002038022" lon="11.896461947620647"><ele>571.0</ele><time>2026-04-18T17:02:32Z</time></trkpt><trkpt lat="43.3887234346242" lon="11.896424015564921"><ele>571.0</ele><time>2026-04-18T17:02:33Z</time></trkpt><trkpt lat="43.38879404873035" lon="11.896301230065745"><ele>571.0</ele><time>2026-04-18T17:02:35Z</time></trkpt><trkpt lat="43.388775505465986" lon="11.896127733654545"><ele>571.0</ele><time>2026-04-18T17:02:37Z</time></trkpt><trkpt lat="43.388746453339536" lon="11.896034398562543"><ele>571.0</ele><time>2026-04-18T17:02:38Z</time></trkpt><trkpt lat="43.388681880393875" lon="11.895978425120157"><ele>571.0</ele><time>2026-04-18T17:02:39Z</time></trkpt><trkpt lat="43.388690113086" lon="11.895844808850816"><ele>568.0</ele><time>2026-04-18T17:02:41Z</time></trkpt><trkpt lat="43.38873544360694" lon="11.895764754894659"><ele>565.0</ele><time>2026-04-18T17:02:42.999Z</time></trkpt><trkpt lat="43.38882809575002" lon="11.895877214841962"><ele>562.0</ele><time>2026-04-18T17:02:43.999Z</time></trkpt><trkpt lat="43.38890323812129" lon="11.895912954653427"><ele>559.0</ele><time>2026-04-18T17:02:44.999Z</time></trkpt><trkpt lat="43.38902010963603" lon="11.89597487445884"><ele>556.0</ele><time>2026-04-18T17:02:46.999Z</time></trkpt><trkpt lat="43.38910056434365" lon="11.89601918164778"><ele>555.8333333333334</ele><time>2026-04-18T17:02:47.999Z</time></trkpt><trkpt lat="43.38917724465973" lon="11.896086600664441"><ele>555.6666666666667</ele><time>2026-04-18T17:02:48.999Z</time></trkpt><trkpt lat="43.38926282351268" lon="11.896117961285839"><ele>555.5</ele><time>2026-04-18T17:02:49.999Z</time></trkpt><trkpt lat="43.38933734226931" lon="11.896124438767611"><ele>555.3333333333334</ele><time>2026-04-18T17:02:50.999Z</time></trkpt><trkpt lat="43.38943385125826" lon="11.896114283541891"><ele>555.1666666666666</ele><time>2026-04-18T17:02:52.999Z</time></trkpt><trkpt lat="43.38953162448453" lon="11.896109120279663"><ele>555.0</ele><time>2026-04-18T17:02:54.999Z</time></trkpt><trkpt lat="43.38964390846297" lon="11.896069308132606"><ele>553.8</ele><time>2026-04-18T17:02:57.999Z</time></trkpt><trkpt lat="43.38977619515717" lon="11.896060974908439"><ele>552.6</ele><time>2026-04-18T17:03:00.999Z</time></trkpt><trkpt lat="43.38987903133056" lon="11.896007941260589"><ele>551.4</ele><time>2026-04-18T17:03:02.999Z</time></trkpt><trkpt lat="43.389936058111815" lon="11.895945295433963"><ele>550.2</ele><time>2026-04-18T17:03:04.999Z</time></trkpt><trkpt lat="43.390024709122294" lon="11.895903452347012"><ele>549.0</ele><time>2026-04-18T17:03:07.999Z</time></trkpt><trkpt lat="43.39021056518353" lon="11.895858459873816"><ele>542.0</ele><time>2026-04-18T17:03:11Z</time></trkpt><trkpt lat="43.389981070955145" lon="11.895430391359817"><ele>535.0</ele><time>2026-04-18T17:03:13Z</time></trkpt><trkpt lat="43.39001168832839" lon="11.895352436492443"><ele>535.0</ele><time>2026-04-18T17:03:14Z</time></trkpt><trkpt lat="43.39005118961699" lon="11.895279571158342"><ele>535.0</ele><time>2026-04-18T17:03:15Z</time></trkpt><trkpt lat="43.39012820553975" lon="11.895153192153321"><ele>535.0</ele><time>2026-04-18T17:03:17Z</time></trkpt><trkpt lat="43.3902015280385" lon="11.895151061133001"><ele>535.0</ele><time>2026-04-18T17:03:18Z</time></trkpt><trkpt lat="43.390252007775324" lon="11.895055396879709"><ele>535.0</ele><time>2026-04-18T17:03:20Z</time></trkpt><trkpt lat="43.39021872479499" lon="11.894903974623574"><ele>533.0</ele><time>2026-04-18T17:03:22Z</time></trkpt><trkpt lat="43.39014287649387" lon="11.894786789281637"><ele>531.0</ele><time>2026-04-18T17:03:24Z</time></trkpt><trkpt lat="43.39006516482485" lon="11.894663275522557"><ele>529.0</ele><time>2026-04-18T17:03:26Z</time></trkpt><trkpt lat="43.390006913115016" lon="11.894625322141996"><ele>527.0</ele><time>2026-04-18T17:03:27Z</time></trkpt><trkpt lat="43.3899364642627" lon="11.894571797485064"><ele>525.0</ele><time>2026-04-18T17:03:28Z</time></trkpt><trkpt lat="43.389875631746605" lon="11.894523972116444"><ele>523.0</ele><time>2026-04-18T17:03:29Z</time></trkpt><trkpt lat="43.38981703434925" lon="11.894487218631037"><ele>523.0</ele><time>2026-04-18T17:03:30Z</time></trkpt><trkpt lat="43.389715155329064" lon="11.8943942208982"><ele>523.0</ele><time>2026-04-18T17:03:32Z</time></trkpt><trkpt lat="43.38964809027609" lon="11.894290887400393"><ele>523.0</ele><time>2026-04-18T17:03:34Z</time></trkpt><trkpt lat="43.389586379382685" lon="11.894184822087258"><ele>523.0</ele><time>2026-04-18T17:03:36Z</time></trkpt><trkpt lat="43.38949314174265" lon="11.894118969076677"><ele>523.0</ele><time>2026-04-18T17:03:38Z</time></trkpt><trkpt lat="43.38943398881839" lon="11.894052297383645"><ele>521.1666666666667</ele><time>2026-04-18T17:03:40Z</time></trkpt><trkpt lat="43.38937432228528" lon="11.894003913964793"><ele>519.3333333333334</ele><time>2026-04-18T17:03:42Z</time></trkpt><trkpt lat="43.38930714539428" lon="11.893928511178608"><ele>517.5</ele><time>2026-04-18T17:03:44Z</time></trkpt><trkpt lat="43.3892318635338" lon="11.89383734459869"><ele>515.6666666666666</ele><time>2026-04-18T17:03:46Z</time></trkpt><trkpt lat="43.38916211179644" lon="11.893746709248793"><ele>513.8333333333333</ele><time>2026-04-18T17:03:48Z</time></trkpt><trkpt lat="43.389093231765784" lon="11.893675036801291"><ele>512.0</ele><time>2026-04-18T17:03:50Z</time></trkpt><trkpt lat="43.38902161823103" lon="11.893595126288632"><ele>511.99999999999994</ele><time>2026-04-18T17:03:52Z</time></trkpt><trkpt lat="43.38895684718487" lon="11.893517451774226"><ele>512.0</ele><time>2026-04-18T17:03:54Z</time></trkpt><trkpt lat="43.388897369649875" lon="11.893482181549041"><ele>512.0</ele><time>2026-04-18T17:03:57Z</time></trkpt><trkpt lat="43.38881759093548" lon="11.893449181953404"><ele>512.0</ele><time>2026-04-18T17:03:59Z</time></trkpt><trkpt lat="43.388744477288746" lon="11.893396401732993"><ele>511.99999999999994</ele><time>2026-04-18T17:04:02Z</time></trkpt><trkpt lat="43.388732669314464" lon="11.893286693897702"><ele>512.0</ele><time>2026-04-18T17:04:05Z</time></trkpt><trkpt lat="43.38878288240586" lon="11.893215214619584"><ele>509.16666666666663</ele><time>2026-04-18T17:04:08Z</time></trkpt><trkpt lat="43.38885498701562" lon="11.89325077206235"><ele>506.3333333333333</ele><time>2026-04-18T17:04:11Z</time></trkpt><trkpt lat="43.3889212131299" lon="11.893299897997828"><ele>503.5</ele><time>2026-04-18T17:04:13Z</time></trkpt><trkpt lat="43.3889953753648" lon="11.893343064555415"><ele>500.66666666666663</ele><time>2026-04-18T17:04:16Z</time></trkpt><trkpt lat="43.38906000759473" lon="11.893372432009553"><ele>497.8333333333333</ele><time>2026-04-18T17:04:19Z</time></trkpt><trkpt lat="43.38914660677156" lon="11.893360217151242"><ele>495.0</ele><time>2026-04-18T17:04:23Z</time></trkpt><trkpt lat="43.38920852845358" lon="11.89332274740201"><ele>494.99999999999994</ele><time>2026-04-18T17:04:26Z</time></trkpt><trkpt lat="43.389266810758976" lon="11.893286895257381"><ele>495.0</ele><time>2026-04-18T17:04:29Z</time></trkpt><trkpt lat="43.38933299069126" lon="11.893268727781116"><ele>494.99999999999994</ele><time>2026-04-18T17:04:31Z</time></trkpt><trkpt lat="43.38939998431669" lon="11.89325889470526"><ele>494.99999999999994</ele><time>2026-04-18T17:04:34Z</time></trkpt><trkpt lat="43.389464348506095" lon="11.893239191658452"><ele>495.0</ele><time>2026-04-18T17:04:36Z</time></trkpt><trkpt lat="43.38954250443514" lon="11.893217979411931"><ele>494.99999999999994</ele><time>2026-04-18T17:04:38Z</time></trkpt><trkpt lat="43.389609180307374" lon="11.893209584787447"><ele>494.99999999999994</ele><time>2026-04-18T17:04:40Z</time></trkpt><trkpt lat="43.38968536161263" lon="11.893174881235451"><ele>493.6666666666667</ele><time>2026-04-18T17:04:42Z</time></trkpt><trkpt lat="43.38978604210684" lon="11.893157045394382"><ele>492.33333333333337</ele><time>2026-04-18T17:04:45Z</time></trkpt><trkpt lat="43.38986672399071" lon="11.893120710497085"><ele>491.0</ele><time>2026-04-18T17:04:47Z</time></trkpt><trkpt lat="43.38987975331642" lon="11.893034052213874"><ele>489.6666666666667</ele><time>2026-04-18T17:04:49Z</time></trkpt><trkpt lat="43.38985234242728" lon="11.892955920108681"><ele>488.33333333333337</ele><time>2026-04-18T17:04:51Z</time></trkpt><trkpt lat="43.38977718075835" lon="11.892908422935474"><ele>487.0</ele><time>2026-04-18T17:04:54Z</time></trkpt><trkpt lat="43.38969703161296" lon="11.892874968595724"><ele>488.33333333333337</ele><time>2026-04-18T17:04:56Z</time></trkpt><trkpt lat="43.389624792545746" lon="11.892837697819251"><ele>489.6666666666667</ele><time>2026-04-18T17:04:58Z</time></trkpt><trkpt lat="43.38957026509843" lon="11.89279202515249"><ele>491.0</ele><time>2026-04-18T17:05:00Z</time></trkpt><trkpt lat="43.38950778769235" lon="11.892754453419505"><ele>492.33333333333337</ele><time>2026-04-18T17:05:04.999Z</time></trkpt><trkpt lat="43.38943296841019" lon="11.892688284309411"><ele>493.6666666666667</ele><time>2026-04-18T17:05:07.999Z</time></trkpt><trkpt lat="43.3893623941401" lon="11.892660847489967"><ele>495.0</ele><time>2026-04-18T17:05:09.999Z</time></trkpt><trkpt lat="43.38928646089705" lon="11.892621764912885"><ele>493.71428571428567</ele><time>2026-04-18T17:05:11.999Z</time></trkpt><trkpt lat="43.38920481406682" lon="11.892555617064842"><ele>492.42857142857144</ele><time>2026-04-18T17:05:14.999Z</time></trkpt><trkpt lat="43.38914275713477" lon="11.892523307927181"><ele>491.1428571428571</ele><time>2026-04-18T17:05:17Z</time></trkpt><trkpt lat="43.38909104783124" lon="11.892468913295513"><ele>489.85714285714283</ele><time>2026-04-18T17:05:19Z</time></trkpt><trkpt lat="43.389023041056895" lon="11.892438251298653"><ele>488.57142857142856</ele><time>2026-04-18T17:05:21Z</time></trkpt><trkpt lat="43.38895065029261" lon="11.892417429292431"><ele>487.2857142857143</ele><time>2026-04-18T17:05:23Z</time></trkpt><trkpt lat="43.38888543917519" lon="11.89237229923474"><ele>486.0</ele><time>2026-04-18T17:05:25Z</time></trkpt><trkpt lat="43.38881378987221" lon="11.892327058462522"><ele>486.0</ele><time>2026-04-18T17:05:28Z</time></trkpt><trkpt lat="43.388774582135035" lon="11.892246363512301"><ele>486.0</ele><time>2026-04-18T17:05:31Z</time></trkpt><trkpt lat="43.388806276920874" lon="11.892169296059846"><ele>486.0</ele><time>2026-04-18T17:05:35Z</time></trkpt><trkpt lat="43.3888657864094" lon="11.892133219775921"><ele>486.0</ele><time>2026-04-18T17:05:37Z</time></trkpt><trkpt lat="43.38895481768728" lon="11.892132173109042"><ele>486.0</ele><time>2026-04-18T17:05:40Z</time></trkpt><trkpt lat="43.38903718262275" lon="11.89214067775851"><ele>486.0</ele><time>2026-04-18T17:05:44Z</time></trkpt><trkpt lat="43.38913844648482" lon="11.892087792501345"><ele>483.8</ele><time>2026-04-18T17:05:47Z</time></trkpt><trkpt lat="43.3892361080692" lon="11.892079656969019"><ele>481.6</ele><time>2026-04-18T17:05:49Z</time></trkpt><trkpt lat="43.38932748818566" lon="11.892027893364894"><ele>479.4</ele><time>2026-04-18T17:05:51Z</time></trkpt><trkpt lat="43.38940972428262" lon="11.892005895290279"><ele>477.2</ele><time>2026-04-18T17:05:53Z</time></trkpt><trkpt lat="43.38950741909242" lon="11.891974184841084"><ele>475.0</ele><time>2026-04-18T17:05:55Z</time></trkpt><trkpt lat="43.38958840731745" lon="11.891940176237487"><ele>475.00000000000006</ele><time>2026-04-18T17:05:57Z</time></trkpt><trkpt lat="43.38965845846797" lon="11.891864003488092"><ele>475.0</ele><time>2026-04-18T17:05:59Z</time></trkpt><trkpt lat="43.38967821440951" lon="11.89173243089215"><ele>475.0</ele><time>2026-04-18T17:06:01Z</time></trkpt><trkpt lat="43.38967002036089" lon="11.8916288943682"><ele>475.0</ele><time>2026-04-18T17:06:03Z</time></trkpt><trkpt lat="43.38960351789522" lon="11.891574761706524"><ele>475.00000000000006</ele><time>2026-04-18T17:06:04Z</time></trkpt><trkpt lat="43.389546321639514" lon="11.891533992213324"><ele>475.0</ele><time>2026-04-18T17:06:05Z</time></trkpt><trkpt lat="43.389448791894885" lon="11.891481932130551"><ele>472.0</ele><time>2026-04-18T17:06:07Z</time></trkpt><trkpt lat="43.38935393208501" lon="11.89149935741326"><ele>469.0</ele><time>2026-04-18T17:06:09Z</time></trkpt><trkpt lat="43.38925216409253" lon="11.891543707495176"><ele>466.0</ele><time>2026-04-18T17:06:11Z</time></trkpt><trkpt lat="43.3891598091176" lon="11.891558957262784"><ele>463.0</ele><time>2026-04-18T17:06:13Z</time></trkpt><trkpt lat="43.3890810192903" lon="11.891571509747964"><ele>460.0</ele><time>2026-04-18T17:06:15Z</time></trkpt><trkpt lat="43.3889916212905" lon="11.891590457421852"><ele>460.00000000000006</ele><time>2026-04-18T17:06:19Z</time></trkpt><trkpt lat="43.3889011503541" lon="11.891617746329405"><ele>460.0</ele><time>2026-04-18T17:06:22Z</time></trkpt><trkpt lat="43.38883813983282" lon="11.891632997743981"><ele>460.0</ele><time>2026-04-18T17:06:25Z</time></trkpt><trkpt lat="43.388762558552955" lon="11.891667315510645"><ele>460.0</ele><time>2026-04-18T17:06:29Z</time></trkpt><trkpt lat="43.38869235647555" lon="11.891683210940547"><ele>460.00000000000006</ele><time>2026-04-18T17:06:32Z</time></trkpt><trkpt lat="43.38861169887782" lon="11.89169747104906"><ele>460.0</ele><time>2026-04-18T17:06:36Z</time></trkpt><trkpt lat="43.388541053997464" lon="11.891641518612648"><ele>460.6666666666667</ele><time>2026-04-18T17:06:40Z</time></trkpt><trkpt lat="43.38847104255998" lon="11.8915670457122"><ele>461.33333333333337</ele><time>2026-04-18T17:06:44Z</time></trkpt><trkpt lat="43.38840945311265" lon="11.891487028435703"><ele>462.0</ele><time>2026-04-18T17:06:47Z</time></trkpt><trkpt lat="43.38836631651875" lon="11.891406863818094"><ele>462.66666666666663</ele><time>2026-04-18T17:06:49Z</time></trkpt><trkpt lat="43.388308692744175" lon="11.891340963326991"><ele>463.3333333333333</ele><time>2026-04-18T17:06:52Z</time></trkpt><trkpt lat="43.388271149832704" lon="11.891268018373914"><ele>464.0</ele><time>2026-04-18T17:06:55Z</time></trkpt><trkpt lat="43.388227682905146" lon="11.891184860266776"><ele>463.99999999999994</ele><time>2026-04-18T17:06:59Z</time></trkpt><trkpt lat="43.38817942510254" lon="11.891108138417804"><ele>464.0</ele><time>2026-04-18T17:07:02Z</time></trkpt><trkpt lat="43.38813447184045" lon="11.891033150054833"><ele>464.0</ele><time>2026-04-18T17:07:05Z</time></trkpt><trkpt lat="43.38807875622169" lon="11.890963655570145"><ele>464.0</ele><time>2026-04-18T17:07:09Z</time></trkpt><trkpt lat="43.38799309470713" lon="11.890922358011924"><ele>463.99999999999994</ele><time>2026-04-18T17:07:11Z</time></trkpt><trkpt lat="43.3879063212861" lon="11.89090018994114"><ele>464.0</ele><time>2026-04-18T17:07:14Z</time></trkpt><trkpt lat="43.387841467250105" lon="11.890920798932681"><ele>461.99999999999994</ele><time>2026-04-18T17:07:16Z</time></trkpt><trkpt lat="43.38777772415047" lon="11.890970596524488"><ele>460.0</ele><time>2026-04-18T17:07:17.999Z</time></trkpt><trkpt lat="43.38772006344803" lon="11.891027548620444"><ele>458.0</ele><time>2026-04-18T17:07:19.999Z</time></trkpt><trkpt lat="43.38763393576642" lon="11.891098314906024"><ele>456.0</ele><time>2026-04-18T17:07:23.001Z</time></trkpt><trkpt lat="43.38758069131217" lon="11.891161170100698"><ele>453.99999999999994</ele><time>2026-04-18T17:07:25.001Z</time></trkpt><trkpt lat="43.38754302839214" lon="11.891246126830701"><ele>452.0</ele><time>2026-04-18T17:07:27.001Z</time></trkpt><trkpt lat="43.38750588081414" lon="11.891334182150256"><ele>451.99999999999994</ele><time>2026-04-18T17:07:29.001Z</time></trkpt><trkpt lat="43.38745701907761" lon="11.891400568653847"><ele>452.0</ele><time>2026-04-18T17:07:31.001Z</time></trkpt><trkpt lat="43.38739481716235" lon="11.891451438910227"><ele>452.0</ele><time>2026-04-18T17:07:33.001Z</time></trkpt><trkpt lat="43.38732116750655" lon="11.891517008465279"><ele>452.0</ele><time>2026-04-18T17:07:36.999Z</time></trkpt><trkpt lat="43.38726791618408" lon="11.891607199485172"><ele>451.99999999999994</ele><time>2026-04-18T17:07:38.999Z</time></trkpt><trkpt lat="43.387228908419765" lon="11.891698466066643"><ele>452.0</ele><time>2026-04-18T17:07:40.999Z</time></trkpt><trkpt lat="43.38719697355668" lon="11.891796617228774"><ele>454.99999999999994</ele><time>2026-04-18T17:07:42.999Z</time></trkpt><trkpt lat="43.38711946700867" lon="11.891864945874842"><ele>458.0</ele><time>2026-04-18T17:07:44.999Z</time></trkpt><trkpt lat="43.38705969669465" lon="11.891945714055046"><ele>461.0</ele><time>2026-04-18T17:07:46.999Z</time></trkpt><trkpt lat="43.38700188819701" lon="11.892055507597652"><ele>464.0</ele><time>2026-04-18T17:07:48.999Z</time></trkpt><trkpt lat="43.38694705533239" lon="11.892170762902534"><ele>466.99999999999994</ele><time>2026-04-18T17:07:50.999Z</time></trkpt><trkpt lat="43.38690539351237" lon="11.892246102955568"><ele>470.0</ele><time>2026-04-18T17:07:52.999Z</time></trkpt><trkpt lat="43.38684287175313" lon="11.892202224207397"><ele>469.99999999999994</ele><time>2026-04-18T17:07:55.999Z</time></trkpt><trkpt lat="43.38683823887912" lon="11.892105782085919"><ele>470.0</ele><time>2026-04-18T17:07:58.999Z</time></trkpt><trkpt lat="43.38682673766549" lon="11.892019612805866"><ele>470.0</ele><time>2026-04-18T17:08:00.999Z</time></trkpt><trkpt lat="43.38680440417019" lon="11.891937562135393"><ele>470.0</ele><time>2026-04-18T17:08:02.999Z</time></trkpt><trkpt lat="43.38674774084524" lon="11.89182544349481"><ele>469.99999999999994</ele><time>2026-04-18T17:08:04.999Z</time></trkpt><trkpt lat="43.386691247381634" lon="11.89172154606048"><ele>470.0</ele><time>2026-04-18T17:08:06.999Z</time></trkpt><trkpt lat="43.38664525683182" lon="11.891632001216264"><ele>466.66666666666663</ele><time>2026-04-18T17:08:08.999Z</time></trkpt><trkpt lat="43.386588583511525" lon="11.891537967130612"><ele>463.3333333333333</ele><time>2026-04-18T17:08:10.999Z</time></trkpt><trkpt lat="43.38654161462052" lon="11.8914672381306"><ele>460.0</ele><time>2026-04-18T17:08:12.999Z</time></trkpt><trkpt lat="43.386516705188576" lon="11.891382666266574"><ele>456.66666666666663</ele><time>2026-04-18T17:08:15.999Z</time></trkpt><trkpt lat="43.38650210043276" lon="11.891288792136358"><ele>453.3333333333333</ele><time>2026-04-18T17:08:27.999Z</time></trkpt><trkpt lat="43.38648633330563" lon="11.891156898572634"><ele>450.0</ele><time>2026-04-18T17:08:31.999Z</time></trkpt><trkpt lat="43.386484511173954" lon="11.89106111179966"><ele>450.0</ele><time>2026-04-18T17:08:34.999Z</time></trkpt><trkpt lat="43.386486107095514" lon="11.890956795790105"><ele>450.0</ele><time>2026-04-18T17:08:37.999Z</time></trkpt><trkpt lat="43.38648010797078" lon="11.890835385689885"><ele>450.0</ele><time>2026-04-18T17:08:40.999Z</time></trkpt><trkpt lat="43.38648167583329" lon="11.890716154564977"><ele>450.0</ele><time>2026-04-18T17:08:43.999Z</time></trkpt><trkpt lat="43.3865024643356" lon="11.89084930876471"><ele>450.0</ele><time>2026-04-18T17:08:52.999Z</time></trkpt><trkpt lat="43.386516383199485" lon="11.890948702335523"><ele>450.0</ele><time>2026-04-18T17:08:54.999Z</time></trkpt><trkpt lat="43.38650350299219" lon="11.891061490276073"><ele>450.0</ele><time>2026-04-18T17:08:57.999Z</time></trkpt><trkpt lat="43.38650221925855" lon="11.891163629105728"><ele>450.0</ele><time>2026-04-18T17:08:59.999Z</time></trkpt><trkpt lat="43.386507902650465" lon="11.891254093363354"><ele>450.0</ele><time>2026-04-18T17:09:01.999Z</time></trkpt><trkpt lat="43.38643939840314" lon="11.891236219114294"><ele>450.0</ele><time>2026-04-18T17:09:09.999Z</time></trkpt><trkpt lat="43.3863967025489" lon="11.891157325705905"><ele>450.0</ele><time>2026-04-18T17:09:12.999Z</time></trkpt><trkpt lat="43.38632994547692" lon="11.891067397420755"><ele>450.0</ele><time>2026-04-18T17:09:16.999Z</time></trkpt><trkpt lat="43.38626549631935" lon="11.890996969632695"><ele>453.1666666666667</ele><time>2026-04-18T17:09:19.999Z</time></trkpt><trkpt lat="43.38620653387475" lon="11.890953258998643"><ele>456.33333333333337</ele><time>2026-04-18T17:09:22.999Z</time></trkpt><trkpt lat="43.38614649207385" lon="11.890887272177057"><ele>459.5</ele><time>2026-04-18T17:09:25.999Z</time></trkpt><trkpt lat="43.38607191255138" lon="11.890804295474561"><ele>462.6666666666667</ele><time>2026-04-18T17:09:29Z</time></trkpt><trkpt lat="43.38601815116709" lon="11.89075066493588"><ele>465.83333333333337</ele><time>2026-04-18T17:09:31Z</time></trkpt><trkpt lat="43.385956283558095" lon="11.890688761410217"><ele>469.0</ele><time>2026-04-18T17:09:33Z</time></trkpt><trkpt lat="43.3858920295563" lon="11.890631631869734"><ele>469.00000000000006</ele><time>2026-04-18T17:09:35Z</time></trkpt><trkpt lat="43.385837811099606" lon="11.89055432695978"><ele>469.0</ele><time>2026-04-18T17:09:37Z</time></trkpt><trkpt lat="43.3857782407542" lon="11.89045024283997"><ele>469.0</ele><time>2026-04-18T17:09:40Z</time></trkpt><trkpt lat="43.385704744304334" lon="11.890348951231074"><ele>469.0</ele><time>2026-04-18T17:09:42Z</time></trkpt><trkpt lat="43.38564149822641" lon="11.890279007946486"><ele>469.00000000000006</ele><time>2026-04-18T17:09:44Z</time></trkpt><trkpt lat="43.385575414124276" lon="11.890197912870315"><ele>469.0</ele><time>2026-04-18T17:09:46Z</time></trkpt><trkpt lat="43.3855123040557" lon="11.890120849220635"><ele>469.1666666666667</ele><time>2026-04-18T17:09:48Z</time></trkpt><trkpt lat="43.3854621944106" lon="11.890028163328324"><ele>469.33333333333337</ele><time>2026-04-18T17:09:50Z</time></trkpt><trkpt lat="43.38540038406081" lon="11.889974856722805"><ele>469.5</ele><time>2026-04-18T17:09:51.999Z</time></trkpt><trkpt lat="43.38531719058648" lon="11.889928766219304"><ele>469.66666666666663</ele><time>2026-04-18T17:09:53.999Z</time></trkpt><trkpt lat="43.385249765452144" lon="11.889864761280217"><ele>469.8333333333333</ele><time>2026-04-18T17:09:55.999Z</time></trkpt><trkpt lat="43.38518485473594" lon="11.889767151849615"><ele>470.0</ele><time>2026-04-18T17:09:57.999Z</time></trkpt><trkpt lat="43.38511843970611" lon="11.889714710275042"><ele>469.99999999999994</ele><time>2026-04-18T17:09:59.999Z</time></trkpt><trkpt lat="43.38503361154221" lon="11.889684009170349"><ele>470.0</ele><time>2026-04-18T17:10:01.999Z</time></trkpt><trkpt lat="43.38496591993168" lon="11.889631171759156"><ele>470.0</ele><time>2026-04-18T17:10:03.999Z</time></trkpt><trkpt lat="43.38489975396023" lon="11.889554435170961"><ele>470.0</ele><time>2026-04-18T17:10:05.999Z</time></trkpt><trkpt lat="43.384819537509955" lon="11.889479803932087"><ele>469.99999999999994</ele><time>2026-04-18T17:10:07.999Z</time></trkpt><trkpt lat="43.384743068308055" lon="11.889418694102416"><ele>470.0</ele><time>2026-04-18T17:10:09.999Z</time></trkpt><trkpt lat="43.38469422527097" lon="11.88934757137922"><ele>469.99999999999994</ele><time>2026-04-18T17:10:11.999Z</time></trkpt><trkpt lat="43.38460801419142" lon="11.889294668216095"><ele>470.0</ele><time>2026-04-18T17:10:13.999Z</time></trkpt><trkpt lat="43.38450364123331" lon="11.889267453185763"><ele>470.0</ele><time>2026-04-18T17:10:15.999Z</time></trkpt><trkpt lat="43.38442434677064" lon="11.889242146368801"><ele>470.0</ele><time>2026-04-18T17:10:17.999Z</time></trkpt><trkpt lat="43.384355085857315" lon="11.88922141050553"><ele>469.99999999999994</ele><time>2026-04-18T17:10:19.999Z</time></trkpt><trkpt lat="43.38428559466733" lon="11.889225030464821"><ele>470.0</ele><time>2026-04-18T17:10:21.999Z</time></trkpt><trkpt lat="43.384218569807466" lon="11.889231266581419"><ele>470.0</ele><time>2026-04-18T17:10:23.999Z</time></trkpt><trkpt lat="43.38416236439594" lon="11.889272455421965"><ele>469.99999999999994</ele><time>2026-04-18T17:10:25.999Z</time></trkpt><trkpt lat="43.384117845982686" lon="11.889348064900345"><ele>470.0</ele><time>2026-04-18T17:10:27.999Z</time></trkpt><trkpt lat="43.38408672025137" lon="11.889441698714636"><ele>470.0</ele><time>2026-04-18T17:10:29.999Z</time></trkpt><trkpt lat="43.384059966687786" lon="11.889528224563888"><ele>469.99999999999994</ele><time>2026-04-18T17:10:31.999Z</time></trkpt><trkpt lat="43.38401929292178" lon="11.88962516103144"><ele>470.0</ele><time>2026-04-18T17:10:34.999Z</time></trkpt><trkpt lat="43.383977023784496" lon="11.889694835307589"><ele>470.0</ele><time>2026-04-18T17:10:37.999Z</time></trkpt><trkpt lat="43.38388613773284" lon="11.88971098401853"><ele>468.3333333333333</ele><time>2026-04-18T17:10:40.999Z</time></trkpt><trkpt lat="43.38380588192013" lon="11.889672610713543"><ele>466.66666666666663</ele><time>2026-04-18T17:10:44.999Z</time></trkpt><trkpt lat="43.38373370856959" lon="11.889620057761373"><ele>465.0</ele><time>2026-04-18T17:10:47.999Z</time></trkpt><trkpt lat="43.38366341735042" lon="11.889554094414553"><ele>463.33333333333337</ele><time>2026-04-18T17:10:50.999Z</time></trkpt><trkpt lat="43.38361271925766" lon="11.88949809411169"><ele>461.6666666666667</ele><time>2026-04-18T17:10:53.999Z</time></trkpt><trkpt lat="43.383537494706395" lon="11.889467977969213"><ele>460.0</ele><time>2026-04-18T17:10:55.999Z</time></trkpt><trkpt lat="43.38347235432579" lon="11.889428533289005"><ele>460.0</ele><time>2026-04-18T17:10:58.999Z</time></trkpt><trkpt lat="43.38339536681138" lon="11.889372674085296"><ele>460.0</ele><time>2026-04-18T17:11:01.999Z</time></trkpt><trkpt lat="43.38330745161067" lon="11.88932409716976"><ele>460.0</ele><time>2026-04-18T17:11:03.999Z</time></trkpt><trkpt lat="43.38300890181522" lon="11.889142787133581"><ele>455.83333333333337</ele><time>2026-04-18T17:11:04.999Z</time></trkpt><trkpt lat="43.38295346091486" lon="11.889084160958854"><ele>451.6666666666667</ele><time>2026-04-18T17:11:05.999Z</time></trkpt><trkpt lat="43.38285792707264" lon="11.889020104385716"><ele>447.5</ele><time>2026-04-18T17:11:07.999Z</time></trkpt><trkpt lat="43.38279161725638" lon="11.888964376126847"><ele>443.33333333333337</ele><time>2026-04-18T17:11:09.999Z</time></trkpt><trkpt lat="43.38272450177896" lon="11.888889582416276"><ele>439.1666666666667</ele><time>2026-04-18T17:11:11.999Z</time></trkpt><trkpt lat="43.38264101221854" lon="11.888831414683835"><ele>435.0</ele><time>2026-04-18T17:11:13.999Z</time></trkpt><trkpt lat="43.38270950333136" lon="11.88890247912368"><ele>435.0</ele><time>2026-04-18T17:11:26.999Z</time></trkpt><trkpt lat="43.38271269664423" lon="11.888994979885009"><ele>435.0</ele><time>2026-04-18T17:11:40Z</time></trkpt><trkpt lat="43.38275810884569" lon="11.889062174671034"><ele>435.0</ele><time>2026-04-18T17:11:43Z</time></trkpt><trkpt lat="43.382795192104446" lon="11.889162347368218"><ele>435.0</ele><time>2026-04-18T17:11:50Z</time></trkpt><trkpt lat="43.38284260677994" lon="11.889252908239948"><ele>435.0</ele><time>2026-04-18T17:11:53Z</time></trkpt><trkpt lat="43.38291616051871" lon="11.8893007888964"><ele>435.0</ele><time>2026-04-18T17:11:56Z</time></trkpt><trkpt lat="43.38298865714886" lon="11.889344497451402"><ele>435.00000000000006</ele><time>2026-04-18T17:11:59Z</time></trkpt><trkpt lat="43.38298593536203" lon="11.889447190201539"><ele>435.0</ele><time>2026-04-18T17:12:03Z</time></trkpt><trkpt lat="43.3829257690521" lon="11.889476760599118"><ele>435.0</ele><time>2026-04-18T17:12:07Z</time></trkpt><trkpt lat="43.38286192285916" lon="11.889479777907988"><ele>435.0</ele><time>2026-04-18T17:12:23.999Z</time></trkpt><trkpt lat="43.38281482270787" lon="11.889540878882864"><ele>435.0</ele><time>2026-04-18T17:12:32.999Z</time></trkpt><trkpt lat="43.38275178887818" lon="11.88959613811291"><ele>435.00000000000006</ele><time>2026-04-18T17:12:39.999Z</time></trkpt><trkpt lat="43.382693783750135" lon="11.889643225225141"><ele>435.0</ele><time>2026-04-18T17:12:47.999Z</time></trkpt><trkpt lat="43.38265561261564" lon="11.889715034298694"><ele>435.0</ele><time>2026-04-18T17:12:51.999Z</time></trkpt><trkpt lat="43.38263228196788" lon="11.88979651012636"><ele>435.0</ele><time>2026-04-18T17:12:54.999Z</time></trkpt><trkpt lat="43.38260864527436" lon="11.88991359284494"><ele>435.0</ele><time>2026-04-18T17:12:58.999Z</time></trkpt><trkpt lat="43.38262047991239" lon="11.89002604937365"><ele>435.0</ele><time>2026-04-18T17:13:00.999Z</time></trkpt><trkpt lat="43.382579553018665" lon="11.89012588743802"><ele>435.0</ele><time>2026-04-18T17:13:03.999Z</time></trkpt><trkpt lat="43.38254583409841" lon="11.890210961287549"><ele>435.0</ele><time>2026-04-18T17:13:07.999Z</time></trkpt><trkpt lat="43.38253097427201" lon="11.890335400968832"><ele>434.8333333333333</ele><time>2026-04-18T17:13:10.999Z</time></trkpt><trkpt lat="43.38253913283397" lon="11.890443231093055"><ele>434.66666666666663</ele><time>2026-04-18T17:13:13.999Z</time></trkpt><trkpt lat="43.382551733043954" lon="11.890547933927241"><ele>434.5</ele><time>2026-04-18T17:13:16.999Z</time></trkpt><trkpt lat="43.382577086652915" lon="11.890651521240082"><ele>434.3333333333333</ele><time>2026-04-18T17:13:19.999Z</time></trkpt><trkpt lat="43.38253925110539" lon="11.890765089428992"><ele>434.16666666666663</ele><time>2026-04-18T17:13:22.999Z</time></trkpt><trkpt lat="43.382481522544985" lon="11.890801226729907"><ele>434.0</ele><time>2026-04-18T17:13:24.999Z</time></trkpt><trkpt lat="43.38242130623303" lon="11.890827964899454"><ele>433.99999999999994</ele><time>2026-04-18T17:13:26.999Z</time></trkpt><trkpt lat="43.382340673556264" lon="11.890872755001636"><ele>434.0</ele><time>2026-04-18T17:13:29.999Z</time></trkpt><trkpt lat="43.38226617015278" lon="11.890894126956825"><ele>434.0</ele><time>2026-04-18T17:13:32.999Z</time></trkpt><trkpt lat="43.38218074978417" lon="11.890926416307"><ele>434.0</ele><time>2026-04-18T17:13:35.999Z</time></trkpt><trkpt lat="43.38212849857755" lon="11.890986294893434"><ele>433.99999999999994</ele><time>2026-04-18T17:13:38Z</time></trkpt><trkpt lat="43.38208616992288" lon="11.891073465819561"><ele>434.0</ele><time>2026-04-18T17:13:40Z</time></trkpt><trkpt lat="43.38205888929753" lon="11.89118404718826"><ele>430.85714285714283</ele><time>2026-04-18T17:13:42Z</time></trkpt><trkpt lat="43.38202920954685" lon="11.891268572612109"><ele>427.7142857142857</ele><time>2026-04-18T17:13:44Z</time></trkpt><trkpt lat="43.381977398259025" lon="11.891352949835598"><ele>424.57142857142856</ele><time>2026-04-18T17:13:48Z</time></trkpt><trkpt lat="43.38190971591266" lon="11.891353797757727"><ele>421.42857142857144</ele><time>2026-04-18T17:13:53Z</time></trkpt><trkpt lat="43.38186651422263" lon="11.891278349221825"><ele>418.2857142857143</ele><time>2026-04-18T17:14:09Z</time></trkpt><trkpt lat="43.38181683149365" lon="11.89122320156497"><ele>415.1428571428571</ele><time>2026-04-18T17:14:11Z</time></trkpt><trkpt lat="43.3817862390853" lon="11.891134779870596"><ele>412.0</ele><time>2026-04-18T17:14:13Z</time></trkpt><trkpt lat="43.381723052767455" lon="11.891067307226319"><ele>412.00000000000006</ele><time>2026-04-18T17:14:15Z</time></trkpt><trkpt lat="43.3816378226435" lon="11.891008779227388"><ele>412.0</ele><time>2026-04-18T17:14:17Z</time></trkpt><trkpt lat="43.38155821320805" lon="11.890987833587895"><ele>412.0</ele><time>2026-04-18T17:14:19Z</time></trkpt><trkpt lat="43.381544345087036" lon="11.890892013506503"><ele>412.0</ele><time>2026-04-18T17:14:23Z</time></trkpt><trkpt lat="43.381546374667046" lon="11.890801261143324"><ele>412.00000000000006</ele><time>2026-04-18T17:14:25Z</time></trkpt><trkpt lat="43.381486336826775" lon="11.890732228463833"><ele>412.0</ele><time>2026-04-18T17:14:26.999Z</time></trkpt><trkpt lat="43.381417165318325" lon="11.890714660902919"><ele>407.1666666666667</ele><time>2026-04-18T17:14:28.999Z</time></trkpt><trkpt lat="43.38134205854275" lon="11.890778805808091"><ele>402.33333333333337</ele><time>2026-04-18T17:14:30.999Z</time></trkpt><trkpt lat="43.381277659160574" lon="11.890808198597803"><ele>397.5</ele><time>2026-04-18T17:14:32.999Z</time></trkpt><trkpt lat="43.38115789872126" lon="11.890848277079783"><ele>392.6666666666667</ele><time>2026-04-18T17:14:36.999Z</time></trkpt><trkpt lat="43.3810935463787" lon="11.89080277142477"><ele>387.83333333333337</ele><time>2026-04-18T17:14:39.999Z</time></trkpt><trkpt lat="43.381054188239204" lon="11.890704317071327"><ele>383.0</ele><time>2026-04-18T17:14:41.999Z</time></trkpt><trkpt lat="43.38103513810999" lon="11.890619239748085"><ele>383.0</ele><time>2026-04-18T17:14:43.999Z</time></trkpt><trkpt lat="43.380966753774366" lon="11.890542786923714"><ele>383.0</ele><time>2026-04-18T17:14:45.999Z</time></trkpt><trkpt lat="43.38089781760269" lon="11.890586737593832"><ele>383.0</ele><time>2026-04-18T17:14:47.999Z</time></trkpt><trkpt lat="43.38085286771081" lon="11.89067282505232"><ele>383.0</ele><time>2026-04-18T17:14:50.999Z</time></trkpt><trkpt lat="43.38079306368397" lon="11.890722299357309"><ele>383.0</ele><time>2026-04-18T17:14:53.999Z</time></trkpt><trkpt lat="43.38072627489044" lon="11.890731364629673"><ele>383.0</ele><time>2026-04-18T17:14:56.999Z</time></trkpt><trkpt lat="43.38067132963346" lon="11.890669459724078"><ele>383.0</ele><time>2026-04-18T17:14:58.999Z</time></trkpt><trkpt lat="43.38060332731639" lon="11.890710337248668"><ele>383.0</ele><time>2026-04-18T17:15:00.999Z</time></trkpt><trkpt lat="43.38056040634373" lon="11.890806083373088"><ele>383.0</ele><time>2026-04-18T17:15:02.999Z</time></trkpt><trkpt lat="43.3804987421849" lon="11.890858671986553"><ele>383.0</ele><time>2026-04-18T17:15:05.999Z</time></trkpt><trkpt lat="43.38042010427911" lon="11.890779672673984"><ele>383.0</ele><time>2026-04-18T17:15:08.999Z</time></trkpt><trkpt lat="43.380362170057595" lon="11.890722039773896"><ele>383.0</ele><time>2026-04-18T17:15:10.999Z</time></trkpt><trkpt lat="43.380295790084155" lon="11.890712065713986"><ele>383.0</ele><time>2026-04-18T17:15:12.999Z</time></trkpt><trkpt lat="43.38028855879145" lon="11.890822798342127"><ele>379.83333333333337</ele><time>2026-04-18T17:15:15.999Z</time></trkpt><trkpt lat="43.380198579659634" lon="11.890847918927422"><ele>376.6666666666667</ele><time>2026-04-18T17:15:18.999Z</time></trkpt><trkpt lat="43.38010398733573" lon="11.89081929320625"><ele>373.5</ele><time>2026-04-18T17:15:21.999Z</time></trkpt><trkpt lat="43.38003003273857" lon="11.890791136482946"><ele>370.3333333333333</ele><time>2026-04-18T17:15:23.999Z</time></trkpt><trkpt lat="43.379962089148044" lon="11.890735693681535"><ele>367.16666666666663</ele><time>2026-04-18T17:15:25.999Z</time></trkpt><trkpt lat="43.37988755089776" lon="11.890707936949545"><ele>364.0</ele><time>2026-04-18T17:15:27.999Z</time></trkpt><trkpt lat="43.37978260252464" lon="11.890698139980742"><ele>364.0</ele><time>2026-04-18T17:15:30.999Z</time></trkpt><trkpt lat="43.37969774267989" lon="11.8906385688449"><ele>364.0</ele><time>2026-04-18T17:15:33.999Z</time></trkpt><trkpt lat="43.379622208673005" lon="11.890556690966823"><ele>364.0</ele><time>2026-04-18T17:15:35.999Z</time></trkpt><trkpt lat="43.3795648531654" lon="11.890482223936706"><ele>364.0</ele><time>2026-04-18T17:15:37.999Z</time></trkpt><trkpt lat="43.37947699626472" lon="11.890416485637633"><ele>364.0</ele><time>2026-04-18T17:15:39.999Z</time></trkpt><trkpt lat="43.379414297192525" lon="11.890398708309101"><ele>364.0</ele><time>2026-04-18T17:15:41.999Z</time></trkpt><trkpt lat="43.37932780402545" lon="11.890368843934619"><ele>361.79999999999995</ele><time>2026-04-18T17:15:44Z</time></trkpt><trkpt lat="43.3792352728523" lon="11.890381138281754"><ele>359.59999999999997</ele><time>2026-04-18T17:15:46Z</time></trkpt><trkpt lat="43.37913339251805" lon="11.890403599444868"><ele>357.4</ele><time>2026-04-18T17:15:48Z</time></trkpt><trkpt lat="43.37903755991412" lon="11.890391358707028"><ele>355.2</ele><time>2026-04-18T17:15:50Z</time></trkpt><trkpt lat="43.378938163536944" lon="11.890388299763307"><ele>353.0</ele><time>2026-04-18T17:15:52Z</time></trkpt><trkpt lat="43.378841005344576" lon="11.890346307736305"><ele>351.4</ele><time>2026-04-18T17:15:54Z</time></trkpt><trkpt lat="43.37876705081825" lon="11.890269649680924"><ele>349.79999999999995</ele><time>2026-04-18T17:15:56Z</time></trkpt><trkpt lat="43.37862198511377" lon="11.890193198208982"><ele>348.2</ele><time>2026-04-18T17:16:00Z</time></trkpt><trkpt lat="43.378519050485544" lon="11.89016968201425"><ele>346.6</ele><time>2026-04-18T17:16:02Z</time></trkpt><trkpt lat="43.37843335482672" lon="11.890163377608426"><ele>345.0</ele><time>2026-04-18T17:16:05Z</time></trkpt><trkpt lat="43.378281342392526" lon="11.890167999550744"><ele>345.0</ele><time>2026-04-18T17:16:06Z</time></trkpt><trkpt lat="43.378205509866156" lon="11.89015561745675"><ele>345.0</ele><time>2026-04-18T17:16:07Z</time></trkpt><trkpt lat="43.378131190997415" lon="11.890137160995561"><ele>345.0</ele><time>2026-04-18T17:16:08Z</time></trkpt><trkpt lat="43.37805027729057" lon="11.890118945232445"><ele>345.0</ele><time>2026-04-18T17:16:09Z</time></trkpt><trkpt lat="43.37797629183903" lon="11.890100500187796"><ele>345.0</ele><time>2026-04-18T17:16:10Z</time></trkpt><trkpt lat="43.3778928960413" lon="11.890071127444054"><ele>345.0</ele><time>2026-04-18T17:16:11Z</time></trkpt><trkpt lat="43.37781579335164" lon="11.889999484579008"><ele>342.6666666666667</ele><time>2026-04-18T17:16:12Z</time></trkpt><trkpt lat="43.377733534466444" lon="11.88995051296716"><ele>340.3333333333333</ele><time>2026-04-18T17:16:13Z</time></trkpt><trkpt lat="43.37764781404196" lon="11.8899307807342"><ele>338.0</ele><time>2026-04-18T17:16:14Z</time></trkpt><trkpt lat="43.37758319864286" lon="11.889878407276631"><ele>335.66666666666663</ele><time>2026-04-18T17:16:15Z</time></trkpt><trkpt lat="43.377518072754434" lon="11.889851827980383"><ele>333.3333333333333</ele><time>2026-04-18T17:16:16Z</time></trkpt><trkpt lat="43.377444407263475" lon="11.88982713304715"><ele>331.0</ele><time>2026-04-18T17:16:17Z</time></trkpt><trkpt lat="43.377371777912444" lon="11.889803189142249"><ele>331.0</ele><time>2026-04-18T17:16:18Z</time></trkpt><trkpt lat="43.37729623264412" lon="11.889777704968955"><ele>331.0</ele><time>2026-04-18T17:16:19Z</time></trkpt><trkpt lat="43.377216304003795" lon="11.889764662622378"><ele>331.0</ele><time>2026-04-18T17:16:20Z</time></trkpt><trkpt lat="43.37714034368572" lon="11.889727597449296"><ele>331.0</ele><time>2026-04-18T17:16:21Z</time></trkpt><trkpt lat="43.37706465275841" lon="11.889702072602589"><ele>331.0</ele><time>2026-04-18T17:16:22Z</time></trkpt><trkpt lat="43.376992557463666" lon="11.88970327736269"><ele>331.0</ele><time>2026-04-18T17:16:23Z</time></trkpt><trkpt lat="43.376925772984535" lon="11.889717430002559"><ele>330.42857142857144</ele><time>2026-04-18T17:16:24Z</time></trkpt><trkpt lat="43.37686525501631" lon="11.889691225003087"><ele>329.85714285714283</ele><time>2026-04-18T17:16:25Z</time></trkpt><trkpt lat="43.37678455655544" lon="11.889671290401784"><ele>329.2857142857143</ele><time>2026-04-18T17:16:26Z</time></trkpt><trkpt lat="43.376718328339074" lon="11.889677023439216"><ele>328.7142857142857</ele><time>2026-04-18T17:16:27Z</time></trkpt><trkpt lat="43.376649008595464" lon="11.889658349680422"><ele>328.14285714285717</ele><time>2026-04-18T17:16:28Z</time></trkpt><trkpt lat="43.376575254523026" lon="11.889660446498436"><ele>327.57142857142856</ele><time>2026-04-18T17:16:29Z</time></trkpt><trkpt lat="43.376503194167775" lon="11.889618708659395"><ele>327.0</ele><time>2026-04-18T17:16:30Z</time></trkpt><trkpt lat="43.376429635569735" lon="11.889589990359184"><ele>327.0</ele><time>2026-04-18T17:16:31Z</time></trkpt><trkpt lat="43.376363908239355" lon="11.889546420896627"><ele>327.0</ele><time>2026-04-18T17:16:32Z</time></trkpt><trkpt lat="43.37628891438259" lon="11.88949374854263"><ele>327.0</ele><time>2026-04-18T17:16:33Z</time></trkpt><trkpt lat="43.37621987936167" lon="11.889420637221553"><ele>327.0</ele><time>2026-04-18T17:16:34Z</time></trkpt><trkpt lat="43.37615277779404" lon="11.889357919610804"><ele>327.0</ele><time>2026-04-18T17:16:35Z</time></trkpt><trkpt lat="43.3760888070954" lon="11.889327820194962"><ele>327.0</ele><time>2026-04-18T17:16:36Z</time></trkpt><trkpt lat="43.37602050809868" lon="11.889312381291793"><ele>326.42857142857144</ele><time>2026-04-18T17:16:37Z</time></trkpt><trkpt lat="43.37595244350943" lon="11.889297985893624"><ele>325.8571428571429</ele><time>2026-04-18T17:16:38Z</time></trkpt><trkpt lat="43.375903405733084" lon="11.88923698684167"><ele>325.28571428571433</ele><time>2026-04-18T17:16:39Z</time></trkpt><trkpt lat="43.37583723227198" lon="11.889208159058112"><ele>324.7142857142857</ele><time>2026-04-18T17:16:40Z</time></trkpt><trkpt lat="43.3757802254729" lon="11.889160481047695"><ele>324.14285714285717</ele><time>2026-04-18T17:16:40.999Z</time></trkpt><trkpt lat="43.37572467069264" lon="11.889100113738467"><ele>323.5714285714286</ele><time>2026-04-18T17:16:41.999Z</time></trkpt><trkpt lat="43.3756726407595" lon="11.889047631076725"><ele>323.0</ele><time>2026-04-18T17:16:42.999Z</time></trkpt><trkpt lat="43.375581392740216" lon="11.888951767899533"><ele>321.4</ele><time>2026-04-18T17:16:44.999Z</time></trkpt><trkpt lat="43.37546799326394" lon="11.888883728078316"><ele>319.79999999999995</ele><time>2026-04-18T17:16:46.999Z</time></trkpt><trkpt lat="43.375374280277725" lon="11.888789491692982"><ele>318.2</ele><time>2026-04-18T17:16:48.999Z</time></trkpt><trkpt lat="43.375260370601104" lon="11.888717871960544"><ele>316.6</ele><time>2026-04-18T17:16:50.999Z</time></trkpt><trkpt lat="43.37520536833674" lon="11.888668227780776"><ele>315.0</ele><time>2026-04-18T17:16:51.999Z</time></trkpt><trkpt lat="43.37514440949247" lon="11.88861308089796"><ele>315.0</ele><time>2026-04-18T17:16:52.999Z</time></trkpt><trkpt lat="43.37507630105315" lon="11.888554126021013"><ele>315.0</ele><time>2026-04-18T17:16:53.999Z</time></trkpt><trkpt lat="43.37500374926418" lon="11.888491983407423"><ele>315.0</ele><time>2026-04-18T17:16:54.999Z</time></trkpt><trkpt lat="43.37492713230763" lon="11.88842501743696"><ele>315.0</ele><time>2026-04-18T17:16:55.999Z</time></trkpt><trkpt lat="43.374847897023606" lon="11.888355349861946"><ele>315.0</ele><time>2026-04-18T17:16:56.999Z</time></trkpt><trkpt lat="43.37476805378937" lon="11.88828540692568"><ele>315.0</ele><time>2026-04-18T17:16:57.999Z</time></trkpt><trkpt lat="43.37468925371943" lon="11.88821143489694"><ele>313.8</ele><time>2026-04-18T17:16:58.999Z</time></trkpt><trkpt lat="43.37461014027321" lon="11.888142488582272"><ele>312.6</ele><time>2026-04-18T17:16:59.999Z</time></trkpt><trkpt lat="43.374532281780745" lon="11.888073057842188"><ele>311.4</ele><time>2026-04-18T17:17:00.999Z</time></trkpt><trkpt lat="43.374455930584666" lon="11.888000801275156"><ele>310.2</ele><time>2026-04-18T17:17:01.999Z</time></trkpt><trkpt lat="43.374380716598225" lon="11.887935934413767"><ele>309.0</ele><time>2026-04-18T17:17:02.999Z</time></trkpt><trkpt lat="43.37430786966969" lon="11.88787227221359"><ele>309.0</ele><time>2026-04-18T17:17:03.999Z</time></trkpt><trkpt lat="43.3742338807099" lon="11.887811535241548"><ele>309.0</ele><time>2026-04-18T17:17:04.999Z</time></trkpt><trkpt lat="43.37416125593267" lon="11.887750062401606"><ele>309.0</ele><time>2026-04-18T17:17:05.999Z</time></trkpt><trkpt lat="43.374089356334856" lon="11.88768860719675"><ele>309.0</ele><time>2026-04-18T17:17:06.999Z</time></trkpt><trkpt lat="43.37401708463899" lon="11.8876267399123"><ele>309.0</ele><time>2026-04-18T17:17:07.999Z</time></trkpt><trkpt lat="43.37394225180121" lon="11.887562066580047"><ele>309.0</ele><time>2026-04-18T17:17:08.999Z</time></trkpt><trkpt lat="43.373865631440296" lon="11.887495131428475"><ele>308.8333333333333</ele><time>2026-04-18T17:17:09.999Z</time></trkpt><trkpt lat="43.3737905810984" lon="11.887426613446086"><ele>308.6666666666667</ele><time>2026-04-18T17:17:10.999Z</time></trkpt><trkpt lat="43.37371469373247" lon="11.887357982035205"><ele>308.5</ele><time>2026-04-18T17:17:11.999Z</time></trkpt><trkpt lat="43.373638288081125" lon="11.88729198086239"><ele>308.33333333333337</ele><time>2026-04-18T17:17:12.999Z</time></trkpt><trkpt lat="43.37356198575191" lon="11.887229304108878"><ele>308.1666666666667</ele><time>2026-04-18T17:17:13.999Z</time></trkpt><trkpt lat="43.37348610663124" lon="11.887167763685516"><ele>308.0</ele><time>2026-04-18T17:17:14.999Z</time></trkpt><trkpt lat="43.37342117641078" lon="11.887110198843677"><ele>308.0</ele><time>2026-04-18T17:17:15.999Z</time></trkpt><trkpt lat="43.37335973021913" lon="11.887055820459965"><ele>308.0</ele><time>2026-04-18T17:17:16.999Z</time></trkpt><trkpt lat="43.373294368570825" lon="11.88701024993768"><ele>308.0</ele><time>2026-04-18T17:17:17.999Z</time></trkpt><trkpt lat="43.37322872672023" lon="11.886974608953807"><ele>308.0</ele><time>2026-04-18T17:17:18.999Z</time></trkpt><trkpt lat="43.3731612768233" lon="11.886949110589114"><ele>308.0</ele><time>2026-04-18T17:17:19.999Z</time></trkpt><trkpt lat="43.37309157236238" lon="11.886932611542312"><ele>308.0</ele><time>2026-04-18T17:17:20.999Z</time></trkpt><trkpt lat="43.37302247358059" lon="11.88692302258175"><ele>308.0</ele><time>2026-04-18T17:17:21.999Z</time></trkpt><trkpt lat="43.3729515497321" lon="11.886895518656074"><ele>307.1666666666667</ele><time>2026-04-18T17:17:22.999Z</time></trkpt><trkpt lat="43.37286837668941" lon="11.886891522255771"><ele>306.33333333333337</ele><time>2026-04-18T17:17:23.999Z</time></trkpt><trkpt lat="43.372792910960044" lon="11.886890827948793"><ele>305.5</ele><time>2026-04-18T17:17:24.999Z</time></trkpt><trkpt lat="43.37272018953186" lon="11.88689097281663"><ele>304.6666666666667</ele><time>2026-04-18T17:17:25.999Z</time></trkpt><trkpt lat="43.37264640515523" lon="11.886892051125898"><ele>303.8333333333333</ele><time>2026-04-18T17:17:26.999Z</time></trkpt><trkpt lat="43.37257891869237" lon="11.886915122389587"><ele>303.0</ele><time>2026-04-18T17:17:27.999Z</time></trkpt><trkpt lat="43.372500373871965" lon="11.886916287834906"><ele>303.0</ele><time>2026-04-18T17:17:29.999Z</time></trkpt><trkpt lat="43.37240143979826" lon="11.886913159498953"><ele>303.0</ele><time>2026-04-18T17:17:32.999Z</time></trkpt><trkpt lat="43.372307091516866" lon="11.88690892231812"><ele>303.0</ele><time>2026-04-18T17:17:34.999Z</time></trkpt><trkpt lat="43.37219469570092" lon="11.886908157072206"><ele>303.0</ele><time>2026-04-18T17:17:36.999Z</time></trkpt><trkpt lat="43.37211141334243" lon="11.886906701152745"><ele>303.0</ele><time>2026-04-18T17:17:38.999Z</time></trkpt><trkpt lat="43.372084446253666" lon="11.88708274547952"><ele>303.0</ele><time>2026-04-18T17:17:42.999Z</time></trkpt><trkpt lat="43.37217489697306" lon="11.887107094553246"><ele>303.0</ele><time>2026-04-18T17:17:43.999Z</time></trkpt><trkpt lat="43.372250073445976" lon="11.887196821201625"><ele>303.0</ele><time>2026-04-18T17:17:45.999Z</time></trkpt><trkpt lat="43.37233919538727" lon="11.8872893413363"><ele>303.0</ele><time>2026-04-18T17:17:47.999Z</time></trkpt><trkpt lat="43.37243954264788" lon="11.887384086683605"><ele>303.0</ele><time>2026-04-18T17:17:50Z</time></trkpt><trkpt lat="43.372520457694996" lon="11.88747692268789"><ele>303.0</ele><time>2026-04-18T17:17:52Z</time></trkpt><trkpt lat="43.37255970996781" lon="11.88756848848309"><ele>303.0</ele><time>2026-04-18T17:17:54Z</time></trkpt><trkpt lat="43.372501360844254" lon="11.887669218858388"><ele>303.0</ele><time>2026-04-18T17:17:57Z</time></trkpt><trkpt lat="43.37245720464939" lon="11.887804252485685"><ele>303.0</ele><time>2026-04-18T17:17:59Z</time></trkpt><trkpt lat="43.372415686825384" lon="11.88794735986372"><ele>303.0</ele><time>2026-04-18T17:18:01Z</time></trkpt><trkpt lat="43.37237085353691" lon="11.888084826421464"><ele>302.8333333333333</ele><time>2026-04-18T17:18:03Z</time></trkpt><trkpt lat="43.37235839674859" lon="11.88817281691742"><ele>302.6666666666667</ele><time>2026-04-18T17:18:04Z</time></trkpt><trkpt lat="43.37233365162373" lon="11.888263675392754"><ele>302.5</ele><time>2026-04-18T17:18:05Z</time></trkpt><trkpt lat="43.37231348892033" lon="11.88834954716747"><ele>302.33333333333337</ele><time>2026-04-18T17:18:06Z</time></trkpt><trkpt lat="43.372276333385024" lon="11.888505566717338"><ele>302.1666666666667</ele><time>2026-04-18T17:18:08Z</time></trkpt><trkpt lat="43.37222854527168" lon="11.888651513727138"><ele>302.0</ele><time>2026-04-18T17:18:10Z</time></trkpt><trkpt lat="43.372190529665964" lon="11.88880409884377"><ele>301.8</ele><time>2026-04-18T17:18:12Z</time></trkpt><trkpt lat="43.37214888887505" lon="11.888944099181888"><ele>301.6</ele><time>2026-04-18T17:18:14Z</time></trkpt><trkpt lat="43.372111552141554" lon="11.889076281151688"><ele>301.40000000000003</ele><time>2026-04-18T17:18:16Z</time></trkpt><trkpt lat="43.372074309526326" lon="11.889193026034318"><ele>301.2</ele><time>2026-04-18T17:18:18Z</time></trkpt><trkpt lat="43.37203228130403" lon="11.889338223858447"><ele>301.0</ele><time>2026-04-18T17:18:20Z</time></trkpt><trkpt lat="43.371986775769145" lon="11.889468190174716"><ele>301.0</ele><time>2026-04-18T17:18:22Z</time></trkpt><trkpt lat="43.371947247005785" lon="11.88961981109606"><ele>301.0</ele><time>2026-04-18T17:18:24Z</time></trkpt><trkpt lat="43.3719192829286" lon="11.889704792638906"><ele>301.0</ele><time>2026-04-18T17:18:25Z</time></trkpt><trkpt lat="43.37189502991839" lon="11.889785394763887"><ele>301.0</ele><time>2026-04-18T17:18:26Z</time></trkpt><trkpt lat="43.37184670315928" lon="11.889949775050784"><ele>301.0</ele><time>2026-04-18T17:18:28Z</time></trkpt><trkpt lat="43.37179988851525" lon="11.890113251500287"><ele>301.2857142857143</ele><time>2026-04-18T17:18:30Z</time></trkpt><trkpt lat="43.37177452871947" lon="11.890195107048646"><ele>301.57142857142856</ele><time>2026-04-18T17:18:31Z</time></trkpt><trkpt lat="43.37175112454306" lon="11.890290851665892"><ele>301.8571428571429</ele><time>2026-04-18T17:18:32Z</time></trkpt><trkpt lat="43.37172393047471" lon="11.890391175115825"><ele>302.1428571428571</ele><time>2026-04-18T17:18:33Z</time></trkpt><trkpt lat="43.37169433791433" lon="11.89049913172487"><ele>302.42857142857144</ele><time>2026-04-18T17:18:34Z</time></trkpt><trkpt lat="43.37166478675204" lon="11.890601216830596"><ele>302.7142857142857</ele><time>2026-04-18T17:18:35Z</time></trkpt><trkpt lat="43.371635741874094" lon="11.890679695348153"><ele>303.0</ele><time>2026-04-18T17:18:36Z</time></trkpt><trkpt lat="43.37154888113946" lon="11.890760198124047"><ele>303.0</ele><time>2026-04-18T17:18:38Z</time></trkpt><trkpt lat="43.371426938069305" lon="11.890732836287473"><ele>303.0</ele><time>2026-04-18T17:18:40Z</time></trkpt><trkpt lat="43.37133727332605" lon="11.890654584999247"><ele>303.0</ele><time>2026-04-18T17:18:42Z</time></trkpt><trkpt lat="43.371332609535315" lon="11.890549915765526"><ele>303.0</ele><time>2026-04-18T17:18:45Z</time></trkpt><trkpt lat="43.371277416819076" lon="11.890609277769803"><ele>303.0</ele><time>2026-04-18T17:18:48Z</time></trkpt><trkpt lat="43.371256253063066" lon="11.89080684744664"><ele>302.1666666666667</ele><time>2026-04-18T17:18:51Z</time></trkpt><trkpt lat="43.37127152152944" lon="11.890892624522106"><ele>301.3333333333333</ele><time>2026-04-18T17:18:52Z</time></trkpt><trkpt lat="43.3712959290094" lon="11.891057581733616"><ele>300.5</ele><time>2026-04-18T17:18:54Z</time></trkpt><trkpt lat="43.37125214425082" lon="11.891173314518076"><ele>299.66666666666663</ele><time>2026-04-18T17:18:56Z</time></trkpt><trkpt lat="43.371182740893495" lon="11.891190755867676"><ele>298.8333333333333</ele><time>2026-04-18T17:18:57Z</time></trkpt><trkpt lat="43.37112121761076" lon="11.891219237405206"><ele>298.0</ele><time>2026-04-18T17:18:58Z</time></trkpt><trkpt lat="43.37103416318095" lon="11.8912259931995"><ele>298.0</ele><time>2026-04-18T17:18:59Z</time></trkpt><trkpt lat="43.37095511425951" lon="11.891239083476988"><ele>298.0</ele><time>2026-04-18T17:18:59.999Z</time></trkpt><trkpt lat="43.37087973372173" lon="11.891234380381938"><ele>298.0</ele><time>2026-04-18T17:19:00.999Z</time></trkpt><trkpt lat="43.37081556066455" lon="11.891214894930727"><ele>298.0</ele><time>2026-04-18T17:19:01.999Z</time></trkpt><trkpt lat="43.37070515340329" lon="11.891175691406692"><ele>298.0</ele><time>2026-04-18T17:19:03.999Z</time></trkpt><trkpt lat="43.37061600422762" lon="11.891127877660939"><ele>298.0</ele><time>2026-04-18T17:19:05.999Z</time></trkpt><trkpt lat="43.370507918052056" lon="11.891072487409094"><ele>298.5</ele><time>2026-04-18T17:19:07.999Z</time></trkpt><trkpt lat="43.370369362315266" lon="11.89105002599072"><ele>299.0</ele><time>2026-04-18T17:19:09.999Z</time></trkpt><trkpt lat="43.37029107871528" lon="11.891055212809698"><ele>299.5</ele><time>2026-04-18T17:19:10.999Z</time></trkpt><trkpt lat="43.37021268190742" lon="11.89105880706557"><ele>300.0</ele><time>2026-04-18T17:19:11.999Z</time></trkpt><trkpt lat="43.37013973542497" lon="11.891055722835048"><ele>300.5</ele><time>2026-04-18T17:19:12.999Z</time></trkpt><trkpt lat="43.37007304005104" lon="11.8910461828615"><ele>301.0</ele><time>2026-04-18T17:19:13.999Z</time></trkpt><trkpt lat="43.36999746398043" lon="11.891045779615299"><ele>301.0</ele><time>2026-04-18T17:19:14.999Z</time></trkpt><trkpt lat="43.36992489654066" lon="11.891032893703786"><ele>301.0</ele><time>2026-04-18T17:19:15.999Z</time></trkpt><trkpt lat="43.36985431704714" lon="11.891013140572882"><ele>301.0</ele><time>2026-04-18T17:19:16.999Z</time></trkpt><trkpt lat="43.36979302906639" lon="11.890975820297735"><ele>301.0</ele><time>2026-04-18T17:19:17.999Z</time></trkpt><trkpt lat="43.36973277366454" lon="11.890941030794867"><ele>301.0</ele><time>2026-04-18T17:19:18.999Z</time></trkpt><trkpt lat="43.369630163286" lon="11.890949494582198"><ele>301.0</ele><time>2026-04-18T17:19:20.999Z</time></trkpt><trkpt lat="43.36953489574447" lon="11.891037676491708"><ele>302.0</ele><time>2026-04-18T17:19:22.999Z</time></trkpt><trkpt lat="43.36946501317378" lon="11.891091125699889"><ele>303.0</ele><time>2026-04-18T17:19:23.999Z</time></trkpt><trkpt lat="43.369378286378236" lon="11.891138906711086"><ele>304.0</ele><time>2026-04-18T17:19:24.999Z</time></trkpt><trkpt lat="43.36929082785538" lon="11.891170809785919"><ele>305.0</ele><time>2026-04-18T17:19:25.999Z</time></trkpt><trkpt lat="43.369201169589765" lon="11.89122421552299"><ele>306.0</ele><time>2026-04-18T17:19:26.999Z</time></trkpt><trkpt lat="43.36910636896909" lon="11.891259572738987"><ele>306.0</ele><time>2026-04-18T17:19:27.999Z</time></trkpt><trkpt lat="43.369026718585665" lon="11.891320278627306"><ele>306.0</ele><time>2026-04-18T17:19:28.999Z</time></trkpt><trkpt lat="43.36893858767108" lon="11.89138595981679"><ele>306.0</ele><time>2026-04-18T17:19:29.999Z</time></trkpt><trkpt lat="43.36885501823152" lon="11.891442144093466"><ele>306.0</ele><time>2026-04-18T17:19:30.999Z</time></trkpt><trkpt lat="43.368772716000784" lon="11.891492015084273"><ele>306.0</ele><time>2026-04-18T17:19:31.999Z</time></trkpt><trkpt lat="43.36869292201371" lon="11.891535229836098"><ele>306.0</ele><time>2026-04-18T17:19:32.999Z</time></trkpt><trkpt lat="43.36861091044615" lon="11.89157427744449"><ele>306.0</ele><time>2026-04-18T17:19:33.999Z</time></trkpt><trkpt lat="43.36852349671911" lon="11.891602646153773"><ele>306.0</ele><time>2026-04-18T17:19:34.999Z</time></trkpt><trkpt lat="43.368435196580144" lon="11.89161784395684"><ele>306.0</ele><time>2026-04-18T17:19:35.999Z</time></trkpt><trkpt lat="43.36835699175961" lon="11.891662448545237"><ele>306.0</ele><time>2026-04-18T17:19:36.999Z</time></trkpt><trkpt lat="43.36827790511748" lon="11.89172392102925"><ele>306.0</ele><time>2026-04-18T17:19:37.999Z</time></trkpt><trkpt lat="43.36819466655502" lon="11.891769617345675"><ele>306.0</ele><time>2026-04-18T17:19:38.999Z</time></trkpt><trkpt lat="43.3681263039247" lon="11.89182009403191"><ele>306.0</ele><time>2026-04-18T17:19:39.999Z</time></trkpt><trkpt lat="43.368069604150385" lon="11.89186351467879"><ele>306.0</ele><time>2026-04-18T17:19:40.999Z</time></trkpt><trkpt lat="43.368010973960935" lon="11.891909682107103"><ele>306.0</ele><time>2026-04-18T17:19:41.999Z</time></trkpt><trkpt lat="43.367921885992516" lon="11.891982999051235"><ele>306.0</ele><time>2026-04-18T17:19:43.999Z</time></trkpt><trkpt lat="43.36789547822911" lon="11.892095548182994"><ele>306.0</ele><time>2026-04-18T17:19:45.999Z</time></trkpt><trkpt lat="43.367844946386825" lon="11.89223046435211"><ele>305.6</ele><time>2026-04-18T17:19:47.999Z</time></trkpt><trkpt lat="43.3677248313242" lon="11.892359157742098"><ele>305.20000000000005</ele><time>2026-04-18T17:19:49.999Z</time></trkpt><trkpt lat="43.36765786516794" lon="11.892414594626452"><ele>304.79999999999995</ele><time>2026-04-18T17:19:50.999Z</time></trkpt><trkpt lat="43.36759519293453" lon="11.892486095385017"><ele>304.4</ele><time>2026-04-18T17:19:51.999Z</time></trkpt><trkpt lat="43.367526991330934" lon="11.892546557425497"><ele>304.0</ele><time>2026-04-18T17:19:52.999Z</time></trkpt><trkpt lat="43.367471431176334" lon="11.892616594513484"><ele>304.0</ele><time>2026-04-18T17:19:53.999Z</time></trkpt><trkpt lat="43.3674212216869" lon="11.892689698622407"><ele>304.0</ele><time>2026-04-18T17:19:55Z</time></trkpt><trkpt lat="43.36735486317471" lon="11.892748854573679"><ele>304.0</ele><time>2026-04-18T17:19:56Z</time></trkpt><trkpt lat="43.367301050532376" lon="11.892826350655413"><ele>304.0</ele><time>2026-04-18T17:19:57Z</time></trkpt><trkpt lat="43.36724447705512" lon="11.89290855209247"><ele>304.0</ele><time>2026-04-18T17:19:58Z</time></trkpt><trkpt lat="43.36718908613898" lon="11.893003738670684"><ele>304.0</ele><time>2026-04-18T17:19:59Z</time></trkpt><trkpt lat="43.367140580742735" lon="11.893114826902226"><ele>303.8</ele><time>2026-04-18T17:20:00Z</time></trkpt><trkpt lat="43.367077127718254" lon="11.8932088088562"><ele>303.59999999999997</ele><time>2026-04-18T17:20:01Z</time></trkpt><trkpt lat="43.36701584785518" lon="11.893298379085339"><ele>303.4</ele><time>2026-04-18T17:20:02Z</time></trkpt><trkpt lat="43.3669401786356" lon="11.893364938053091"><ele>303.2</ele><time>2026-04-18T17:20:03Z</time></trkpt><trkpt lat="43.36687896077457" lon="11.893454015571123"><ele>303.0</ele><time>2026-04-18T17:20:04Z</time></trkpt><trkpt lat="43.36679308553063" lon="11.893487162299346"><ele>303.0</ele><time>2026-04-18T17:20:05Z</time></trkpt><trkpt lat="43.366719859117616" lon="11.893565419911901"><ele>303.0</ele><time>2026-04-18T17:20:06Z</time></trkpt><trkpt lat="43.366639558347195" lon="11.893618488862504"><ele>303.0</ele><time>2026-04-18T17:20:07Z</time></trkpt><trkpt lat="43.36654887067718" lon="11.893658277631891"><ele>303.0</ele><time>2026-04-18T17:20:08Z</time></trkpt><trkpt lat="43.36647003495576" lon="11.893736145795412"><ele>303.0</ele><time>2026-04-18T17:20:09Z</time></trkpt><trkpt lat="43.36638601921055" lon="11.893789621452477"><ele>303.0</ele><time>2026-04-18T17:20:10Z</time></trkpt><trkpt lat="43.366311056444886" lon="11.893841664753099"><ele>303.0</ele><time>2026-04-18T17:20:11Z</time></trkpt><trkpt lat="43.36623445762001" lon="11.89389892667044"><ele>303.0</ele><time>2026-04-18T17:20:12Z</time></trkpt><trkpt lat="43.36615007527558" lon="11.893963361890627"><ele>303.0</ele><time>2026-04-18T17:20:13Z</time></trkpt><trkpt lat="43.36605561891867" lon="11.89400914525526"><ele>303.0</ele><time>2026-04-18T17:20:14Z</time></trkpt><trkpt lat="43.365995650054025" lon="11.894077438315014"><ele>303.0</ele><time>2026-04-18T17:20:15Z</time></trkpt><trkpt lat="43.365926889737075" lon="11.894117110083469"><ele>303.0</ele><time>2026-04-18T17:20:17Z</time></trkpt><trkpt lat="43.365862049190746" lon="11.89414592444803"><ele>303.0</ele><time>2026-04-18T17:20:27Z</time></trkpt><trkpt lat="43.36577334603129" lon="11.894113585523233"><ele>303.0</ele><time>2026-04-18T17:20:29Z</time></trkpt><trkpt lat="43.36564696985864" lon="11.894173903516702"><ele>303.0</ele><time>2026-04-18T17:20:31Z</time></trkpt><trkpt lat="43.3655651764193" lon="11.89420762466759"><ele>303.0</ele><time>2026-04-18T17:20:32Z</time></trkpt><trkpt lat="43.3654781824021" lon="11.894238677138345"><ele>304.5</ele><time>2026-04-18T17:20:33Z</time></trkpt><trkpt lat="43.365395433014776" lon="11.894272057380773"><ele>306.0</ele><time>2026-04-18T17:20:34Z</time></trkpt><trkpt lat="43.365318674086694" lon="11.89427004806262"><ele>307.5</ele><time>2026-04-18T17:20:35Z</time></trkpt><trkpt lat="43.3652488448887" lon="11.894282868385082"><ele>309.0</ele><time>2026-04-18T17:20:36Z</time></trkpt><trkpt lat="43.365123540756386" lon="11.89428220245585"><ele>310.5</ele><time>2026-04-18T17:20:38Z</time></trkpt><trkpt lat="43.36504890947149" lon="11.894281535679463"><ele>312.0</ele><time>2026-04-18T17:20:39Z</time></trkpt><trkpt lat="43.36498112508764" lon="11.894299645023164"><ele>312.0</ele><time>2026-04-18T17:20:40Z</time></trkpt><trkpt lat="43.36491254847037" lon="11.894293946181742"><ele>312.0</ele><time>2026-04-18T17:20:41Z</time></trkpt><trkpt lat="43.36484814589802" lon="11.894289400588024"><ele>312.0</ele><time>2026-04-18T17:20:42Z</time></trkpt><trkpt lat="43.36477406892506" lon="11.894295486743568"><ele>312.0</ele><time>2026-04-18T17:20:43Z</time></trkpt><trkpt lat="43.364699011966984" lon="11.894320312302336"><ele>312.0</ele><time>2026-04-18T17:20:44Z</time></trkpt><trkpt lat="43.364616042063545" lon="11.894347078865792"><ele>312.0</ele><time>2026-04-18T17:20:45Z</time></trkpt><trkpt lat="43.36452283606087" lon="11.894371940921186"><ele>312.0</ele><time>2026-04-18T17:20:46Z</time></trkpt><trkpt lat="43.364438747756125" lon="11.894386251659954"><ele>312.0</ele><time>2026-04-18T17:20:47Z</time></trkpt><trkpt lat="43.36436314673606" lon="11.894422318552207"><ele>312.0</ele><time>2026-04-18T17:20:48Z</time></trkpt><trkpt lat="43.36425074879986" lon="11.894446037070713"><ele>312.0</ele><time>2026-04-18T17:20:49Z</time></trkpt><trkpt lat="43.36414854137563" lon="11.89448034184163"><ele>312.0</ele><time>2026-04-18T17:20:50Z</time></trkpt><trkpt lat="43.364054294644816" lon="11.894520230843181"><ele>312.0</ele><time>2026-04-18T17:20:51Z</time></trkpt><trkpt lat="43.363964732314315" lon="11.894548399790967"><ele>312.0</ele><time>2026-04-18T17:20:52Z</time></trkpt><trkpt lat="43.36388527215455" lon="11.894588240590489"><ele>312.0</ele><time>2026-04-18T17:20:53Z</time></trkpt><trkpt lat="43.36381518287159" lon="11.894619737793047"><ele>312.0</ele><time>2026-04-18T17:20:54Z</time></trkpt><trkpt lat="43.36374751540414" lon="11.894646508010354"><ele>312.0</ele><time>2026-04-18T17:20:55Z</time></trkpt><trkpt lat="43.363673883755936" lon="11.894636032761355"><ele>312.0</ele><time>2026-04-18T17:20:56Z</time></trkpt><trkpt lat="43.36360337883608" lon="11.894665435222496"><ele>310.5</ele><time>2026-04-18T17:20:57Z</time></trkpt><trkpt lat="43.36353469977838" lon="11.894691994328898"><ele>309.0</ele><time>2026-04-18T17:20:58Z</time></trkpt><trkpt lat="43.363464514226145" lon="11.894724141983595"><ele>307.5</ele><time>2026-04-18T17:20:59Z</time></trkpt><trkpt lat="43.36339305198567" lon="11.894750929799093"><ele>306.0</ele><time>2026-04-18T17:21:00Z</time></trkpt><trkpt lat="43.36332457310565" lon="11.894790071292178"><ele>304.5</ele><time>2026-04-18T17:21:01Z</time></trkpt><trkpt lat="43.363256214809795" lon="11.894843835131407"><ele>303.0</ele><time>2026-04-18T17:21:02Z</time></trkpt><trkpt lat="43.363185234409535" lon="11.894894818684058"><ele>303.0</ele><time>2026-04-18T17:21:03Z</time></trkpt><trkpt lat="43.36312206483933" lon="11.894967308067361"><ele>303.0</ele><time>2026-04-18T17:21:04Z</time></trkpt><trkpt lat="43.36305559715311" lon="11.89502676046797"><ele>303.0</ele><time>2026-04-18T17:21:05Z</time></trkpt><trkpt lat="43.36299065523404" lon="11.895082872985213"><ele>303.0</ele><time>2026-04-18T17:21:06Z</time></trkpt><trkpt lat="43.36292953970412" lon="11.895139994055672"><ele>303.0</ele><time>2026-04-18T17:21:07Z</time></trkpt><trkpt lat="43.3628612240731" lon="11.895175456091307"><ele>303.0</ele><time>2026-04-18T17:21:08Z</time></trkpt><trkpt lat="43.36280395293363" lon="11.895219449894716"><ele>301.8</ele><time>2026-04-18T17:21:09Z</time></trkpt><trkpt lat="43.362742285613955" lon="11.895254053840933"><ele>300.6</ele><time>2026-04-18T17:21:10Z</time></trkpt><trkpt lat="43.3626276206028" lon="11.895289398939397"><ele>299.4</ele><time>2026-04-18T17:21:12Z</time></trkpt><trkpt lat="43.36255418821132" lon="11.895278906598557"><ele>298.2</ele><time>2026-04-18T17:21:14Z</time></trkpt><trkpt lat="43.36247147326159" lon="11.895306306321833"><ele>297.0</ele><time>2026-04-18T17:21:17Z</time></trkpt><trkpt lat="43.36244480806622" lon="11.895471660098137"><ele>297.0</ele><time>2026-04-18T17:21:18Z</time></trkpt><trkpt lat="43.362428853177256" lon="11.895563947213724"><ele>297.0</ele><time>2026-04-18T17:21:18.999Z</time></trkpt><trkpt lat="43.36240178822896" lon="11.895670779165382"><ele>297.0</ele><time>2026-04-18T17:21:19.999Z</time></trkpt><trkpt lat="43.36236793372586" lon="11.895788600594678"><ele>297.0</ele><time>2026-04-18T17:21:20.999Z</time></trkpt><trkpt lat="43.362320515938876" lon="11.895882645675227"><ele>297.0</ele><time>2026-04-18T17:21:21.999Z</time></trkpt><trkpt lat="43.362282518548135" lon="11.896030759455453"><ele>297.0</ele><time>2026-04-18T17:21:23.999Z</time></trkpt><trkpt lat="43.36224398302008" lon="11.896174247698095"><ele>297.0</ele><time>2026-04-18T17:21:25.999Z</time></trkpt><trkpt lat="43.36220126437929" lon="11.896301693000478"><ele>297.0</ele><time>2026-04-18T17:21:27.999Z</time></trkpt><trkpt lat="43.36215575673522" lon="11.896434452296198"><ele>297.0</ele><time>2026-04-18T17:21:29.999Z</time></trkpt><trkpt lat="43.362102921991145" lon="11.896588206411831"><ele>297.0</ele><time>2026-04-18T17:21:31.999Z</time></trkpt><trkpt lat="43.362074037802486" lon="11.896672040143647"><ele>297.0</ele><time>2026-04-18T17:21:32.999Z</time></trkpt><trkpt lat="43.36204401773429" lon="11.896759113368342"><ele>296.2</ele><time>2026-04-18T17:21:33.999Z</time></trkpt><trkpt lat="43.36201509304736" lon="11.896845682079675"><ele>295.4</ele><time>2026-04-18T17:21:34.999Z</time></trkpt><trkpt lat="43.361967745233734" lon="11.896990567850455"><ele>294.6</ele><time>2026-04-18T17:21:36.999Z</time></trkpt><trkpt lat="43.36193577376279" lon="11.897118547054829"><ele>293.8</ele><time>2026-04-18T17:21:38.999Z</time></trkpt><trkpt lat="43.36195159501494" lon="11.897268141221838"><ele>293.0</ele><time>2026-04-18T17:21:40.999Z</time></trkpt><trkpt lat="43.36196777232073" lon="11.897397390684159"><ele>293.0</ele><time>2026-04-18T17:21:42.999Z</time></trkpt><trkpt lat="43.36197600690453" lon="11.897508978566027"><ele>293.0</ele><time>2026-04-18T17:21:44.999Z</time></trkpt><trkpt lat="43.36199509924752" lon="11.897627919580476"><ele>293.0</ele><time>2026-04-18T17:21:46.999Z</time></trkpt><trkpt lat="43.3619077098465" lon="11.897688907755073"><ele>293.0</ele><time>2026-04-18T17:21:47.999Z</time></trkpt><trkpt lat="43.36198398111664" lon="11.897763440223999"><ele>293.0</ele><time>2026-04-18T17:21:48.999Z</time></trkpt><trkpt lat="43.36195204450094" lon="11.897914971685342"><ele>293.0</ele><time>2026-04-18T17:21:50.999Z</time></trkpt><trkpt lat="43.36189835300072" lon="11.898063682944413"><ele>293.0</ele><time>2026-04-18T17:21:52.999Z</time></trkpt><trkpt lat="43.36183966375716" lon="11.898204712751216"><ele>293.0</ele><time>2026-04-18T17:21:54.999Z</time></trkpt><trkpt lat="43.361773426613475" lon="11.898349099422349"><ele>293.0</ele><time>2026-04-18T17:21:56.999Z</time></trkpt><trkpt lat="43.361721481907786" lon="11.898398722709109"><ele>293.0</ele><time>2026-04-18T17:21:57.999Z</time></trkpt><trkpt lat="43.361640215684154" lon="11.898517777966816"><ele>293.1428571428571</ele><time>2026-04-18T17:22:00Z</time></trkpt><trkpt lat="43.36158506826766" lon="11.898563896463004"><ele>293.2857142857143</ele><time>2026-04-18T17:22:01Z</time></trkpt><trkpt lat="43.36152522139714" lon="11.898594933520908"><ele>293.42857142857144</ele><time>2026-04-18T17:22:02Z</time></trkpt><trkpt lat="43.36147622353232" lon="11.898662357001966"><ele>293.57142857142856</ele><time>2026-04-18T17:22:03Z</time></trkpt><trkpt lat="43.36143541135898" lon="11.898741823945862"><ele>293.7142857142857</ele><time>2026-04-18T17:22:04Z</time></trkpt><trkpt lat="43.36139922573222" lon="11.89881651478489"><ele>293.85714285714283</ele><time>2026-04-18T17:22:05Z</time></trkpt><trkpt lat="43.361360807288044" lon="11.898895814259959"><ele>294.0</ele><time>2026-04-18T17:22:06Z</time></trkpt><trkpt lat="43.36132430736114" lon="11.898972756916216"><ele>294.0</ele><time>2026-04-18T17:22:07Z</time></trkpt><trkpt lat="43.36128872823452" lon="11.899047909906976"><ele>294.0</ele><time>2026-04-18T17:22:08Z</time></trkpt><trkpt lat="43.361251249826935" lon="11.899127074732476"><ele>294.0</ele><time>2026-04-18T17:22:09Z</time></trkpt><trkpt lat="43.36122639090891" lon="11.89921801898339"><ele>294.0</ele><time>2026-04-18T17:22:10Z</time></trkpt><trkpt lat="43.36117771591175" lon="11.899282470309704"><ele>294.0</ele><time>2026-04-18T17:22:11Z</time></trkpt><trkpt lat="43.361108320139444" lon="11.89940866062929"><ele>294.0</ele><time>2026-04-18T17:22:13Z</time></trkpt><trkpt lat="43.36104023478558" lon="11.89953295551409"><ele>294.0</ele><time>2026-04-18T17:22:15Z</time></trkpt><trkpt lat="43.36096509602269" lon="11.899673421832981"><ele>294.0</ele><time>2026-04-18T17:22:17Z</time></trkpt><trkpt lat="43.360920908833585" lon="11.899757331926644"><ele>294.0</ele><time>2026-04-18T17:22:18Z</time></trkpt><trkpt lat="43.360881681431614" lon="11.899831823407322"><ele>294.0</ele><time>2026-04-18T17:22:19Z</time></trkpt><trkpt lat="43.36083012943522" lon="11.89997504541491"><ele>294.0</ele><time>2026-04-18T17:22:21Z</time></trkpt><trkpt lat="43.360804150249336" lon="11.900107336362476"><ele>293.8</ele><time>2026-04-18T17:22:23Z</time></trkpt><trkpt lat="43.360788210095386" lon="11.900256645731504"><ele>293.59999999999997</ele><time>2026-04-18T17:22:25Z</time></trkpt><trkpt lat="43.36062084988201" lon="11.900311690605964"><ele>293.4</ele><time>2026-04-18T17:22:26Z</time></trkpt><trkpt lat="43.3605708126625" lon="11.90038880045676"><ele>293.2</ele><time>2026-04-18T17:22:27Z</time></trkpt><trkpt lat="43.36052382154062" lon="11.900458427450832"><ele>293.0</ele><time>2026-04-18T17:22:28Z</time></trkpt><trkpt lat="43.36043869405008" lon="11.90056879823969"><ele>292.0</ele><time>2026-04-18T17:22:30Z</time></trkpt><trkpt lat="43.36037530297628" lon="11.900674144220988"><ele>291.0</ele><time>2026-04-18T17:22:32Z</time></trkpt><trkpt lat="43.360296902400606" lon="11.900761448625099"><ele>290.0</ele><time>2026-04-18T17:22:34Z</time></trkpt><trkpt lat="43.3602381729987" lon="11.900801977869655"><ele>289.0</ele><time>2026-04-18T17:22:35Z</time></trkpt><trkpt lat="43.36014162110842" lon="11.900908785129833"><ele>288.0</ele><time>2026-04-18T17:22:37Z</time></trkpt><trkpt lat="43.36003681075792" lon="11.900998260274731"><ele>288.0</ele><time>2026-04-18T17:22:39Z</time></trkpt><trkpt lat="43.35994095334606" lon="11.901058254635327"><ele>288.0</ele><time>2026-04-18T17:22:41Z</time></trkpt><trkpt lat="43.35983707670508" lon="11.901127114576715"><ele>288.0</ele><time>2026-04-18T17:22:43Z</time></trkpt><trkpt lat="43.35974587936275" lon="11.901247922426757"><ele>288.0</ele><time>2026-04-18T17:22:45Z</time></trkpt><trkpt lat="43.35970698741507" lon="11.901322803898085"><ele>288.0</ele><time>2026-04-18T17:22:46Z</time></trkpt><trkpt lat="43.359671923232725" lon="11.901396674798182"><ele>287.8333333333333</ele><time>2026-04-18T17:22:47Z</time></trkpt><trkpt lat="43.359636720670096" lon="11.901476200319168"><ele>287.6666666666667</ele><time>2026-04-18T17:22:48Z</time></trkpt><trkpt lat="43.35959652601772" lon="11.901561741466052"><ele>287.5</ele><time>2026-04-18T17:22:49Z</time></trkpt><trkpt lat="43.359550130663905" lon="11.901649814803918"><ele>287.33333333333337</ele><time>2026-04-18T17:22:50Z</time></trkpt><trkpt lat="43.35950050604593" lon="11.901744923039038"><ele>287.1666666666667</ele><time>2026-04-18T17:22:51Z</time></trkpt><trkpt lat="43.359452108965364" lon="11.901836553679628"><ele>287.0</ele><time>2026-04-18T17:22:52Z</time></trkpt><trkpt lat="43.359401000236645" lon="11.901913495739766"><ele>287.5</ele><time>2026-04-18T17:22:53Z</time></trkpt><trkpt lat="43.35934970920116" lon="11.901986197734532"><ele>288.0</ele><time>2026-04-18T17:22:54Z</time></trkpt><trkpt lat="43.35928328123392" lon="11.902047050847655"><ele>288.5</ele><time>2026-04-18T17:22:55Z</time></trkpt><trkpt lat="43.35922741193753" lon="11.90212031916423"><ele>289.0</ele><time>2026-04-18T17:22:56Z</time></trkpt><trkpt lat="43.35917043986191" lon="11.902195032082705"><ele>289.5</ele><time>2026-04-18T17:22:57Z</time></trkpt><trkpt lat="43.35910723636865" lon="11.902277916880216"><ele>290.0</ele><time>2026-04-18T17:22:58Z</time></trkpt><trkpt lat="43.35904034605186" lon="11.902365636742969"><ele>290.0</ele><time>2026-04-18T17:22:59Z</time></trkpt><trkpt lat="43.35896735251876" lon="11.90245763019186"><ele>290.0</ele><time>2026-04-18T17:23:00Z</time></trkpt><trkpt lat="43.358886904458785" lon="11.902552694652409"><ele>290.0</ele><time>2026-04-18T17:23:01Z</time></trkpt><trkpt lat="43.35880452103917" lon="11.902664912723695"><ele>290.0</ele><time>2026-04-18T17:23:02Z</time></trkpt><trkpt lat="43.358710673943925" lon="11.902763622814835"><ele>290.0</ele><time>2026-04-18T17:23:03Z</time></trkpt><trkpt lat="43.35861054076078" lon="11.902847644779765"><ele>290.0</ele><time>2026-04-18T17:23:04Z</time></trkpt><trkpt lat="43.358517736273555" lon="11.902945055404787"><ele>290.0</ele><time>2026-04-18T17:23:05Z</time></trkpt><trkpt lat="43.35843564510021" lon="11.903057474092092"><ele>290.0</ele><time>2026-04-18T17:23:06Z</time></trkpt><trkpt lat="43.35835436870624" lon="11.90314811673061"><ele>290.0</ele><time>2026-04-18T17:23:07Z</time></trkpt><trkpt lat="43.3582794370139" lon="11.903215205670515"><ele>290.0</ele><time>2026-04-18T17:23:08Z</time></trkpt><trkpt lat="43.35823245203199" lon="11.903296323307341"><ele>290.0</ele><time>2026-04-18T17:23:09Z</time></trkpt><trkpt lat="43.35820697735872" lon="11.903386156061238"><ele>290.0</ele><time>2026-04-18T17:23:10Z</time></trkpt><trkpt lat="43.3580843088933" lon="11.903478528504335"><ele>290.0</ele><time>2026-04-18T17:23:12Z</time></trkpt><trkpt lat="43.35803160231802" lon="11.903572110559713"><ele>290.0</ele><time>2026-04-18T17:23:13Z</time></trkpt><trkpt lat="43.3579570893502" lon="11.903622672915539"><ele>290.0</ele><time>2026-04-18T17:23:14Z</time></trkpt><trkpt lat="43.357881900339564" lon="11.903691969476714"><ele>289.6</ele><time>2026-04-18T17:23:15Z</time></trkpt><trkpt lat="43.35781566330239" lon="11.903780245271852"><ele>289.2</ele><time>2026-04-18T17:23:16Z</time></trkpt><trkpt lat="43.35774181525402" lon="11.903850469039106"><ele>288.8</ele><time>2026-04-18T17:23:17Z</time></trkpt><trkpt lat="43.357665564406155" lon="11.903920796571851"><ele>288.4</ele><time>2026-04-18T17:23:18Z</time></trkpt><trkpt lat="43.35759270587338" lon="11.903995650104141"><ele>288.0</ele><time>2026-04-18T17:23:19Z</time></trkpt><trkpt lat="43.3575133625138" lon="11.904073298896506"><ele>288.00000000000006</ele><time>2026-04-18T17:23:20Z</time></trkpt><trkpt lat="43.35744305160045" lon="11.904143716859583"><ele>288.0</ele><time>2026-04-18T17:23:21Z</time></trkpt><trkpt lat="43.357366338882436" lon="11.904190647751669"><ele>288.0</ele><time>2026-04-18T17:23:22Z</time></trkpt><trkpt lat="43.3573103459273" lon="11.904240124499823"><ele>288.0</ele><time>2026-04-18T17:23:23Z</time></trkpt><trkpt lat="43.35724433054364" lon="11.904212430685028"><ele>288.0</ele><time>2026-04-18T17:23:24Z</time></trkpt><trkpt lat="43.357216184471355" lon="11.904124079782468"><ele>288.00000000000006</ele><time>2026-04-18T17:23:25Z</time></trkpt><trkpt lat="43.357177555462336" lon="11.90404266298783"><ele>288.0</ele><time>2026-04-18T17:23:26Z</time></trkpt><trkpt lat="43.357120905983926" lon="11.903959068865083"><ele>288.0</ele><time>2026-04-18T17:23:27Z</time></trkpt><trkpt lat="43.357069546911745" lon="11.903850123081984"><ele>288.0</ele><time>2026-04-18T17:23:28Z</time></trkpt><trkpt lat="43.35701028647815" lon="11.903734530845524"><ele>288.0</ele><time>2026-04-18T17:23:29Z</time></trkpt><trkpt lat="43.356953677769475" lon="11.903623698617857"><ele>288.0</ele><time>2026-04-18T17:23:30Z</time></trkpt><trkpt lat="43.35689290866993" lon="11.903530130468608"><ele>288.0</ele><time>2026-04-18T17:23:31Z</time></trkpt><trkpt lat="43.35681984154491" lon="11.903466350261597"><ele>288.0</ele><time>2026-04-18T17:23:32Z</time></trkpt><trkpt lat="43.35673493854725" lon="11.903449135085744"><ele>288.0</ele><time>2026-04-18T17:23:32.999Z</time></trkpt><trkpt lat="43.35664435713093" lon="11.903456082166407"><ele>288.0</ele><time>2026-04-18T17:23:33.999Z</time></trkpt><trkpt lat="43.35654870210106" lon="11.903475371767144"><ele>288.0</ele><time>2026-04-18T17:23:34.999Z</time></trkpt><trkpt lat="43.356450673061616" lon="11.903463645865747"><ele>288.0</ele><time>2026-04-18T17:23:35.999Z</time></trkpt><trkpt lat="43.35636582693712" lon="11.903414474517833"><ele>287.4</ele><time>2026-04-18T17:23:36.999Z</time></trkpt><trkpt lat="43.35628904859481" lon="11.903346156763154"><ele>286.8</ele><time>2026-04-18T17:23:37.999Z</time></trkpt><trkpt lat="43.35620594491458" lon="11.903268077279483"><ele>286.2</ele><time>2026-04-18T17:23:38.999Z</time></trkpt><trkpt lat="43.356123006648374" lon="11.903194096108146"><ele>285.6</ele><time>2026-04-18T17:23:39.999Z</time></trkpt><trkpt lat="43.35605109677267" lon="11.903131243622349"><ele>285.0</ele><time>2026-04-18T17:23:40.999Z</time></trkpt><trkpt lat="43.35598308177734" lon="11.903090033417904"><ele>285.0</ele><time>2026-04-18T17:23:41.999Z</time></trkpt><trkpt lat="43.355918383350655" lon="11.903075789243118"><ele>285.0</ele><time>2026-04-18T17:23:42.999Z</time></trkpt><trkpt lat="43.3558407879343" lon="11.903078272611637"><ele>285.0</ele><time>2026-04-18T17:23:44.999Z</time></trkpt><trkpt lat="43.35585963933366" lon="11.903265530640757"><ele>285.0</ele><time>2026-04-18T17:23:47.999Z</time></trkpt><trkpt lat="43.3558944383946" lon="11.903363638064471"><ele>285.0</ele><time>2026-04-18T17:23:48.999Z</time></trkpt><trkpt lat="43.35593744098031" lon="11.903462689603739"><ele>285.0</ele><time>2026-04-18T17:23:49.999Z</time></trkpt><trkpt lat="43.35598538079732" lon="11.903576539397763"><ele>285.2</ele><time>2026-04-18T17:23:50.999Z</time></trkpt><trkpt lat="43.35603913326445" lon="11.903704193290242"><ele>285.4</ele><time>2026-04-18T17:23:51.999Z</time></trkpt><trkpt lat="43.35609570885635" lon="11.903836613909563"><ele>285.6</ele><time>2026-04-18T17:23:52.999Z</time></trkpt><trkpt lat="43.35614828605563" lon="11.903954831066509"><ele>285.8</ele><time>2026-04-18T17:23:53.999Z</time></trkpt><trkpt lat="43.35619729136156" lon="11.904057919754374"><ele>286.0</ele><time>2026-04-18T17:23:54.999Z</time></trkpt><trkpt lat="43.35624413398652" lon="11.904153959603962"><ele>286.0</ele><time>2026-04-18T17:23:55.999Z</time></trkpt><trkpt lat="43.35629376349453" lon="11.904253925140994"><ele>286.0</ele><time>2026-04-18T17:23:56.999Z</time></trkpt><trkpt lat="43.35634671368685" lon="11.90436057929711"><ele>286.0</ele><time>2026-04-18T17:23:57.999Z</time></trkpt><trkpt lat="43.356400685736304" lon="11.904471570889003"><ele>286.0</ele><time>2026-04-18T17:23:58.999Z</time></trkpt><trkpt lat="43.35645439171563" lon="11.904580816347757"><ele>286.0</ele><time>2026-04-18T17:23:59.999Z</time></trkpt><trkpt lat="43.35651396978857" lon="11.904678878709262"><ele>286.6</ele><time>2026-04-18T17:24:00.999Z</time></trkpt><trkpt lat="43.35656679840982" lon="11.904786065652889"><ele>287.20000000000005</ele><time>2026-04-18T17:24:01.999Z</time></trkpt><trkpt lat="43.35661644602218" lon="11.904892715897232"><ele>287.79999999999995</ele><time>2026-04-18T17:24:02.999Z</time></trkpt><trkpt lat="43.356657384482155" lon="11.905004462752814"><ele>288.4</ele><time>2026-04-18T17:24:03.999Z</time></trkpt><trkpt lat="43.35668603639945" lon="11.905125630412803"><ele>289.0</ele><time>2026-04-18T17:24:05Z</time></trkpt><trkpt lat="43.35668561590704" lon="11.905257939075643"><ele>289.2</ele><time>2026-04-18T17:24:06Z</time></trkpt><trkpt lat="43.35671193278" lon="11.905385694696974"><ele>289.4</ele><time>2026-04-18T17:24:07Z</time></trkpt><trkpt lat="43.35671229751708" lon="11.905519464234487"><ele>289.6</ele><time>2026-04-18T17:24:08Z</time></trkpt><trkpt lat="43.356711236887406" lon="11.905655529689637"><ele>289.8</ele><time>2026-04-18T17:24:09Z</time></trkpt><trkpt lat="43.35671162788871" lon="11.905790626939798"><ele>290.0</ele><time>2026-04-18T17:24:10Z</time></trkpt><trkpt lat="43.35671225660477" lon="11.905924111494633"><ele>290.6</ele><time>2026-04-18T17:24:11Z</time></trkpt><trkpt lat="43.35671006642653" lon="11.906058387479417"><ele>291.2</ele><time>2026-04-18T17:24:12Z</time></trkpt><trkpt lat="43.35669113354632" lon="11.906189947003927"><ele>291.8</ele><time>2026-04-18T17:24:13Z</time></trkpt><trkpt lat="43.35668654108155" lon="11.906326248599054"><ele>292.4</ele><time>2026-04-18T17:24:14Z</time></trkpt><trkpt lat="43.35668863784159" lon="11.906460105454789"><ele>293.0</ele><time>2026-04-18T17:24:15Z</time></trkpt><trkpt lat="43.35671409086044" lon="11.906588161218284"><ele>293.0</ele><time>2026-04-18T17:24:16Z</time></trkpt><trkpt lat="43.35671687717686" lon="11.906712874206677"><ele>293.0</ele><time>2026-04-18T17:24:17Z</time></trkpt><trkpt lat="43.3567355326789" lon="11.90684113925361"><ele>293.0</ele><time>2026-04-18T17:24:18Z</time></trkpt><trkpt lat="43.35674827005193" lon="11.906968058041626"><ele>293.0</ele><time>2026-04-18T17:24:19Z</time></trkpt><trkpt lat="43.356759579217425" lon="11.907093904435458"><ele>293.0</ele><time>2026-04-18T17:24:20Z</time></trkpt><trkpt lat="43.35677008907586" lon="11.907215610754708"><ele>293.1428571428571</ele><time>2026-04-18T17:24:21Z</time></trkpt><trkpt lat="43.356779397667445" lon="11.90732340621377"><ele>293.2857142857143</ele><time>2026-04-18T17:24:22Z</time></trkpt><trkpt lat="43.3568008708471" lon="11.90740593794923"><ele>293.42857142857144</ele><time>2026-04-18T17:24:23Z</time></trkpt><trkpt lat="43.35680870736331" lon="11.907497805732152"><ele>293.57142857142856</ele><time>2026-04-18T17:24:24Z</time></trkpt><trkpt lat="43.3568011666246" lon="11.907596192513626"><ele>293.7142857142857</ele><time>2026-04-18T17:24:25Z</time></trkpt><trkpt lat="43.35681428174717" lon="11.907687383835494"><ele>293.85714285714283</ele><time>2026-04-18T17:24:26Z</time></trkpt><trkpt lat="43.35683949270813" lon="11.907816933975596"><ele>294.0</ele><time>2026-04-18T17:24:28Z</time></trkpt><trkpt lat="43.356737601710556" lon="11.907888002763118"><ele>294.0</ele><time>2026-04-18T17:24:30Z</time></trkpt><trkpt lat="43.35665274347041" lon="11.907981853587206"><ele>294.0</ele><time>2026-04-18T17:24:32Z</time></trkpt><trkpt lat="43.356570873142374" lon="11.908073039761561"><ele>294.0</ele><time>2026-04-18T17:24:34Z</time></trkpt><trkpt lat="43.356494923604856" lon="11.908186391338264"><ele>294.0</ele><time>2026-04-18T17:24:36Z</time></trkpt><trkpt lat="43.356390778453544" lon="11.908273629820885"><ele>294.0</ele><time>2026-04-18T17:24:38Z</time></trkpt><trkpt lat="43.35633932706368" lon="11.908330936787847"><ele>294.8</ele><time>2026-04-18T17:24:39Z</time></trkpt><trkpt lat="43.35631060975374" lon="11.908428454100727"><ele>295.59999999999997</ele><time>2026-04-18T17:24:40Z</time></trkpt><trkpt lat="43.356255563808844" lon="11.90847070966459"><ele>296.4</ele><time>2026-04-18T17:24:41Z</time></trkpt><trkpt lat="43.356213129069424" lon="11.908551320852963"><ele>297.2</ele><time>2026-04-18T17:24:42Z</time></trkpt><trkpt lat="43.35611263796954" lon="11.908652497894643"><ele>298.0</ele><time>2026-04-18T17:24:44Z</time></trkpt><trkpt lat="43.3560208784019" lon="11.908756098840888"><ele>298.0</ele><time>2026-04-18T17:24:46Z</time></trkpt><trkpt lat="43.35593594950161" lon="11.908843849865999"><ele>298.0</ele><time>2026-04-18T17:24:48Z</time></trkpt><trkpt lat="43.355874193559984" lon="11.908910815004726"><ele>298.0</ele><time>2026-04-18T17:24:51Z</time></trkpt><trkpt lat="43.35582055906298" lon="11.90899056984785"><ele>298.0</ele><time>2026-04-18T17:24:56Z</time></trkpt><trkpt lat="43.35574858489749" lon="11.909001325961867"><ele>298.0</ele><time>2026-04-18T17:25:00Z</time></trkpt><trkpt lat="43.35568862883768" lon="11.90891136798217"><ele>298.0</ele><time>2026-04-18T17:25:03Z</time></trkpt><trkpt lat="43.35562573334292" lon="11.908828705280003"><ele>298.0</ele><time>2026-04-18T17:25:05Z</time></trkpt><trkpt lat="43.355628709287835" lon="11.908948826093889"><ele>298.0</ele><time>2026-04-18T17:25:10Z</time></trkpt><trkpt lat="43.355650362433146" lon="11.909034016627535"><ele>298.0</ele><time>2026-04-18T17:25:12Z</time></trkpt><trkpt lat="43.355703134041164" lon="11.909168983612853"><ele>298.0</ele><time>2026-04-18T17:25:14Z</time></trkpt><trkpt lat="43.35574187756303" lon="11.90930020436912"><ele>298.0</ele><time>2026-04-18T17:25:16Z</time></trkpt><trkpt lat="43.35578434335557" lon="11.909381563972444"><ele>298.0</ele><time>2026-04-18T17:25:18Z</time></trkpt><trkpt lat="43.355830862320346" lon="11.909480385459569"><ele>299.3333333333333</ele><time>2026-04-18T17:25:20Z</time></trkpt><trkpt lat="43.35586958285897" lon="11.909587208428784"><ele>300.66666666666663</ele><time>2026-04-18T17:25:22Z</time></trkpt><trkpt lat="43.355884315894386" lon="11.909699797471678"><ele>302.0</ele><time>2026-04-18T17:25:25Z</time></trkpt><trkpt lat="43.355880807198886" lon="11.909793305271482"><ele>303.3333333333333</ele><time>2026-04-18T17:25:27Z</time></trkpt><trkpt lat="43.3558941474222" lon="11.909897537490227"><ele>304.6666666666667</ele><time>2026-04-18T17:25:31Z</time></trkpt><trkpt lat="43.35592726933555" lon="11.910026876102267"><ele>306.0</ele><time>2026-04-18T17:25:33Z</time></trkpt><trkpt lat="43.35594144223002" lon="11.910154101726317"><ele>306.6666666666667</ele><time>2026-04-18T17:25:35Z</time></trkpt><trkpt lat="43.3559627663456" lon="11.910248459586667"><ele>307.3333333333333</ele><time>2026-04-18T17:25:37Z</time></trkpt><trkpt lat="43.35596608368764" lon="11.910352656883504"><ele>308.0</ele><time>2026-04-18T17:25:39Z</time></trkpt><trkpt lat="43.3559345096542" lon="11.91046413229529"><ele>308.66666666666663</ele><time>2026-04-18T17:25:41Z</time></trkpt><trkpt lat="43.35593136453548" lon="11.910590773433073"><ele>309.3333333333333</ele><time>2026-04-18T17:25:43Z</time></trkpt><trkpt lat="43.355947041378286" lon="11.910685740494392"><ele>310.0</ele><time>2026-04-18T17:25:45.999Z</time></trkpt><trkpt lat="43.35595243277256" lon="11.910778274245981"><ele>310.0</ele><time>2026-04-18T17:25:47.999Z</time></trkpt><trkpt lat="43.355967641380545" lon="11.9108708644254"><ele>310.0</ele><time>2026-04-18T17:25:49.999Z</time></trkpt><trkpt lat="43.35598136434187" lon="11.910972780819515"><ele>310.0</ele><time>2026-04-18T17:25:51.999Z</time></trkpt><trkpt lat="43.35593581533336" lon="11.911069105203532"><ele>310.0</ele><time>2026-04-18T17:25:53.999Z</time></trkpt><trkpt lat="43.35587315630803" lon="11.911200205699963"><ele>310.0</ele><time>2026-04-18T17:25:55.999Z</time></trkpt><trkpt lat="43.355824971575736" lon="11.91130420135949"><ele>310.0</ele><time>2026-04-18T17:25:57.999Z</time></trkpt><trkpt lat="43.35577320144871" lon="11.911405128348232"><ele>310.16666666666663</ele><time>2026-04-18T17:25:59.999Z</time></trkpt><trkpt lat="43.355745190415846" lon="11.911495166319485"><ele>310.3333333333333</ele><time>2026-04-18T17:26:01.999Z</time></trkpt><trkpt lat="43.35568822693487" lon="11.911545106891156"><ele>310.5</ele><time>2026-04-18T17:26:03.999Z</time></trkpt><trkpt lat="43.3556214492975" lon="11.911620078362569"><ele>310.6666666666667</ele><time>2026-04-18T17:26:05.999Z</time></trkpt><trkpt lat="43.35554867151249" lon="11.911683023066486"><ele>310.83333333333337</ele><time>2026-04-18T17:26:07.999Z</time></trkpt><trkpt lat="43.35546158503437" lon="11.911763885858308"><ele>311.0</ele><time>2026-04-18T17:26:10Z</time></trkpt><trkpt lat="43.355405736906526" lon="11.911879721058726"><ele>313.0</ele><time>2026-04-18T17:26:12Z</time></trkpt><trkpt lat="43.35533565199931" lon="11.911982035803888"><ele>315.0</ele><time>2026-04-18T17:26:14Z</time></trkpt><trkpt lat="43.355240536354664" lon="11.912073176595046"><ele>317.0</ele><time>2026-04-18T17:26:16Z</time></trkpt><trkpt lat="43.355157649189174" lon="11.912175554024078"><ele>319.0</ele><time>2026-04-18T17:26:18Z</time></trkpt><trkpt lat="43.355075983215094" lon="11.912275604113246"><ele>321.0</ele><time>2026-04-18T17:26:20Z</time></trkpt><trkpt lat="43.355013089228024" lon="11.912390101812141"><ele>321.0</ele><time>2026-04-18T17:26:22Z</time></trkpt><trkpt lat="43.354942314409435" lon="11.912521771698984"><ele>321.0</ele><time>2026-04-18T17:26:24Z</time></trkpt><trkpt lat="43.35490061629868" lon="11.912591492592636"><ele>321.0</ele><time>2026-04-18T17:26:25Z</time></trkpt><trkpt lat="43.354845661192826" lon="11.912714455684366"><ele>321.0</ele><time>2026-04-18T17:26:27Z</time></trkpt><trkpt lat="43.35479944155405" lon="11.912819012474737"><ele>321.0</ele><time>2026-04-18T17:26:29Z</time></trkpt><trkpt lat="43.3546637518191" lon="11.912747802239226"><ele>320.85714285714283</ele><time>2026-04-18T17:26:34Z</time></trkpt><trkpt lat="43.35460246266118" lon="11.912695616200866"><ele>320.7142857142857</ele><time>2026-04-18T17:26:35Z</time></trkpt><trkpt lat="43.35454043579894" lon="11.912630205519877"><ele>320.57142857142856</ele><time>2026-04-18T17:26:36Z</time></trkpt><trkpt lat="43.354486257200485" lon="11.912571319703735"><ele>320.42857142857144</ele><time>2026-04-18T17:26:37Z</time></trkpt><trkpt lat="43.354438985969104" lon="11.912510952737737"><ele>320.2857142857143</ele><time>2026-04-18T17:26:38Z</time></trkpt><trkpt lat="43.354383814997455" lon="11.912450569743458"><ele>320.1428571428571</ele><time>2026-04-18T17:26:39Z</time></trkpt><trkpt lat="43.354330285791804" lon="11.912391288138968"><ele>320.0</ele><time>2026-04-18T17:26:40Z</time></trkpt><trkpt lat="43.35428325098466" lon="11.912333444974747"><ele>319.4</ele><time>2026-04-18T17:26:41Z</time></trkpt><trkpt lat="43.35422763581669" lon="11.912243697986087"><ele>318.8</ele><time>2026-04-18T17:26:43Z</time></trkpt><trkpt lat="43.354190761183794" lon="11.912114837756745"><ele>318.2</ele><time>2026-04-18T17:26:45Z</time></trkpt><trkpt lat="43.354179380262444" lon="11.911958451376854"><ele>317.6</ele><time>2026-04-18T17:26:47Z</time></trkpt><trkpt lat="43.35419338245313" lon="11.911776231671583"><ele>317.0</ele><time>2026-04-18T17:26:49Z</time></trkpt><trkpt lat="43.35418553404522" lon="11.911687231271634"><ele>316.8</ele><time>2026-04-18T17:26:50Z</time></trkpt><trkpt lat="43.35419124816856" lon="11.911600276695168"><ele>316.6</ele><time>2026-04-18T17:26:51Z</time></trkpt><trkpt lat="43.354153863620226" lon="11.911450082415984"><ele>316.40000000000003</ele><time>2026-04-18T17:26:53Z</time></trkpt><trkpt lat="43.35410915238173" lon="11.911292706849448"><ele>316.2</ele><time>2026-04-18T17:26:55Z</time></trkpt><trkpt lat="43.35407867591227" lon="11.911173122682605"><ele>316.0</ele><time>2026-04-18T17:26:57Z</time></trkpt><trkpt lat="43.35404921981718" lon="11.911080858272733"><ele>316.0</ele><time>2026-04-18T17:26:59Z</time></trkpt><trkpt lat="43.354024995000216" lon="11.910994286201289"><ele>316.0</ele><time>2026-04-18T17:27:01Z</time></trkpt><trkpt lat="43.35400229306102" lon="11.91091087247862"><ele>316.0</ele><time>2026-04-18T17:27:03Z</time></trkpt><trkpt lat="43.35397929000622" lon="11.91080075833396"><ele>319.0</ele><time>2026-04-18T17:27:06Z</time></trkpt><trkpt lat="43.35394659728695" lon="11.910723219591874"><ele>319.0</ele><time>2026-04-18T17:27:11Z</time></trkpt></trkseg></trk></gpx>